[[{"header":{"parameterUnit":"m.s-1","parameterCategory":1,"la1":31.0,"la2":29.5877,"lo1":-88.7671,"lo2":-86.6584,"dy":0.0162,"dx":0.0185,"nx":115,"ny":88,"refTime":"2023-02-27T18:00:00:Z","depth":0,"parameterNumber":2,"parameterNumberName":"U-component_of_WINDS"},"data":[0.0,0.0,0.0,0.0,0.0,0.0,0.0,0.0,0.0,0.0,0.0,0.0,0.0,0.0,0.0,0.0,0.0,0.0,0.0,0.0,0.0,0.0,0.0,0.0,0.0,0.0,0.0,0.0,0.0,0.0,0.0,0.0,0.0,0.0,0.0,0.0,0.0,0.0,0.0,0.0,0.0,0.0,0.0,0.0,0.0,0.0,0.0,0.0,0.0,0.0,0.0,0.0,0.0,0.0,0.0,0.0,0.0,0.0,0.0,0.0,0.0,0.0,0.0,0.0,0.0,0.0,0.0,0.0,0.0,0.0,0.0,0.0,0.0,0.0,0.0,0.0,0.0,0.0,0.0,0.0,0.0,0.0,0.0,0.0,0.0,0.0,0.0,0.0,0.0,0.0,0.0,0.0,0.0,0.0,0.0,0.0,0.0,0.0,0.0,0.0,0.0,0.0,0.0,0.0,0.0,0.0,0.0,0.0,0.0,0.0,0.0,0.0,0.0,0.0,0.0,0.0,0.0,0.0,0.0,0.0,0.0,0.0,0.0,0.0,0.0,0.0,0.0,0.0,0.0,0.0,0.0,0.0,0.0,0.0,0.0,0.0,0.0,0.0,0.0,0.0,0.0,0.0,0.0,0.0,0.0,0.0,0.0,0.0,0.0,0.0,0.0,0.0,0.0,0.0,0.0,0.0,0.0,0.0,0.0,0.0,0.0,0.0,0.0,0.0,0.0,0.0,0.0,0.0,0.0,0.0,0.0,0.0,0.0,0.0,0.0,0.0,0.0,0.0,0.0,0.0,0.0,0.0,0.0,0.0,0.0,0.0,0.0,0.0,0.0,0.0,0.0,0.0,0.0,0.0,0.0,0.0,0.0,0.0,0.0,0.0,0.0,0.0,0.0,0.0,0.0,0.0,0.0,0.0,0.0,0.0,0.0,0.0,0.0,0.0,0.0,0.0,0.0,0.0,0.0,0.0,0.0,0.0,0.0,0.0,0.0,0.0,0.0,0.0,0.0,0.0,0.0,0.0,0.0,0.0,0.0,0.0,0.0,0.0,0.0,0.0,0.0,0.0,0.0,0.0,0.0,0.0,0.0,0.0,0.0,0.0,0.0,0.0,0.0,0.0,0.0,0.0,0.0,0.0,0.0,0.0,0.0,0.0,0.0,0.0,0.0,0.0,0.0,0.0,0.0,0.0,0.0,0.0,0.0,0.0,0.0,0.0,0.0,0.0,0.0,0.0,0.0,0.0,0.0,0.0,0.0,0.0,0.0,0.0,0.0,0.0,0.0,0.0,0.0,0.0,0.0,0.0,0.0,0.0,0.0,0.0,0.0,0.0,0.0,0.0,0.0,0.0,0.0,0.0,0.0,0.0,0.0,0.0,0.0,0.0,0.0,0.0,0.0,0.0,0.0,0.0,0.0,0.0,0.0,0.0,0.0,0.0,0.0,0.0,0.0,0.0,0.0,0.0,0.0,0.0,0.0,0.0,0.0,0.0,0.0,0.0,0.0,0.0,0.0,0.0,0.0,0.0,0.0,0.0,0.0,0.0,0.0,0.0,0.0,0.0,0.0,0.0,0.0,0.0,0.0,0.0,0.0,0.0,0.0,0.0,0.0,0.0,0.0,0.0,0.0,0.0,0.0,0.0,0.0,0.0,0.0,0.0,0.0,0.0,0.0,0.0,0.0,0.0,0.0,0.0,0.0,0.0,0.0,0.0,0.0,0.0,0.0,0.0,0.0,0.0,0.0,0.0,0.0,0.0,0.0,0.0,0.0,0.0,0.0,0.0,0.0,0.0,0.0,0.0,0.0,0.0,0.0,0.0,0.0,0.0,0.0,0.0,0.0,0.0,0.0,0.0,0.0,0.0,0.0,0.0,0.0,0.0,0.0,0.0,0.0,0.0,0.0,0.0,0.0,0.0,0.0,0.0,0.0,0.0,0.0,0.0,0.0,0.0,0.0,0.0,0.0,0.0,0.0,0.0,0.0,0.0,0.0,0.0,0.0,0.0,0.0,0.0,0.0,0.0,0.0,0.0,0.0,0.0,0.0,0.0,0.0,0.0,0.0,0.0,0.0,0.0,0.0,0.0,0.0,0.0,0.0,0.0,0.0,0.0,0.0,0.0,0.0,0.0,0.0,0.0,0.0,0.0,0.0,0.0,0.0,0.0,0.0,0.0,0.0,0.0,0.0,0.0,0.0,0.0,0.0,0.0,0.0,0.0,0.0,0.0,0.0,0.0,0.0,0.0,0.0,0.0,0.0,0.0,0.0,0.0,0.0,0.0,0.0,0.0,0.0,0.0,0.0,0.0,0.0,0.0,0.0,0.0,0.0,0.0,0.0,0.0,0.0,0.0,0.0,0.0,0.0,0.0,0.0,0.0,0.0,0.0,0.0,0.0,0.0,0.0,0.0,0.0,0.0,0.0,0.0,0.0,0.0,0.0,0.0,0.0,0.0,0.0,0.0,0.0,0.0,0.0,0.0,0.0,0.0,0.0,0.0,0.0,0.0,0.0,0.0,0.0,0.0,0.0,0.0,0.0,0.0,0.0,0.0,0.0,0.0,0.0,0.0,0.0,0.0,0.0,0.0,0.0,0.0,0.0,0.0,0.0,0.0,0.0,0.0,0.0,0.0,0.0,0.0,0.0,0.0,0.0,0.0,0.0,0.0,0.0,0.0,0.0,0.0,0.0,0.0,0.0,0.0,0.0,0.0,0.0,0.0,0.0,0.0,0.0,0.0,0.0,0.0,0.0,0.0,0.0,0.0,0.0,0.0,0.0,0.0,0.0,0.0,0.0,0.0,0.0,0.0,0.0,0.0,0.0,0.0,0.0,0.0,0.0,0.0,0.0,0.0,0.0,0.0,0.0,0.0,0.0,0.0,0.0,0.0,0.0,0.0,0.0,0.0,0.0,0.0,0.0,0.0,0.0,0.0,0.0,0.0,0.0,0.0,0.0,0.0,0.0,0.0,0.0,0.0,0.0,0.0,0.0,0.0,0.0,0.0,0.0,0.0,0.0,0.0,0.0,0.0,0.0,0.0,0.0,0.0,0.0,0.0,0.0,0.0,0.0,0.0,0.0,0.0,0.0,0.0,0.0,0.0,0.0,0.0,0.0,0.0,0.0,0.0,0.0,0.0,0.0,0.0,0.0,0.0,0.0,0.0,0.0,0.0,0.0,0.0,0.0,0.0,0.0,0.0,0.0,0.0,0.0,0.0,0.0,0.0,0.0,0.0,0.0,0.0,0.0,0.0,0.0,0.0,0.0,0.0,0.0,0.0,0.0,0.0,0.0,0.0,0.0,0.0,0.0,0.0,0.0,0.0,0.0,0.0,0.0,0.0,0.0,0.0,0.0,0.0,0.0,0.0,0.0,0.0,0.0,0.0,0.0,0.0,0.0,0.0,0.0,0.0,0.0,0.0,0.0,0.0,0.0,0.0,0.0,0.0,0.0,0.0,0.0,0.0,0.0,0.0,0.0,0.0,0.0,0.0,0.0,0.0,0.0,0.0,0.0,0.0,0.0,0.0,0.0,0.0,0.0,0.0,0.0,0.0,0.0,0.0,0.0,0.0,0.0,0.0,0.0,0.0,0.0,0.0,0.0,0.0,0.0,0.0,0.0,0.0,0.0,0.0,0.0,0.0,0.0,0.0,0.0,0.0,0.0,0.0,0.0,0.0,0.0,0.0,0.0,0.0,0.0,0.0,0.0,0.0,0.0,0.0,0.0,0.0,0.0,0.0,0.0,0.0,0.0,0.0,0.0,0.0,0.0,0.0,0.0,0.0,0.0,0.0,0.0,0.0,0.0,0.0,0.0,0.0,0.0,0.0,0.0,0.0,0.0,0.0,0.0,0.0,0.0,0.0,0.0,0.0,0.0,0.0,0.0,0.0,0.0,0.0,0.0,0.0,0.0,0.0,0.0,0.0,0.0,0.0,0.0,0.0,0.0,0.0,0.0,0.0,0.0,0.0,0.0,0.0,0.0,0.0,0.0,0.0,0.0,0.0,0.0,0.0,0.0,0.0,0.0,0.0,0.0,0.0,0.0,0.0,0.0,0.0,0.0,0.0,0.0,0.0,0.0,0.0,0.0,0.0,0.0,0.0,0.0,0.0,0.0,0.0,0.0,0.0,0.0,0.0,0.0,0.0,0.0,0.0,0.0,0.0,0.0,0.0,0.0,0.0,0.0,0.0,0.0,0.0,0.0,0.0,0.0,0.0,0.0,0.0,0.0,0.0,0.0,0.0,0.0,0.0,0.0,0.0,0.0,0.0,0.0,-2.9227,0.0,0.0,0.0,0.0,0.0,0.0,0.0,0.0,0.0,0.0,0.0,0.0,0.0,0.0,0.0,0.0,0.0,0.0,0.0,0.0,0.0,0.0,0.0,0.0,0.0,0.0,0.0,0.0,0.0,0.0,0.0,0.0,0.0,0.0,0.0,0.0,0.0,0.0,0.0,0.0,0.0,0.0,0.0,0.0,0.0,0.0,0.0,0.0,0.0,0.0,0.0,0.0,0.0,0.0,0.0,0.0,0.0,0.0,0.0,0.0,0.0,0.0,0.0,0.0,0.0,0.0,0.0,0.0,0.0,0.0,0.0,0.0,0.0,0.0,0.0,0.0,0.0,0.0,0.0,0.0,0.0,0.0,0.0,0.0,0.0,0.0,0.0,0.0,0.0,0.0,0.0,0.0,0.0,0.0,0.0,0.0,0.0,0.0,0.0,0.0,0.0,0.0,0.0,0.0,0.0,0.0,0.0,0.0,0.0,0.0,-2.7695,-2.9302,-2.7745,-2.7806,-2.9679,0.0,0.0,0.0,0.0,0.0,0.0,0.0,0.0,0.0,0.0,0.0,0.0,0.0,0.0,0.0,0.0,0.0,0.0,0.0,0.0,0.0,0.0,0.0,0.0,0.0,0.0,0.0,0.0,0.0,0.0,0.0,0.0,0.0,0.0,0.0,0.0,0.0,0.0,0.0,0.0,0.0,0.0,0.0,0.0,0.0,0.0,0.0,0.0,0.0,0.0,0.0,0.0,0.0,0.0,0.0,0.0,0.0,0.0,0.0,0.0,0.0,0.0,0.0,0.0,0.0,0.0,0.0,0.0,0.0,0.0,0.0,0.0,0.0,0.0,0.0,0.0,0.0,0.0,0.0,0.0,0.0,0.0,0.0,0.0,0.0,0.0,0.0,0.0,0.0,0.0,0.0,0.0,0.0,0.0,0.0,0.0,0.0,0.0,0.0,0.0,0.0,0.0,0.0,0.0,0.0,0.0,0.0,0.0,0.0,0.0,0.0,0.0,-2.7921,-2.7857,-2.9503,0.0,0.0,0.0,0.0,0.0,0.0,0.0,0.0,0.0,0.0,0.0,0.0,0.0,0.0,0.0,0.0,0.0,0.0,0.0,0.0,0.0,0.0,0.0,0.0,0.0,0.0,0.0,0.0,0.0,0.0,0.0,0.0,0.0,0.0,0.0,0.0,0.0,0.0,0.0,0.0,0.0,0.0,0.0,0.0,0.0,0.0,0.0,0.0,0.0,0.0,0.0,0.0,0.0,0.0,0.0,0.0,0.0,0.0,0.0,0.0,0.0,0.0,0.0,0.0,0.0,0.0,0.0,0.0,0.0,0.0,0.0,0.0,0.0,0.0,0.0,0.0,0.0,0.0,0.0,0.0,0.0,0.0,0.0,0.0,0.0,0.0,0.0,0.0,0.0,0.0,0.0,0.0,0.0,0.0,0.0,0.0,0.0,0.0,0.0,0.0,0.0,0.0,0.0,0.0,0.0,0.0,0.0,0.0,0.0,0.0,-2.9402,-2.8988,-2.8762,0.0,-2.8988,0.0,0.0,0.0,0.0,0.0,0.0,0.0,0.0,0.0,0.0,0.0,0.0,0.0,0.0,0.0,0.0,0.0,0.0,0.0,0.0,0.0,0.0,0.0,0.0,0.0,0.0,0.0,0.0,0.0,0.0,0.0,0.0,0.0,0.0,0.0,0.0,0.0,0.0,0.0,0.0,0.0,0.0,0.0,0.0,0.0,0.0,0.0,0.0,0.0,0.0,0.0,0.0,0.0,0.0,0.0,0.0,0.0,0.0,0.0,0.0,0.0,0.0,0.0,0.0,0.0,0.0,0.0,0.0,0.0,0.0,0.0,0.0,0.0,0.0,0.0,0.0,0.0,0.0,0.0,0.0,0.0,0.0,0.0,0.0,0.0,0.0,0.0,0.0,0.0,0.0,0.0,0.0,0.0,0.0,0.0,0.0,0.0,0.0,0.0,0.0,0.0,0.0,0.0,0.0,0.0,0.0,0.0,0.0,0.0,0.0,-2.9528,-2.8913,-2.8888,-2.9038,0.0,0.0,0.0,0.0,0.0,0.0,0.0,0.0,0.0,0.0,0.0,0.0,0.0,0.0,0.0,0.0,0.0,0.0,0.0,0.0,0.0,0.0,0.0,0.0,0.0,0.0,0.0,0.0,0.0,0.0,0.0,0.0,0.0,0.0,0.0,0.0,0.0,0.0,0.0,0.0,0.0,0.0,0.0,0.0,0.0,0.0,0.0,0.0,0.0,0.0,0.0,0.0,0.0,0.0,0.0,0.0,0.0,0.0,0.0,0.0,0.0,0.0,0.0,0.0,0.0,0.0,0.0,0.0,0.0,0.0,0.0,0.0,0.0,0.0,0.0,0.0,0.0,0.0,0.0,0.0,0.0,0.0,0.0,0.0,0.0,0.0,0.0,0.0,0.0,0.0,0.0,0.0,0.0,0.0,0.0,0.0,0.0,0.0,0.0,0.0,0.0,0.0,0.0,0.0,0.0,0.0,0.0,0.0,0.0,0.0,-2.9138,-2.8975,-2.8449,-2.8888,-2.9302,-2.9553,0.0,0.0,0.0,0.0,0.0,0.0,0.0,0.0,0.0,0.0,0.0,0.0,0.0,0.0,0.0,0.0,0.0,0.0,0.0,0.0,0.0,0.0,0.0,0.0,0.0,0.0,0.0,0.0,0.0,0.0,0.0,0.0,0.0,0.0,0.0,0.0,0.0,0.0,0.0,0.0,0.0,0.0,0.0,0.0,0.0,0.0,0.0,0.0,0.0,0.0,0.0,0.0,0.0,0.0,0.0,0.0,0.0,0.0,0.0,0.0,0.0,0.0,0.0,0.0,0.0,0.0,0.0,0.0,0.0,0.0,0.0,0.0,0.0,0.0,0.0,0.0,0.0,0.0,0.0,0.0,0.0,0.0,0.0,0.0,0.0,0.0,0.0,0.0,0.0,0.0,0.0,0.0,0.0,0.0,0.0,0.0,0.0,0.0,0.0,0.0,0.0,0.0,0.0,0.0,0.0,0.0,0.0,0.0,-2.6651,-2.7508,-2.7728,-2.7204,-2.8825,-2.9503,0.0,0.0,0.0,0.0,0.0,0.0,0.0,0.0,0.0,0.0,0.0,0.0,0.0,0.0,0.0,0.0,0.0,0.0,0.0,0.0,0.0,0.0,0.0,0.0,0.0,0.0,0.0,0.0,0.0,0.0,0.0,0.0,0.0,0.0,0.0,0.0,0.0,0.0,0.0,0.0,0.0,0.0,0.0,0.0,0.0,0.0,0.0,0.0,0.0,0.0,0.0,0.0,0.0,0.0,0.0,0.0,0.0,0.0,0.0,0.0,0.0,0.0,0.0,0.0,0.0,0.0,0.0,0.0,0.0,0.0,0.0,0.0,0.0,0.0,0.0,0.0,0.0,0.0,0.0,0.0,0.0,0.0,0.0,0.0,0.0,0.0,0.0,0.0,0.0,0.0,0.0,0.0,0.0,0.0,0.0,0.0,0.0,0.0,0.0,0.0,0.0,0.0,0.0,0.0,0.0,0.0,0.0,0.0,0.0,-2.8523,-2.8537,-2.8262,-2.7762,-2.8712,-2.8976,0.0,0.0,0.0,0.0,0.0,0.0,0.0,0.0,0.0,0.0,0.0,0.0,0.0,0.0,0.0,0.0,0.0,0.0,0.0,0.0,0.0,0.0,0.0,0.0,0.0,0.0,0.0,0.0,0.0,0.0,0.0,0.0,0.0,0.0,0.0,0.0,0.0,0.0,0.0,0.0,0.0,0.0,0.0,0.0,0.0,0.0,0.0,0.0,0.0,0.0,0.0,0.0,0.0,0.0,0.0,0.0,0.0,0.0,0.0,0.0,0.0,0.0,0.0,0.0,0.0,0.0,0.0,0.0,0.0,0.0,0.0,0.0,0.0,0.0,0.0,0.0,0.0,0.0,0.0,0.0,0.0,0.0,0.0,0.0,0.0,0.0,0.0,0.0,0.0,0.0,0.0,0.0,0.0,0.0,0.0,0.0,0.0,0.0,0.0,0.0,0.0,0.0,0.0,0.0,0.0,0.0,0.0,0.0,0.0,-2.7998,0.0,-2.7318,-2.7451,-2.8374,-2.8888,0.0,0.0,0.0,0.0,0.0,0.0,0.0,0.0,0.0,0.0,0.0,0.0,0.0,0.0,0.0,0.0,0.0,0.0,0.0,0.0,0.0,0.0,0.0,0.0,0.0,0.0,0.0,0.0,0.0,0.0,0.0,0.0,0.0,0.0,0.0,0.0,0.0,0.0,0.0,0.0,0.0,0.0,0.0,0.0,0.0,0.0,0.0,0.0,0.0,0.0,0.0,0.0,0.0,0.0,0.0,0.0,0.0,0.0,0.0,0.0,0.0,0.0,0.0,0.0,0.0,0.0,0.0,0.0,0.0,0.0,0.0,0.0,0.0,0.0,0.0,0.0,0.0,0.0,0.0,0.0,0.0,0.0,0.0,0.0,0.0,0.0,0.0,0.0,0.0,0.0,0.0,0.0,0.0,0.0,0.0,0.0,0.0,0.0,0.0,0.0,0.0,0.0,0.0,0.0,0.0,0.0,0.0,0.0,-2.582,-2.4474,-2.4113,-2.4706,-2.6039,-2.7914,-2.9389,0.0,0.0,0.0,0.0,0.0,0.0,0.0,0.0,0.0,0.0,0.0,0.0,0.0,0.0,0.0,0.0,0.0,0.0,0.0,0.0,0.0,0.0,0.0,0.0,0.0,0.0,0.0,0.0,0.0,0.0,0.0,0.0,0.0,0.0,0.0,0.0,0.0,0.0,0.0,0.0,0.0,0.0,0.0,0.0,0.0,0.0,0.0,0.0,0.0,0.0,0.0,0.0,0.0,0.0,0.0,0.0,0.0,0.0,0.0,0.0,0.0,0.0,0.0,0.0,0.0,0.0,0.0,0.0,0.0,0.0,0.0,0.0,0.0,0.0,0.0,0.0,0.0,0.0,0.0,0.0,0.0,0.0,0.0,0.0,0.0,0.0,0.0,0.0,0.0,0.0,0.0,0.0,0.0,0.0,0.0,0.0,0.0,0.0,0.0,0.0,0.0,0.0,0.0,0.0,0.0,0.0,0.0,0.0,0.0,-2.7158,-2.5146,-2.5142,-2.7484,-2.8002,-2.8512,0.0,0.0,0.0,0.0,0.0,0.0,0.0,0.0,0.0,0.0,0.0,0.0,0.0,0.0,0.0,0.0,0.0,0.0,0.0,0.0,0.0,0.0,0.0,0.0,0.0,0.0,0.0,0.0,0.0,0.0,0.0,0.0,0.0,0.0,0.0,0.0,0.0,0.0,0.0,0.0,0.0,0.0,0.0,0.0,0.0,0.0,0.0,0.0,0.0,0.0,0.0,0.0,0.0,0.0,0.0,0.0,0.0,0.0,0.0,0.0,0.0,0.0,0.0,0.0,0.0,0.0,0.0,0.0,0.0,0.0,0.0,0.0,0.0,0.0,0.0,0.0,0.0,0.0,0.0,0.0,0.0,0.0,0.0,0.0,0.0,0.0,0.0,0.0,0.0,0.0,0.0,0.0,0.0,0.0,0.0,0.0,0.0,0.0,0.0,0.0,0.0,0.0,0.0,0.0,0.0,0.0,0.0,0.0,0.0,-2.6441,-2.4266,-2.4023,-2.6202,-2.7115,-2.7927,-2.8705,0.0,0.0,0.0,0.0,0.0,0.0,0.0,0.0,0.0,0.0,0.0,0.0,0.0,0.0,0.0,0.0,0.0,0.0,0.0,0.0,0.0,0.0,0.0,0.0,0.0,0.0,0.0,0.0,0.0,0.0,0.0,0.0,0.0,0.0,0.0,0.0,0.0,0.0,0.0,0.0,0.0,0.0,0.0,0.0,0.0,0.0,0.0,0.0,0.0,0.0,0.0,0.0,0.0,0.0,0.0,0.0,0.0,0.0,0.0,0.0,0.0,0.0,0.0,0.0,0.0,0.0,0.0,0.0,0.0,0.0,0.0,0.0,0.0,0.0,0.0,0.0,0.0,0.0,0.0,0.0,0.0,0.0,0.0,0.0,0.0,0.0,0.0,0.0,0.0,0.0,0.0,0.0,0.0,0.0,0.0,0.0,0.0,0.0,0.0,0.0,0.0,0.0,0.0,0.0,0.0,0.0,0.0,0.0,-2.3241,-2.1778,-2.1668,-2.2982,-2.5527,-2.7521,0.0,0.0,0.0,0.0,0.0,0.0,0.0,0.0,0.0,0.0,0.0,0.0,0.0,0.0,0.0,0.0,0.0,0.0,0.0,0.0,0.0,0.0,0.0,0.0,0.0,0.0,0.0,0.0,0.0,0.0,0.0,0.0,0.0,0.0,0.0,0.0,0.0,0.0,0.0,0.0,0.0,0.0,0.0,0.0,0.0,0.0,0.0,0.0,0.0,0.0,0.0,0.0,0.0,0.0,0.0,0.0,0.0,0.0,0.0,0.0,0.0,0.0,0.0,0.0,0.0,0.0,0.0,0.0,0.0,0.0,0.0,0.0,0.0,0.0,0.0,0.0,0.0,0.0,0.0,0.0,0.0,0.0,0.0,0.0,0.0,0.0,0.0,0.0,0.0,0.0,0.0,0.0,0.0,0.0,0.0,0.0,0.0,0.0,0.0,0.0,0.0,0.0,0.0,0.0,0.0,0.0,0.0,0.0,0.0,-2.1331,-2.0565,-2.1417,-2.4122,-2.5356,-2.6636,0.0,0.0,0.0,0.0,0.0,0.0,0.0,0.0,0.0,0.0,0.0,0.0,0.0,0.0,0.0,0.0,0.0,0.0,0.0,0.0,0.0,0.0,0.0,0.0,0.0,0.0,0.0,0.0,0.0,0.0,0.0,0.0,0.0,0.0,0.0,0.0,0.0,0.0,0.0,0.0,0.0,0.0,0.0,0.0,0.0,0.0,0.0,0.0,0.0,0.0,0.0,0.0,0.0,0.0,0.0,0.0,0.0,0.0,0.0,0.0,0.0,0.0,0.0,0.0,0.0,0.0,0.0,0.0,0.0,0.0,0.0,0.0,0.0,0.0,0.0,0.0,0.0,0.0,0.0,0.0,0.0,0.0,0.0,0.0,0.0,0.0,0.0,0.0,0.0,0.0,0.0,0.0,0.0,0.0,0.0,0.0,0.0,0.0,0.0,0.0,0.0,0.0,0.0,0.0,0.0,0.0,0.0,0.0,-2.1797,-2.0332,-2.0178,-2.09,-2.264,-2.4268,-2.5769,0.0,0.0,0.0,0.0,0.0,0.0,0.0,0.0,0.0,0.0,0.0,0.0,0.0,0.0,0.0,0.0,0.0,0.0,0.0,0.0,0.0,0.0,0.0,0.0,0.0,0.0,0.0,0.0,0.0,0.0,0.0,0.0,0.0,0.0,0.0,0.0,0.0,0.0,0.0,0.0,0.0,0.0,0.0,0.0,0.0,0.0,0.0,0.0,0.0,0.0,0.0,0.0,0.0,0.0,0.0,0.0,0.0,0.0,0.0,0.0,0.0,0.0,0.0,0.0,0.0,0.0,0.0,0.0,0.0,0.0,0.0,0.0,0.0,0.0,0.0,0.0,0.0,0.0,0.0,0.0,0.0,0.0,0.0,0.0,0.0,0.0,0.0,0.0,0.0,0.0,0.0,0.0,0.0,0.0,0.0,0.0,0.0,0.0,0.0,0.0,0.0,0.0,0.0,0.0,0.0,0.0,0.0,0.0,-2.1621,-1.9961,-2.0279,-2.0337,-2.0057,-2.2833,-2.4916,0.0,0.0,0.0,0.0,0.0,0.0,0.0,0.0,0.0,0.0,0.0,0.0,0.0,0.0,0.0,0.0,0.0,0.0,0.0,0.0,0.0,0.0,0.0,0.0,0.0,0.0,0.0,0.0,0.0,0.0,0.0,0.0,0.0,0.0,0.0,0.0,0.0,0.0,0.0,0.0,0.0,0.0,0.0,0.0,0.0,0.0,0.0,0.0,0.0,0.0,0.0,0.0,0.0,0.0,0.0,0.0,0.0,0.0,0.0,0.0,0.0,0.0,0.0,0.0,0.0,0.0,0.0,0.0,0.0,0.0,0.0,0.0,0.0,0.0,0.0,0.0,0.0,0.0,0.0,0.0,0.0,0.0,0.0,0.0,0.0,0.0,0.0,0.0,0.0,0.0,0.0,0.0,0.0,0.0,0.0,0.0,0.0,0.0,0.0,0.0,0.0,0.0,0.0,0.0,0.0,0.0,0.0,0.0,-2.1328,-1.9923,-2.0369,-2.0545,-2.0468,-2.2575,-2.395,0.0,0.0,0.0,0.0,0.0,0.0,0.0,0.0,0.0,0.0,0.0,0.0,0.0,0.0,0.0,0.0,0.0,0.0,0.0,0.0,0.0,0.0,0.0,0.0,0.0,0.0,0.0,0.0,0.0,0.0,0.0,0.0,0.0,0.0,0.0,0.0,0.0,0.0,0.0,0.0,0.0,0.0,0.0,0.0,0.0,0.0,0.0,0.0,-1.9208,0.0,0.0,0.0,0.0,0.0,0.0,0.0,0.0,0.0,0.0,0.0,0.0,0.0,0.0,0.0,0.0,0.0,0.0,0.0,0.0,0.0,0.0,0.0,0.0,0.0,0.0,0.0,0.0,0.0,0.0,0.0,0.0,0.0,0.0,0.0,0.0,0.0,0.0,0.0,0.0,0.0,0.0,0.0,0.0,0.0,0.0,0.0,0.0,0.0,0.0,0.0,0.0,0.0,0.0,0.0,0.0,0.0,0.0,0.0,-2.1267,-1.9966,-2.0372,-2.0605,-2.0644,-2.1809,-2.3021,0.0,0.0,0.0,0.0,0.0,0.0,0.0,0.0,0.0,0.0,0.0,0.0,0.0,0.0,0.0,0.0,0.0,0.0,0.0,0.0,0.0,0.0,0.0,0.0,0.0,0.0,0.0,0.0,0.0,0.0,0.0,0.0,0.0,0.0,0.0,0.0,0.0,0.0,0.0,0.0,0.0,0.0,0.0,0.0,0.0,0.0,0.0,0.0,0.0,0.0,0.0,0.0,0.0,0.0,0.0,0.0,0.0,0.0,0.0,0.0,0.0,0.0,0.0,0.0,0.0,0.0,0.0,0.0,0.0,0.0,0.0,0.0,0.0,0.0,0.0,0.0,0.0,0.0,0.0,0.0,0.0,0.0,0.0,0.0,0.0,0.0,0.0,0.0,0.0,0.0,0.0,0.0,0.0,0.0,0.0,0.0,0.0,0.0,0.0,0.0,0.0,0.0,0.0,0.0,0.0,0.0,0.0,-2.2036,-2.1281,-2.0114,-2.0429,-2.0703,-2.082,-2.1093,-2.2284,-2.4461,0.0,0.0,0.0,0.0,0.0,0.0,0.0,0.0,0.0,0.0,0.0,0.0,0.0,0.0,0.0,0.0,0.0,0.0,0.0,0.0,0.0,0.0,0.0,0.0,0.0,0.0,0.0,0.0,0.0,0.0,0.0,0.0,0.0,0.0,0.0,0.0,0.0,0.0,-1.837,-1.8464,0.0,0.0,0.0,0.0,0.0,0.0,0.0,0.0,-1.8736,0.0,0.0,0.0,0.0,0.0,0.0,0.0,0.0,0.0,0.0,0.0,0.0,0.0,0.0,0.0,0.0,0.0,0.0,0.0,0.0,0.0,0.0,0.0,0.0,0.0,0.0,0.0,0.0,0.0,0.0,0.0,0.0,0.0,0.0,0.0,0.0,0.0,0.0,0.0,0.0,0.0,0.0,0.0,0.0,0.0,0.0,0.0,0.0,0.0,0.0,0.0,0.0,0.0,0.0,0.0,0.0,-2.1675,-2.1665,-2.1356,-2.0753,-2.0814,-2.1128,-2.1641,-2.1533,-2.2411,-2.4264,0.0,0.0,0.0,0.0,0.0,0.0,0.0,0.0,0.0,0.0,0.0,0.0,0.0,0.0,0.0,0.0,0.0,0.0,0.0,0.0,0.0,0.0,0.0,0.0,0.0,0.0,0.0,0.0,0.0,0.0,0.0,0.0,0.0,0.0,0.0,0.0,0.0,0.0,0.0,-1.8384,-1.8557,0.0,0.0,0.0,0.0,0.0,0.0,0.0,0.0,-1.8754,0.0,0.0,0.0,0.0,0.0,0.0,0.0,0.0,0.0,0.0,0.0,0.0,0.0,0.0,0.0,0.0,0.0,0.0,0.0,0.0,0.0,0.0,0.0,0.0,0.0,0.0,0.0,0.0,0.0,0.0,0.0,0.0,0.0,0.0,0.0,0.0,0.0,0.0,0.0,0.0,0.0,0.0,0.0,0.0,0.0,0.0,0.0,0.0,0.0,0.0,0.0,0.0,0.0,0.0,0.0,-2.1878,-2.1024,-2.0548,-2.0607,-2.0688,-2.106,-2.1649,-2.146,-2.2246,0.0,0.0,0.0,0.0,0.0,0.0,0.0,0.0,0.0,0.0,0.0,0.0,0.0,0.0,0.0,0.0,0.0,0.0,0.0,0.0,0.0,0.0,0.0,0.0,0.0,0.0,0.0,0.0,0.0,0.0,0.0,0.0,0.0,0.0,0.0,0.0,0.0,0.0,0.0,0.0,-1.833,-1.837,-1.7541,0.0,0.0,0.0,0.0,0.0,0.0,-1.9866,-1.9974,0.0,0.0,0.0,0.0,0.0,0.0,0.0,0.0,0.0,0.0,0.0,0.0,0.0,0.0,0.0,0.0,0.0,0.0,0.0,0.0,0.0,0.0,0.0,0.0,0.0,0.0,0.0,0.0,0.0,0.0,0.0,0.0,0.0,0.0,0.0,0.0,0.0,0.0,0.0,0.0,0.0,0.0,0.0,0.0,0.0,0.0,0.0,0.0,0.0,0.0,0.0,0.0,0.0,0.0,0.0,-2.2208,-2.0708,-2.009,-2.0413,-2.0671,-2.1062,-2.1648,-2.1551,-2.2372,0.0,0.0,0.0,0.0,0.0,0.0,0.0,0.0,0.0,0.0,0.0,0.0,0.0,0.0,0.0,0.0,0.0,0.0,0.0,0.0,0.0,0.0,0.0,0.0,0.0,0.0,0.0,0.0,0.0,0.0,0.0,0.0,0.0,0.0,0.0,0.0,0.0,0.0,0.0,0.0,0.0,-1.8116,-1.7407,-1.801,0.0,0.0,0.0,0.0,-1.9856,-2.0665,0.0,0.0,0.0,0.0,0.0,0.0,0.0,0.0,0.0,0.0,0.0,0.0,0.0,0.0,0.0,0.0,0.0,0.0,0.0,0.0,0.0,0.0,0.0,0.0,0.0,0.0,0.0,0.0,0.0,0.0,0.0,0.0,0.0,0.0,0.0,0.0,0.0,0.0,0.0,0.0,0.0,0.0,0.0,0.0,0.0,0.0,0.0,0.0,0.0,0.0,0.0,0.0,0.0,0.0,0.0,0.0,-2.2485,-2.1503,-2.0948,-2.088,-2.1179,-2.1682,-2.229,-2.2426,-2.3279,0.0,0.0,0.0,0.0,0.0,0.0,0.0,0.0,0.0,0.0,0.0,0.0,0.0,0.0,0.0,0.0,0.0,0.0,0.0,0.0,0.0,0.0,0.0,0.0,0.0,0.0,0.0,0.0,0.0,0.0,0.0,0.0,0.0,0.0,0.0,0.0,0.0,0.0,0.0,0.0,0.0,-1.7969,-1.7582,-1.8076,-1.8397,0.0,0.0,-1.8993,-1.8626,-1.9688,0.0,0.0,0.0,0.0,0.0,0.0,0.0,0.0,0.0,0.0,0.0,0.0,0.0,0.0,0.0,0.0,0.0,0.0,0.0,0.0,0.0,0.0,0.0,0.0,0.0,0.0,0.0,0.0,0.0,0.0,0.0,0.0,0.0,0.0,0.0,0.0,0.0,0.0,0.0,0.0,0.0,0.0,0.0,0.0,0.0,0.0,0.0,0.0,0.0,0.0,0.0,0.0,0.0,0.0,0.0,-2.2711,-2.315,-2.1151,-2.0492,-2.1193,-2.1274,-2.1571,-2.222,-2.2388,-2.3186,0.0,0.0,0.0,0.0,0.0,0.0,0.0,0.0,0.0,0.0,0.0,0.0,0.0,0.0,0.0,0.0,0.0,0.0,0.0,0.0,0.0,0.0,0.0,0.0,0.0,0.0,0.0,0.0,0.0,0.0,0.0,0.0,0.0,0.0,0.0,0.0,0.0,0.0,0.0,0.0,0.0,0.0,-1.7395,-1.7849,0.0,0.0,0.0,-2.0018,-2.0342,0.0,0.0,0.0,0.0,0.0,0.0,0.0,0.0,0.0,0.0,0.0,0.0,0.0,0.0,0.0,0.0,0.0,0.0,0.0,0.0,0.0,0.0,0.0,0.0,0.0,0.0,0.0,0.0,0.0,0.0,0.0,0.0,0.0,0.0,0.0,0.0,0.0,0.0,0.0,0.0,0.0,0.0,0.0,0.0,0.0,0.0,0.0,0.0,0.0,0.0,0.0,0.0,0.0,0.0,0.0,0.0,0.0,-2.342,-2.0945,-2.0141,-2.1176,-2.1222,-2.1478,-2.2102,-2.2235,0.0,0.0,0.0,0.0,0.0,0.0,0.0,0.0,0.0,0.0,0.0,0.0,0.0,0.0,0.0,0.0,0.0,0.0,0.0,0.0,0.0,0.0,0.0,0.0,0.0,0.0,0.0,-1.9206,0.0,0.0,0.0,0.0,0.0,0.0,0.0,0.0,0.0,0.0,0.0,0.0,0.0,0.0,-1.7836,-1.7435,-1.7809,-1.8063,0.0,0.0,-2.0873,-2.1511,-2.2396,-2.2805,0.0,0.0,0.0,0.0,0.0,0.0,0.0,0.0,0.0,0.0,0.0,0.0,0.0,0.0,0.0,0.0,0.0,0.0,0.0,0.0,0.0,0.0,0.0,0.0,0.0,0.0,0.0,0.0,0.0,0.0,0.0,0.0,0.0,0.0,0.0,0.0,0.0,0.0,0.0,0.0,0.0,0.0,0.0,0.0,0.0,0.0,0.0,0.0,0.0,0.0,0.0,0.0,0.0,0.0,0.0,-2.2652,-2.1204,-2.042,-2.0491,-2.1139,-2.1695,-2.2254,-2.2274,-2.2815,0.0,0.0,0.0,0.0,0.0,0.0,0.0,0.0,0.0,0.0,0.0,0.0,0.0,0.0,0.0,0.0,0.0,0.0,0.0,0.0,0.0,0.0,0.0,0.0,0.0,0.0,0.0,0.0,0.0,0.0,0.0,0.0,0.0,0.0,0.0,0.0,0.0,0.0,0.0,0.0,0.0,-1.7982,-1.7942,-1.825,-1.8469,0.0,0.0,-2.0973,-2.0643,-2.1707,-2.2487,-2.2344,0.0,0.0,0.0,0.0,0.0,0.0,0.0,0.0,0.0,0.0,0.0,0.0,0.0,0.0,0.0,0.0,0.0,0.0,0.0,0.0,0.0,0.0,0.0,0.0,0.0,0.0,0.0,0.0,0.0,0.0,0.0,0.0,0.0,0.0,0.0,0.0,0.0,0.0,0.0,0.0,0.0,0.0,0.0,0.0,0.0,0.0,0.0,0.0,0.0,0.0,0.0,0.0,0.0,-2.2542,-2.3347,-2.1078,-2.0127,-2.0657,-2.1112,-2.1466,-2.1702,-2.2083,-2.2548,0.0,0.0,0.0,0.0,0.0,0.0,0.0,0.0,0.0,0.0,0.0,0.0,0.0,0.0,0.0,0.0,0.0,0.0,0.0,0.0,0.0,0.0,0.0,0.0,0.0,0.0,0.0,0.0,-1.8673,-1.8947,-1.9431,0.0,0.0,0.0,0.0,0.0,0.0,0.0,0.0,0.0,0.0,-1.8836,-1.878,-1.893,0.0,0.0,-1.9832,-2.0599,-2.0556,-2.1309,-2.1876,-2.1824,-2.1435,0.0,0.0,0.0,0.0,0.0,0.0,0.0,0.0,0.0,0.0,0.0,0.0,0.0,0.0,0.0,0.0,0.0,0.0,0.0,0.0,0.0,0.0,0.0,0.0,0.0,0.0,0.0,0.0,0.0,0.0,0.0,0.0,0.0,0.0,0.0,0.0,0.0,0.0,0.0,0.0,0.0,0.0,0.0,0.0,0.0,0.0,0.0,0.0,0.0,0.0,0.0,0.0,-2.2652,-2.3799,-2.1271,-2.0225,-2.0823,-2.1196,-2.1414,-2.1479,-2.1739,-2.2047,0.0,0.0,0.0,0.0,0.0,0.0,0.0,0.0,0.0,0.0,0.0,0.0,0.0,0.0,0.0,0.0,0.0,0.0,0.0,0.0,0.0,0.0,0.0,0.0,0.0,0.0,0.0,0.0,-1.8878,-1.9249,-1.9696,0.0,0.0,0.0,0.0,0.0,0.0,0.0,0.0,0.0,0.0,-1.9339,-1.9527,-1.9588,-1.9666,-1.9848,-2.0601,-2.1204,-2.1394,-2.1686,-2.1715,-2.1553,0.0,0.0,0.0,0.0,0.0,0.0,0.0,0.0,0.0,0.0,0.0,0.0,0.0,0.0,0.0,0.0,0.0,0.0,0.0,0.0,0.0,0.0,0.0,0.0,0.0,0.0,0.0,0.0,0.0,0.0,0.0,0.0,0.0,0.0,0.0,0.0,0.0,0.0,0.0,0.0,0.0,0.0,0.0,0.0,0.0,0.0,0.0,0.0,0.0,0.0,0.0,0.0,0.0,-2.3563,-2.358,-2.1855,-2.0956,-2.0973,-2.1342,-2.1576,-2.1839,-2.1291,-2.1242,-2.1872,0.0,0.0,0.0,0.0,0.0,0.0,0.0,0.0,0.0,0.0,0.0,0.0,0.0,0.0,0.0,0.0,0.0,0.0,0.0,0.0,0.0,0.0,0.0,0.0,0.0,0.0,-2.004,-1.9689,-1.9402,0.0,0.0,0.0,0.0,0.0,0.0,0.0,0.0,0.0,0.0,-1.9221,-1.9231,-2.0073,-2.0173,-2.063,-2.1846,-2.2571,-2.3066,-2.3157,-2.2822,-2.2309,0.0,0.0,0.0,0.0,0.0,0.0,0.0,0.0,0.0,0.0,0.0,0.0,0.0,0.0,0.0,0.0,0.0,0.0,0.0,0.0,0.0,0.0,0.0,0.0,0.0,0.0,0.0,0.0,-2.5855,0.0,0.0,0.0,0.0,0.0,0.0,0.0,0.0,0.0,0.0,0.0,-2.2009,-2.2322,0.0,0.0,0.0,0.0,0.0,0.0,0.0,0.0,0.0,0.0,0.0,0.0,-2.3358,-2.3255,-2.1528,-2.0605,-2.0621,-2.0911,-2.1167,-2.1306,-2.1263,-2.1384,-2.1679,0.0,0.0,0.0,0.0,0.0,0.0,0.0,0.0,0.0,0.0,0.0,0.0,0.0,0.0,0.0,0.0,0.0,0.0,0.0,0.0,0.0,0.0,0.0,0.0,0.0,-2.011,0.0,0.0,0.0,0.0,0.0,0.0,0.0,0.0,0.0,0.0,0.0,-1.9658,-1.9988,-2.0226,-2.0456,-2.0701,-2.0989,-2.1101,0.0,0.0,0.0,0.0,0.0,0.0,0.0,0.0,0.0,0.0,0.0,0.0,0.0,0.0,-2.1042,-2.0855,-2.0655,-2.0615,-2.0985,0.0,0.0,0.0,0.0,0.0,0.0,0.0,0.0,0.0,0.0,0.0,0.0,0.0,0.0,0.0,0.0,-2.4337,0.0,0.0,0.0,0.0,0.0,0.0,0.0,0.0,-2.2751,-2.1908,-2.1032,-2.1325,-2.2051,0.0,-2.3157,-2.4471,0.0,0.0,0.0,0.0,0.0,0.0,0.0,0.0,-2.3358,-2.3479,-2.172,-2.0817,-2.0934,-2.1167,-2.1244,-2.1199,-2.127,-2.1215,-2.0965,-2.073,-2.0538,0.0,0.0,0.0,0.0,0.0,0.0,0.0,0.0,0.0,0.0,0.0,0.0,0.0,0.0,0.0,0.0,0.0,0.0,0.0,0.0,0.0,0.0,0.0,-2.0396,0.0,0.0,0.0,0.0,0.0,0.0,0.0,0.0,0.0,-1.9914,-1.9819,-1.9996,-2.05,-2.0697,-2.0911,-2.1307,0.0,0.0,0.0,0.0,0.0,0.0,0.0,-2.1356,-2.1122,-2.1336,-2.143,-2.1149,-2.1109,-2.1136,-2.1243,0.0,0.0,-2.0842,-2.0668,-2.0628,-2.0922,-2.0748,-2.0748,-2.148,-2.1309,-2.1162,0.0,0.0,0.0,0.0,0.0,0.0,0.0,0.0,-2.3597,-2.467,0.0,-2.4549,0.0,0.0,0.0,0.0,0.0,0.0,0.0,0.0,-2.1213,-2.0671,-2.0566,-2.128,-2.2047,-2.279,-2.3109,-2.4078,-2.5518,-2.4898,0.0,0.0,0.0,0.0,0.0,0.0,-2.3629,-2.4052,-2.2379,-2.157,-2.1849,-2.1852,-2.1758,-2.1488,-2.1209,-2.07,-1.99,-2.0644,-2.0695,-1.9863,-2.0869,0.0,0.0,0.0,0.0,0.0,0.0,0.0,0.0,0.0,0.0,0.0,0.0,0.0,0.0,0.0,0.0,0.0,0.0,0.0,0.0,-2.0354,0.0,0.0,0.0,0.0,0.0,0.0,0.0,0.0,0.0,0.0,-2.0743,-2.023,-2.0139,-2.1075,0.0,0.0,0.0,0.0,-2.2169,-2.2469,-2.2794,-2.2893,-2.2446,-2.2216,-2.1828,-2.1226,0.0,0.0,-2.1082,-2.1122,-2.1203,-2.1534,-2.1132,-2.0775,-2.1056,-2.1056,-2.1122,-2.148,-2.1243,-2.1216,-2.1507,-2.1349,-2.1176,-2.3159,0.0,0.0,0.0,0.0,-2.4737,-2.4545,-2.39,-2.4218,-2.4377,-2.4268,-2.3309,0.0,0.0,0.0,0.0,0.0,0.0,-2.3826,-2.2922,-2.2416,-2.2076,-2.198,-2.2452,-2.2928,-2.3458,-2.3508,-2.3785,-2.4205,-2.3802,-2.4574,-2.6514,0.0,0.0,0.0,0.0,-2.4076,-2.3574,-2.265,-2.2044,-2.1975,-2.1749,-2.1488,-2.1224,-2.0994,-2.0601,-2.0189,-2.0213,-2.0072,-1.9843,-2.0308,0.0,0.0,0.0,0.0,0.0,0.0,0.0,0.0,0.0,0.0,0.0,0.0,0.0,0.0,0.0,0.0,0.0,0.0,0.0,-2.0781,-2.0351,-2.041,0.0,0.0,0.0,0.0,0.0,0.0,0.0,0.0,0.0,-2.1314,-2.1008,-2.0999,0.0,0.0,-2.1156,-2.1902,-2.1874,-2.1644,-2.1284,0.0,0.0,0.0,-2.1528,-2.1585,-2.1162,-2.1042,-2.1082,-2.1376,-2.1256,-2.1136,-2.1229,-2.1096,-2.1015,-2.1056,-2.0762,-2.0615,-2.0855,-2.1015,-2.1122,-2.1229,-2.147,-2.1537,-2.2859,-2.2871,-2.3621,-2.4033,-2.4195,-2.4507,-2.4203,-2.3457,-2.3561,-2.3643,-2.3703,-2.2585,-2.3214,-2.5047,-2.4541,0.0,0.0,0.0,-2.3583,-2.2771,-2.2805,-2.2923,-2.3032,-2.3237,-2.3528,-2.3871,-2.3888,-2.392,-2.3982,-2.3857,-2.4593,-2.593,0.0,0.0,-2.5848,-2.4867,-2.3959,-2.3179,-2.2548,-2.2125,-2.1838,-2.1649,-2.1375,-2.0952,-2.0917,-2.0614,-2.0111,-2.0048,-1.9911,-1.9698,-2.0134,-2.0441,0.0,0.0,0.0,0.0,0.0,0.0,0.0,0.0,0.0,0.0,0.0,-2.0561,-2.0909,0.0,0.0,0.0,-2.0401,-2.0503,-2.0807,-2.0534,0.0,0.0,0.0,0.0,0.0,0.0,0.0,-2.1573,-2.1513,-2.152,-2.1587,-2.1486,-2.1417,-2.1592,-2.1294,-2.1285,-2.177,0.0,-2.1409,-2.0918,-2.1303,-2.142,-2.0944,-2.1149,-2.1309,-2.1136,-2.1109,-2.1162,-2.1323,-2.1229,-2.1109,-2.1109,-2.1109,-2.1109,-2.1109,-2.0815,-2.0628,-2.0815,-2.0989,-2.1096,-2.1109,-2.1483,-2.1681,-2.314,-2.3088,-2.4477,-2.4617,-2.3839,-2.3998,-2.3458,-2.2415,-2.2337,-2.2889,-2.3791,-2.2373,-2.3026,-2.5164,-2.5219,0.0,0.0,-2.3134,-2.3271,-2.1994,-2.2791,-2.3374,-2.3734,-2.377,-2.3905,-2.4282,-2.4227,-2.4251,-2.4406,-2.4573,-2.4799,-2.4952,-2.4493,-2.4559,-2.518,-2.4285,-2.3497,-2.2892,-2.2356,-2.1896,-2.1658,-2.1624,-2.1303,-2.0716,-2.0973,-2.0709,-1.9877,-2.0151,-2.0001,-1.9537,-2.0261,-2.0521,-2.0307,0.0,0.0,0.0,0.0,0.0,0.0,0.0,0.0,0.0,0.0,0.0,0.0,0.0,0.0,0.0,-2.0,0.0,-2.0342,-2.0862,0.0,0.0,0.0,-2.1769,-2.1197,-2.1374,-2.1551,-2.1579,0.0,0.0,0.0,0.0,-2.1595,-2.1541,-2.1314,-2.1238,-2.1579,-2.1624,-2.1472,-2.1119,-2.1362,-2.1425,-2.1145,-2.1122,-2.1122,-2.1109,-2.1109,-2.1109,-2.1122,-2.1122,-2.1109,-2.1109,-2.1109,-2.1109,-2.1109,-2.1082,-2.1109,-2.1082,-2.1136,-2.1149,-2.1176,-2.1416,-2.1523,-2.4275,-2.4582,-2.4941,-2.4582,-2.3803,-2.3771,-2.3888,-2.4041,-2.3773,-2.3565,-2.3353,-2.2877,-2.2898,-2.3284,-2.353,-2.3238,-2.2637,-2.3443,-2.3616,-2.3251,-2.3441,-2.3734,-2.4039,-2.411,-2.4299,-2.4603,-2.4454,-2.4339,-2.4368,-2.3977,-2.4178,-2.4804,-2.4811,-2.4765,-2.4697,-2.4122,-2.3504,-2.2663,-2.2548,-2.2196,-2.1669,-2.1202,-2.0831,-2.0716,-2.0564,-2.041,-2.0164,-2.0213,-2.0154,-2.004,-2.0227,-2.0414,-2.0561,-2.0975,0.0,0.0,0.0,0.0,0.0,0.0,0.0,0.0,0.0,-2.0535,-2.0975,0.0,-2.0641,0.0,-2.0307,-2.0335,-2.093,-2.1037,0.0,0.0,-2.1601,-2.1531,-2.1168,-2.1195,-2.1316,-2.1558,-2.1636,-2.17,-2.1636,-2.1571,-2.1528,-2.1231,-2.1191,-2.1316,-2.18,-2.1514,-2.1204,-2.1159,-2.1172,-2.1172,-2.1109,-2.1109,-2.1109,-2.1109,-2.1109,-2.1109,-2.1109,-2.1109,-2.1109,-2.1109,-2.1109,-2.1109,-2.1109,-2.1109,-2.1109,-2.1122,-2.1283,-2.1507,-2.1521,-2.167,-2.1724,-2.5137,-2.5371,-2.5371,-2.5078,-2.4621,-2.4619,-2.4823,-2.5121,-2.4987,-2.4585,-2.3938,-2.3527,-2.3252,-2.3117,-2.3271,-2.3357,-2.3374,-2.358,-2.3768,-2.3905,-2.3922,-2.4127,-2.4487,-2.4487,-2.4497,-2.459,-2.4496,-2.4273,-2.3977,-2.3641,-2.368,-2.4016,-2.4046,-2.3869,-2.345,-2.3943,-2.3598,-2.2409,-2.2083,-2.1803,-2.1452,-2.1087,-2.0923,-2.0872,-2.0755,-2.0665,-2.0679,-2.0596,-2.0628,-2.0628,-2.0748,-2.0828,-2.0882,-2.1269,-2.1577,0.0,0.0,0.0,0.0,0.0,0.0,0.0,0.0,0.0,0.0,0.0,-2.0922,0.0,-2.0802,0.0,-2.147,-2.1652,-2.1708,-2.1767,-2.1894,-2.1777,-2.1349,-2.1416,-2.1456,-2.1363,-2.1534,-2.1574,-2.1376,-2.1349,-2.1349,-2.1309,-2.1309,-2.1376,-2.1523,-2.1296,-2.1109,-2.1109,-2.1109,-2.1109,-2.1109,-2.1109,-2.1109,-2.1109,-2.1109,-2.1109,-2.1109,-2.1109,-2.1109,-2.1109,-2.1109,-2.1109,-2.1109,-2.1109,-2.1109,-2.1122,-2.1243,-2.1336,-2.1363,-2.1683,-2.1844,-2.5674,-2.5674,-2.5674,-2.5674,-2.5674,-2.5674,-2.5674,-2.5713,-2.5894,-2.5595,-2.4914,-2.438,-2.3999,-2.3805,-2.3876,-2.384,-2.3787,-2.3785,-2.399,-2.4244,-2.4261,-2.4432,-2.4812,-2.4864,-2.4714,-2.4508,-2.4485,-2.4165,-2.361,-2.3537,-2.3368,-2.3198,-2.3198,-2.2949,-2.2568,-2.3815,-2.3665,-2.2086,-2.1493,-2.1245,-2.132,-2.1287,-2.1257,-2.1197,-2.121,-2.1146,-2.1149,-2.1203,-2.1216,-2.1229,-2.147,-2.147,-2.1203,-2.1683,-2.1991,0.0,-2.2258,0.0,0.0,0.0,0.0,0.0,0.0,0.0,0.0,-2.1056,-2.1336,-2.1643,-2.139,-2.143,-2.1937,-2.2245,-2.2298,-2.2031,-2.2245,-2.2205,-2.1748,-2.183,-2.179,-2.1283,-2.1443,-2.1574,-2.1296,-2.1229,-2.1323,-2.1628,-2.1668,-2.1574,-2.1243,-2.1203,-2.1176,-2.1122,-2.1109,-2.1109,-2.1109,-2.1109,-2.1109,-2.1109,-2.1109,-2.1109,-2.1109,-2.1109,-2.1109,-2.1109,-2.1109,-2.1109,-2.1109,-2.1109,-2.1109,-2.1109,-2.1122,-2.1136,-2.1162,-2.1483,-2.1777,-2.5674,-2.5674,-2.5674,-2.5674,-2.5674,-2.5674,-2.5674,-2.5713,-2.5695,-2.5547,-2.5311,-2.5179,-2.4855,-2.4439,-2.4739,-2.4541,-2.4145,-2.4453,-2.4641,-2.471,-2.471,-2.4744,-2.4791,-2.5121,-2.5088,-2.4822,-2.4878,-2.4532,-2.391,-2.3623,-2.3722,-2.4236,-2.4236,-2.4289,0.0,0.0,0.0,0.0,-2.159,-2.1638,-2.1839,-2.1619,-2.1642,-2.1824,-2.1632,0.0,-2.1534,-2.1697,-2.1817,-2.1817,-2.1871,0.0,0.0,0.0,0.0,0.0,0.0,0.0,0.0,0.0,0.0,0.0,-2.2445,-2.2338,-2.1547,-2.1643,-2.1951,-2.2218,-2.1991,-2.1857,-2.1977,-2.2245,-2.2298,-2.2031,-2.2245,-2.2285,-2.1951,-2.1964,-2.1937,-2.1844,-2.1871,-2.1884,-2.1817,-2.1817,-2.183,-2.1884,-2.1897,-2.179,-2.151,-2.1521,-2.1376,-2.1162,-2.1109,-2.1109,-2.1109,-2.1109,-2.1109,-2.1109,-2.1109,-2.1109,-2.1109,-2.1109,-2.1109,-2.1109,-2.1109,-2.1109,-2.1109,-2.1109,-2.1109,-2.1109,-2.1109,-2.1109,-2.1109,-2.1189,-2.1323,-2.5674,0.0,-2.5674,-2.581,0.0,-2.6055,-2.6172,-2.6337,-2.6299,-2.6313,-2.639,-2.615,-2.5924,-2.5576,-2.5451,-2.5214,-2.4905,-2.4837,-2.483,-2.483,-2.483,-2.4915,-2.5104,-2.5275,-2.5235,-2.4944,-2.4953,-2.4678,-2.4092,-2.3683,-2.3799,-2.4308,-2.4088,-2.3997,-2.4065,-2.3794,-2.3078,-2.188,-2.1532,-2.1425,-2.1565,-2.1447,-2.1467,-2.1795,0.0,0.0,0.0,0.0,0.0,0.0,0.0,0.0,0.0,0.0,0.0,-2.2418,-2.2552,-2.2632,-2.2645,-2.2645,-2.2512,-2.2231,-2.2472,-2.2458,-2.2017,-2.1991,-2.2098,-2.2392,-2.2285,-2.2258,-2.2405,-2.2552,-2.2579,-2.2445,-2.2552,-2.2525,-2.2271,-2.2338,-2.2298,-2.2044,-2.2111,-2.2151,-2.2004,-2.1991,-2.2044,-2.2178,-2.2205,-2.2098,-2.1817,-2.1708,-2.1507,-2.1162,-2.1109,-2.1109,-2.1109,-2.1109,-2.1109,-2.1109,-2.1109,-2.1109,-2.1109,-2.1109,-2.1109,-2.1109,-2.1109,-2.1109,-2.1109,-2.1109,-2.1109,-2.1109,-2.1109,-2.1109,-2.1109,-2.1229,-2.1363,-2.5674,-2.5674,-2.5674,-2.5977,-2.6387,-2.6387,-2.668,-2.7129,0.0,0.0,0.0,-2.7188,-2.694,-2.6699,-2.6172,-2.5844,-2.5734,-2.52,-2.4979,-2.4979,-2.4923,-2.513,-2.5474,-2.5543,-2.5439,-2.521,-2.5277,-2.4923,-2.4252,-2.3922,-2.3891,-2.4066,-2.3769,-2.3508,-2.3363,-2.3157,-2.2842,-2.248,-2.1773,-2.1383,-2.1269,-2.1437,-2.1585,-2.1762,-2.1787,-2.1867,-2.1977,-2.1991,-2.2004,-2.2058,-2.2058,-2.2164,-2.2405,-2.2418,-2.2525,-2.2766,-2.2779,-2.2699,-2.2512,-2.2498,-2.2392,-2.2151,-2.2365,-2.2498,-2.2498,-2.2338,-2.2298,-2.2485,-2.2552,-2.2659,-2.2914,-2.2859,-2.2859,-2.2859,-2.2859,-2.2752,-2.2552,-2.2699,-2.2727,-2.2271,-2.2365,-2.2418,-2.2205,-2.2178,-2.2218,-2.2445,-2.2498,-2.2352,-2.2031,-2.1735,-2.1363,-2.1162,-2.1109,-2.1109,-2.1109,-2.1109,-2.1109,-2.1109,-2.1109,-2.1109,-2.1109,-2.1109,-2.1109,-2.1109,-2.1109,-2.1109,-2.1109,-2.1109,-2.1109,-2.1109,-2.1109,-2.1109,-2.1122,-2.1296,-2.1534,-2.5674,-2.5674,-2.5674,-2.5996,-2.6387,-2.6387,-2.6836,-2.7611,-2.763,-2.7799,-2.8174,-2.8135,-2.7795,-2.726,-2.6935,-2.6554,-2.6008,-2.5679,-2.5586,0.0,-2.5569,-2.5614,-2.5774,-2.6087,-2.6104,-2.5889,-2.6208,-2.589,-2.5071,-2.487,-2.4622,-2.4145,-2.4066,-2.4166,-2.4379,-2.4361,-2.4193,-2.3805,-2.3086,-2.2446,-2.1936,-2.2627,-2.2844,-2.2351,-2.2624,-2.2528,-2.2057,-2.1977,-2.2098,-2.2338,-2.2365,-2.2378,-2.2405,-2.2418,-2.2432,-2.2472,-2.2485,-2.2579,-2.2779,-2.2874,-2.2847,-2.2807,-2.2847,-2.2792,-2.2806,-2.3006,-2.3046,-2.2846,-2.3006,-2.31,-2.2913,-2.2859,-2.2859,-2.2859,-2.2859,-2.2832,-2.2779,-2.2901,-2.2887,-2.2712,-2.2766,-2.2779,-2.2699,-2.2699,-2.2699,-2.2779,-2.2726,-2.2592,-2.2084,-2.151,-2.1189,-2.1122,-2.1109,-2.1109,-2.1162,-2.1109,-2.1136,-2.1109,-2.1149,-2.1176,-2.1176,-2.1176,-2.1176,-2.1122,-2.1149,-2.1136,-2.1122,-2.1109,-2.1109,-2.1109,-2.1109,-2.1109,-2.1109,-2.1162,-2.1269,-2.5674,-2.5713,-2.5996,-2.6328,-2.6758,-2.7226,-2.7637,-2.7988,-2.8061,-2.8105,-2.8281,-2.8301,-2.8121,-2.7853,-2.7422,-2.6989,-2.6554,-2.6118,-2.5844,-2.5697,-2.5743,-2.5986,-2.6373,-2.647,-2.6498,-2.6576,-2.6608,-2.6244,-2.5654,-2.5277,-2.5136,-2.5152,-2.5168,-2.525,-2.5412,-2.5436,-2.5149,-2.4656,-2.3588,-2.2907,-2.2602,-2.2986,-2.2928,-2.2281,-2.2401,-2.2217,-2.1574,-2.167,-2.1817,-2.1937,-2.2098,-2.2258,-2.2405,-2.2418,-2.2485,-2.2645,-2.2659,-2.2726,-2.2859,-2.2859,-2.2859,-2.2859,-2.2859,-2.2859,-2.2859,-2.2993,-2.3006,-2.2954,-2.2993,-2.302,-2.2954,-2.2859,-2.2859,-2.2859,-2.2859,-2.2859,-2.2859,-2.2859,-2.2859,-2.2859,-2.2859,-2.2859,-2.2859,-2.2859,-2.2859,-2.2914,-2.2739,-2.2498,-2.2245,-2.1857,-2.1523,-2.139,-2.1349,-2.143,-2.1537,-2.1443,-2.143,-2.155,-2.1577,-2.1577,-2.159,-2.1577,-2.1577,-2.1563,-2.147,-2.1363,-2.1349,-2.1216,-2.1136,-2.1109,-2.1109,-2.1109,-2.1109,-2.1109,-2.1216,-2.5752,-2.5869,-2.625,-2.668,-2.7226,-2.7969,-2.8301,-2.8301,-2.8301,-2.8301,-2.8301,-2.8301,-2.8301,-2.8247,-2.7745,-2.7368,-2.7062,-2.6664,-2.6262,-2.5967,-2.606,-2.643,-2.6875,-2.6648,-2.6756,-2.7039,-2.683,-2.6587,-2.6156,-2.5682,-2.5622,-2.5989,-2.6128,-2.6144,-2.6022,-2.6144,-2.5945,-2.5317,-2.4286,-2.3542,-2.3106,-2.3168,-2.2856,-2.2055,-2.2125,-2.19,-2.1279,-2.1496,-2.1748,-2.175,-2.1964,-2.2218,-2.2485,-2.2512,-2.2619,-2.2832,-2.2859,-2.2859,-2.2859,-2.2859,-2.2859,-2.2859,-2.2859,-2.2859,-2.2859,-2.2859,-2.2859,-2.2873,-2.2939,-2.2953,-2.2873,-2.2859,-2.2859,-2.2859,-2.2859,-2.2859,-2.2859,-2.2859,-2.2859,-2.2859,-2.2859,-2.2859,-2.2859,-2.2859,-2.2859,-2.2832,-2.2605,-2.2432,-2.2392,-2.2218,-2.1991,-2.1817,-2.1762,-2.1724,-2.1937,-2.1804,-2.175,-2.1964,-2.1964,-2.1924,-2.1937,-2.1964,-2.1977,-2.1924,-2.179,-2.167,-2.163,-2.143,-2.1256,-2.1229,-2.1176,-2.1109,-2.1109,-2.1109,-2.1162,-2.5977,-2.6309,-2.6387,-2.6855,-2.7689,-2.8105,-2.8301,-2.8301,-2.8301,-2.8301,-2.8301,-2.8301,-2.8301,-2.8247,-2.7979,-2.7711,-2.7425,-2.7454,-2.716,-2.6695,-2.696,-2.7067,-2.6935,-2.6887,-2.6935,-2.7099,-2.7073,-2.6874,-2.6571,-2.6476,-2.6172,-2.5794,-2.6266,-2.6222,-2.5794,-2.6283,-2.6388,-2.6006,-2.5884,-2.4903,-2.323,-2.3417,-2.2981,-2.1677,-2.2257,-2.2217,-2.1652,-2.1804,-2.2071,-2.2311,-2.2365,-2.2512,-2.2779,-2.2819,-2.2832,-2.2859,-2.2873,-2.2859,-2.2873,-2.2859,-2.2859,-2.2859,-2.2859,-2.2859,-2.2859,-2.2859,-2.2859,-2.2913,-2.3126,-2.3113,-2.2968,-2.2859,-2.2859,-2.2859,-2.2859,-2.2859,-2.2859,-2.2859,-2.2859,-2.2859,-2.2859,-2.2859,-2.2886,-2.2899,-2.2886,-2.2913,-2.2659,-2.2485,-2.2512,-2.2445,-2.2418,-2.2325,-2.2151,-2.2004,-2.2031,-2.1977,-2.1991,-2.2017,-2.2004,-2.2058,-2.2084,-2.2071,-2.2004,-2.2151,-2.1991,-2.1951,-2.1897,-2.1724,-2.1574,-2.1416,-2.1283,-2.1109,-2.1109,-2.1109,-2.1136,-2.6211,-2.6445,-2.6934,-2.748,-2.8027,-2.8223,-2.8301,-2.8301,-2.8301,-2.8301,-2.8301,-2.8301,-2.8301,-2.832,-2.8427,-2.8346,-2.8057,-2.8347,-2.8089,-2.7375,-2.7585,-2.7526,-2.7217,-2.7106,-2.7159,-2.728,-2.7194,-2.7012,-2.6891,-2.6891,-2.6571,-2.6022,-2.6388,-2.6566,-2.6504,-2.6566,-2.6549,-2.6381,-2.6182,-2.5333,-2.3976,-2.4239,-2.4049,-2.3171,-2.2744,-2.2482,-2.2168,-2.2055,-2.2111,-2.2405,-2.2579,-2.2726,-2.2859,-2.2859,-2.3008,-2.3113,-2.314,-2.314,-2.314,-2.2966,-2.2859,-2.2859,-2.2859,-2.2859,-2.2859,-2.2859,-2.2926,-2.31,-2.3086,-2.2993,-2.2886,-2.2859,-2.2859,-2.2859,-2.2859,-2.2859,-2.2859,-2.2859,-2.2859,-2.2859,-2.2859,-2.2953,-2.3086,-2.314,-2.314,-2.31,-2.2873,-2.2752,-2.2899,-2.2806,-2.2846,-2.31,-2.2966,-2.2712,-2.2552,-2.2338,-2.2338,-2.2445,-2.2498,-2.2498,-2.2485,-2.2498,-2.2512,-2.2485,-2.2338,-2.2245,-2.2231,-2.1857,-2.1614,-2.1561,-2.1323,-2.1109,-2.1109,-2.1109,-2.1109,-2.6641,-2.6836,-2.7591,-2.8061,-2.8281,-2.8301,-2.8301,-2.8301,-2.8301,-2.8301,-2.8301,-2.8398,-2.8457,-2.8496,-2.8789,-2.882,-2.8718,-2.9103,-2.8786,-2.8042,-2.806,-2.783,-2.7452,-2.7177,-2.7194,-2.7358,-2.7194,-2.7073,-2.7073,-2.7073,-2.6753,-2.625,-2.6327,-2.6633,-2.6856,-2.6449,-2.6326,-2.6546,-2.6081,-2.532,-2.4409,-2.4595,-2.4469,-2.3749,-2.3185,-2.2793,-2.2621,-2.2602,-2.2659,-2.2809,-2.3093,-2.3242,-2.3323,-2.3323,-2.3473,-2.366,-2.3563,-2.3493,-2.3574,-2.3222,-2.2993,-2.2979,-2.2926,-2.2859,-2.2873,-2.2939,-2.3086,-2.326,-2.3193,-2.3126,-2.2993,-2.2993,-2.2966,-2.2886,-2.2859,-2.2859,-2.2859,-2.2859,-2.2899,-2.2966,-2.302,-2.31,-2.3367,-2.3447,-2.3447,-2.342,-2.3273,-2.3166,-2.3367,-2.3273,-2.3287,-2.3688,-2.3567,-2.3367,-2.314,-2.2979,-2.2913,-2.2886,-2.2966,-2.2926,-2.2899,-2.2859,-2.2859,-2.2672,-2.2592,-2.2539,-2.2512,-2.2138,-2.1748,-2.1614,-2.139,-2.1203,-2.1122,-2.1109,-2.1109,-2.7226,-2.7689,-2.8086,-2.8262,-2.8301,-2.8301,-2.8301,-2.8301,-2.8301,-2.8301,-2.8359,-2.8711,-2.8887,-2.8906,-2.8965,-2.8995,-2.9122,-2.9602,-2.9278,-2.8447,-2.8442,-2.8086,-2.7486,-2.7237,-2.715,-2.7236,-2.7236,-2.7158,-2.7141,-2.7107,-2.6753,-2.6161,-2.6149,-2.6298,-2.6454,-2.573,-2.5665,-2.6362,-2.5668,-2.4968,-2.459,-2.4299,-2.3756,-2.2947,-2.3153,-2.329,-2.3088,-2.3602,-2.391,-2.3938,-2.3898,-2.4037,-2.4289,-2.433,-2.4386,-2.4721,-2.4246,-2.3995,-2.4143,-2.3671,-2.33,-2.3273,-2.3086,-2.2954,-2.2966,-2.3166,-2.3327,-2.3284,-2.3581,-2.3594,-2.338,-2.3327,-2.3207,-2.3035,-2.2968,-2.2913,-2.2968,-2.2966,-2.302,-2.3233,-2.3327,-2.346,-2.3714,-2.3754,-2.3754,-2.3754,-2.3799,-2.3714,-2.3714,-2.3714,-2.3728,-2.3852,-2.3794,-2.3741,-2.3728,-2.346,-2.3394,-2.3313,-2.3153,-2.3153,-2.2993,-2.2859,-2.2859,-2.2859,-2.2806,-2.2766,-2.2766,-2.2525,-2.2098,-2.1844,-2.1722,-2.147,-2.1363,-2.1176,-2.1203,-2.7676,-2.8066,-2.8223,-2.8301,-2.8301,-2.8301,-2.8301,-2.8301,-2.8301,-2.8301,-2.8359,-2.873,-2.9082,-2.9355,-2.9609,-2.9768,-2.9849,-3.0276,-2.9947,-2.9127,-2.8902,-2.8505,-2.7887,-2.7599,-2.7569,-2.7775,-2.7792,-2.7668,-2.7464,-2.7214,-2.6777,-2.6149,-2.5897,-2.5945,-2.6088,-2.5691,-2.5627,-2.5878,-2.5372,-2.4817,-2.4362,-2.4386,-2.4148,-2.3621,-2.3336,-2.3454,-2.3937,-2.3792,-2.384,-2.4232,-2.4246,-2.4386,-2.4666,-2.4708,-2.4848,-2.51,-2.4805,-2.4565,-2.4586,-2.4181,-2.3877,-2.3607,-2.3514,-2.342,-2.3531,-2.3554,-2.3688,-2.3861,-2.3968,-2.3981,-2.3888,-2.3728,-2.3567,-2.3474,-2.3434,-2.342,-2.3447,-2.3447,-2.35,-2.3607,-2.3754,-2.3941,-2.3995,-2.4048,-2.4048,-2.4035,-2.3901,-2.3888,-2.3981,-2.3901,-2.3901,-2.4182,-2.4168,-2.4115,-2.4315,-2.3768,-2.342,-2.3313,-2.3193,-2.3046,-2.2886,-2.2859,-2.2859,-2.2859,-2.2859,-2.2859,-2.2806,-2.2659,-2.2271,-2.2017,-2.183,-2.179,-2.1697,-2.155,-2.1577,-2.8027,-2.8281,-2.8301,-2.8301,-2.8301,-2.8301,-2.8301,-2.8301,-2.8301,-2.8301,-2.8398,-2.8867,-2.9297,-2.9648,-3.0156,-3.043,-3.0449,-3.0762,-3.0469,-2.9736,-2.9338,-2.8895,-2.8439,-2.7978,-2.7929,-2.8089,-2.7933,-2.7744,-2.749,-2.7046,-2.6472,-2.5944,-2.5574,-2.568,-2.5947,-2.5485,-2.521,-2.5408,-2.508,-2.4526,-2.418,-2.4291,-2.4379,-2.4247,-2.392,-2.4035,-2.4684,-2.4228,-2.4263,-2.4789,-2.4718,-2.4746,-2.5044,-2.5087,-2.5215,-2.547,-2.5272,-2.5087,-2.5052,-2.4712,-2.4388,-2.4103,-2.3892,-2.3781,-2.3781,-2.3848,-2.4008,-2.4168,-2.4302,-2.4342,-2.4302,-2.4168,-2.3981,-2.3834,-2.3781,-2.3781,-2.3781,-2.3768,-2.3808,-2.3928,-2.4155,-2.4302,-2.4342,-2.4342,-2.4342,-2.4342,-2.4155,-2.4155,-2.4262,-2.4209,-2.4155,-2.4529,-2.4449,-2.4422,-2.4422,-2.3995,-2.3634,-2.35,-2.322,-2.3033,-2.2941,-2.2873,-2.2859,-2.2859,-2.2859,-2.2859,-2.2792,-2.2672,-2.2458,-2.2191,-2.2111,-2.2071,-2.2004,-2.1937,-2.199,-2.8281,-2.8301,-2.8301,-2.8301,-2.8301,-2.8301,-2.8301,-2.8301,-2.8301,-2.8301,-2.8398,-2.916,-2.9587,-2.9802,-3.043,-3.0859,-3.0781,-3.0859,-3.072,-3.0332,-2.9725,-2.9353,-2.9065,-2.8518,-2.8174,-2.8179,-2.7477,-2.7159,-2.708,-2.6504,-2.599,-2.5621,-2.5294,-2.5463,-2.6071,-2.499,-2.4684,-2.5191,-2.4714,-2.4224,-2.4101,-2.4188,-2.4335,-2.4569,-2.4803,-2.4979,-2.5081,-2.5066,-2.5261,-2.5728,-2.5349,-2.5227,-2.5426,-2.5455,-2.5626,-2.5848,-2.5581,-2.5598,-2.5726,-2.5194,-2.4833,-2.4675,-2.417,-2.3875,-2.3928,-2.4075,-2.4222,-2.4275,-2.4449,-2.4609,-2.4596,-2.4569,-2.4369,-2.3915,-2.3875,-2.3888,-2.3848,-2.3808,-2.3888,-2.4182,-2.4436,-2.4609,-2.4623,-2.4583,-2.4569,-2.4569,-2.4543,-2.4529,-2.4556,-2.4516,-2.4596,-2.4623,-2.4583,-2.4583,-2.4409,-2.4195,-2.3955,-2.3728,-2.338,-2.3113,-2.2926,-2.2859,-2.2859,-2.2859,-2.2859,-2.2859,-2.2859,-2.2752,-2.2686,-2.2485,-2.2432,-2.2365,-2.2311,-2.2311,-2.2297,-2.8301,-2.8301,-2.8301,-2.8301,-2.8301,-2.8301,-2.8301,-2.8301,-2.8301,-2.8301,-2.8457,-2.9199,-2.957,-2.9841,-3.0488,-3.0645,-3.0254,-3.0699,-3.0672,-3.0144,-2.9794,-2.952,-2.9147,-2.8789,-2.8476,-2.816,-2.7523,-2.7064,-2.6785,-2.6324,-2.5927,-2.5626,-2.5278,-2.5204,-2.5413,-2.5004,-2.5019,-2.513,-2.4937,-2.4811,-2.4826,-2.4744,-2.4803,-2.4973,-2.5075,-2.5154,-2.5359,-2.5388,-2.5476,-2.5696,-2.5491,-2.552,-2.5754,-2.5652,-2.5696,-2.5889,-2.5877,-2.5796,-2.5884,-2.5679,-2.5354,-2.5062,-2.4628,-2.4369,-2.4369,-2.4422,-2.4489,-2.4489,-2.4583,-2.4636,-2.4636,-2.4857,-2.485,-2.4382,-2.4369,-2.4342,-2.4329,-2.4356,-2.4409,-2.4476,-2.4509,-2.4636,-2.4649,-2.4663,-2.4676,-2.4663,-2.4649,-2.4649,-2.4636,-2.4636,-2.4636,-2.4636,-2.4636,-2.4636,-2.4563,-2.4388,-2.4102,-2.3861,-2.3541,-2.3233,-2.3033,-2.2926,-2.2913,-2.2859,-2.2859,-2.2859,-2.2859,-2.2832,-2.2766,-2.2834,-2.2753,-2.27,-2.2673,-2.266,-2.2781,-2.8301,-2.8301,-2.8301,-2.8301,-2.8301,-2.8301,-2.8301,-2.8301,-2.8301,-2.8379,-2.8652,-2.9258,-2.9724,-2.9922,-3.0566,-3.0509,-2.9979,-3.0569,-3.041,-2.9794,-2.9912,-2.9725,-2.9421,-2.9086,-2.8751,-2.8263,-2.7662,-2.7122,-2.6651,-2.6163,-2.5816,-2.5731,-2.5437,-2.5227,-2.5227,-2.5227,-2.5183,-2.5081,-2.5052,-2.5066,-2.5052,-2.5066,-2.5066,-2.5081,-2.5169,-2.5271,-2.5374,-2.5461,-2.5509,-2.5652,-2.5539,-2.5593,-2.5652,-2.5564,-2.5553,-2.5827,-2.6076,-2.6197,-2.6287,-2.5979,-2.5796,-2.5497,-2.4999,-2.4623,-2.4636,-2.4636,-2.4636,-2.4784,-2.4857,-2.4857,-2.5079,-2.5423,-2.539,-2.5033,-2.4898,-2.4797,-2.4663,-2.4836,-2.489,-2.4877,-2.4903,-2.4943,-2.497,-2.512,-2.4978,-2.4924,-2.4945,-2.479,-2.4764,-2.4636,-2.4649,-2.4649,-2.471,-2.4697,-2.4757,-2.4582,-2.4235,-2.3968,-2.3701,-2.3407,-2.3166,-2.3126,-2.31,-2.2926,-2.2859,-2.2859,-2.2859,-2.2928,-2.2901,-2.2928,-2.316,-2.3147,-2.3215,-2.3379,-2.3459,-2.8301,-2.8301,-2.832,-2.834,-2.8301,-2.834,-2.8379,-2.8359,-2.8359,-2.8594,-2.8984,-2.9453,-2.9824,-3.0215,-3.0606,-3.047,-3.0054,-3.0237,-3.0057,-2.952,-2.9717,-2.9835,-2.9652,-2.923,-2.874,-2.8163,-2.7688,-2.7139,-2.633,-2.5814,-2.5652,-2.5824,-2.552,-2.5476,-2.5403,-2.5476,-2.5301,-2.5096,-2.5066,-2.5066,-2.5066,-2.5066,-2.5066,-2.5134,-2.5286,-2.533,-2.5169,-2.5374,-2.5666,-2.59,-2.5696,-2.5505,-2.5286,-2.5403,-2.5608,-2.5612,-2.6193,-2.6531,-2.6692,-2.6206,-2.595,-2.6024,-2.5276,-2.4589,-2.4716,-2.4716,-2.4764,-2.5018,-2.5079,-2.5313,-2.5677,-2.6066,-2.6084,-2.5813,-2.5378,-2.5093,-2.4756,-2.5184,-2.5277,-2.5273,-2.5331,-2.5491,-2.5501,-2.5818,-2.571,-2.541,-2.5466,-2.5283,-2.5026,-2.4911,-2.4878,-2.4891,-2.4884,-2.4831,-2.4932,-2.4643,-2.4369,-2.4275,-2.4008,-2.3741,-2.3394,-2.33,-2.3153,-2.2979,-2.305,-2.2968,-2.3023,-2.3119,-2.3296,-2.3474,-2.3653,-2.3721,-2.3803,-2.3995,-2.409,-2.8301,-2.832,-2.8633,-2.8574,-2.8359,-2.8613,-2.875,-2.875,-2.875,-2.8984,-2.9414,-2.9844,-3.0078,-3.0234,-3.0432,-3.0274,-2.9974,-2.9888,-2.9603,-2.9208,-2.9408,-2.9456,-2.9313,-2.8856,-2.8196,-2.7483,-2.6941,-2.6185,-2.5523,-2.5378,-2.5354,-2.5301,-2.5369,-2.5281,-2.5183,-2.5281,-2.5222,-2.5066,-2.5066,-2.5066,-2.5066,-2.5066,-2.5066,-2.5066,-2.514,-2.5154,-2.5163,-2.5359,-2.5549,-2.5652,-2.5827,-2.5857,-2.574,-2.5842,-2.5845,-2.5877,-2.62,-2.6459,-2.6485,-2.6234,-2.6047,-2.6068,-2.5594,-2.5197,-2.497,-2.4957,-2.4938,-2.4864,-2.5018,-2.5409,-2.5797,-2.6383,-2.6598,-2.6405,-2.5861,-2.5429,-2.5353,-2.5398,-2.5554,-2.5818,-2.5873,-2.5927,-2.6107,-2.6322,-2.6357,-2.6047,-2.593,-2.5951,-2.5663,-2.5246,-2.5206,-2.5219,-2.517,-2.5125,-2.4991,-2.469,-2.4556,-2.4556,-2.4382,-2.4182,-2.3794,-2.3474,-2.322,-2.2939,-2.3378,-2.3529,-2.3584,-2.3653,-2.3901,-2.4081,-2.433,-2.4456,-2.4413,-2.4454,-2.4547,-2.8301,-2.834,-2.875,-2.8769,-2.8594,-2.8828,-2.9023,-2.9141,-2.9004,-2.9277,-2.9785,-3.0078,-3.0178,-3.0103,-3.0276,-2.9957,-2.943,-2.9514,-2.9377,-2.9014,-2.8901,-2.885,-2.8757,-2.8263,-2.7584,-2.6831,-2.6608,-2.6125,-2.5535,-2.5525,-2.5736,-2.582,-2.5725,-2.5665,-2.5574,-2.5529,-2.5387,-2.5163,-2.5066,-2.5066,-2.5066,-2.5066,-2.5066,-2.5066,-2.5066,-2.5096,-2.5271,-2.5564,-2.574,-2.5769,-2.5845,-2.5947,-2.5765,-2.6011,-2.6056,-2.5941,-2.6428,-2.6769,-2.6687,-2.6488,-2.6322,-2.6175,-2.5842,-2.5451,-2.5304,-2.5264,-2.5157,-2.5364,-2.5595,-2.5977,-2.6354,-2.6947,-2.7174,-2.706,-2.6498,-2.6017,-2.5801,-2.5976,-2.6262,-2.6466,-2.6493,-2.6575,-2.6653,-2.6947,-2.6878,-2.6655,-2.6613,-2.653,-2.6343,-2.5913,-2.563,-2.5715,-2.558,-2.5479,-2.5439,-2.522,-2.5018,-2.4945,-2.4851,-2.4663,-2.434,-2.3924,-2.3685,-2.3622,-2.3859,-2.4053,-2.415,-2.4344,-2.454,-2.4806,-2.5045,-2.5186,-2.51,-2.5099,-2.5109,-2.832,-2.8379,-2.8809,-2.8984,-2.9004,-2.9043,-2.9261,-2.9456,-2.9241,-2.9458,-2.9985,-3.0102,-2.9968,-2.9922,-3.002,-2.9714,-2.8893,-2.9285,-2.9126,-2.8828,-2.849,-2.8312,-2.8246,-2.7947,-2.7229,-2.6485,-2.6817,-2.6388,-2.584,-2.6171,-2.6414,-2.6319,-2.6383,-2.6284,-2.5921,-2.5912,-2.5671,-2.5178,-2.5066,-2.5066,-2.5066,-2.5066,-2.5066,-2.5134,-2.5154,-2.5315,-2.5593,-2.593,-2.6164,-2.6179,-2.6164,-2.6068,-2.5827,-2.6242,-2.6296,-2.6129,-2.6627,-2.7078,-2.706,-2.6704,-2.6578,-2.6462,-2.5926,-2.5585,-2.5571,-2.5635,-2.5747,-2.5867,-2.6482,-2.6909,-2.7264,-2.7659,-2.7671,-2.7479,-2.7199,-2.6744,-2.6484,-2.6703,-2.7079,-2.7297,-2.7181,-2.7384,-2.7555,-2.7684,-2.76,-2.741,-2.7249,-2.7094,-2.6857,-2.6523,-2.6336,-2.6323,-2.617,-2.5902,-2.5857,-2.581,-2.5589,-2.5469,-2.5398,-2.5255,-2.5024,-2.4729,-2.446,-2.4382,-2.4498,-2.4708,-2.4862,-2.5017,-2.5286,-2.5498,-2.5769,-2.5839,-2.595,-2.5865,-2.5833,-2.8476,-2.8828,-2.9258,-2.9434,-2.9492,-2.9785,-2.9867,-2.9717,-2.964,-2.9661,-2.987,-2.9712,-2.9691,-2.9863,-2.9587,-2.9375,-2.9459,-2.9187,-2.8807,-2.8768,-2.8081,-2.7899,-2.7848,-2.7707,-2.7243,-2.6663,-2.6618,-2.6405,-2.6085,-2.5951,-2.5967,-2.6239,-2.6223,-2.605,-2.5794,-2.5741,-2.5546,-2.5202,-2.5134,-2.5149,-2.5163,-2.511,-2.5125,-2.5207,-2.5315,-2.5593,-2.5959,-2.6471,-2.6896,-2.7086,-2.713,-2.6983,-2.6772,-2.6912,-2.6786,-2.657,-2.653,-2.6666,-2.6658,-2.6625,-2.6448,-2.654,-2.6343,-2.6106,-2.5956,-2.6175,-2.6221,-2.6287,-2.6814,-2.7426,-2.8009,-2.7834,-2.777,-2.7633,-2.7333,-2.7134,-2.7273,-2.7171,-2.7356,-2.7812,-2.7983,-2.804,-2.8118,-2.831,-2.8253,-2.8054,-2.7819,-2.7634,-2.7332,-2.7032,-2.6878,-2.6757,-2.6673,-2.6368,-2.6262,-2.6284,-2.6252,-2.6117,-2.6004,-2.604,-2.5805,-2.5488,-2.5302,-2.5184,-2.5144,-2.5314,-2.577,-2.5898,-2.6272,-2.6344,-2.643,-2.6458,-2.6429,-2.6457,-2.6383,-2.8535,-2.8965,-2.9394,-2.9687,-2.9883,-3.0003,-3.0045,-2.9988,-2.968,-2.9717,-2.9865,-2.9686,-2.9568,-2.9468,-2.9309,-2.9407,-2.9505,-2.9341,-2.9333,-2.9284,-2.8575,-2.7981,-2.7864,-2.7554,-2.705,-2.6519,-2.6694,-2.661,-2.6405,-2.6306,-2.6396,-2.6347,-2.6213,-2.5959,-2.5659,-2.5607,-2.5404,-2.5246,-2.5213,-2.5271,-2.5286,-2.5432,-2.5505,-2.552,-2.5681,-2.5915,-2.6252,-2.653,-2.6983,-2.7335,-2.7495,-2.7329,-2.715,-2.7169,-2.6934,-2.6452,-2.6685,-2.6694,-2.6762,-2.683,-2.6991,-2.6939,-2.6781,-2.6635,-2.6435,-2.6564,-2.6497,-2.6671,-2.7108,-2.7783,-2.8497,-2.8617,-2.8339,-2.7976,-2.7726,-2.7726,-2.7805,-2.7569,-2.7647,-2.8275,-2.8339,-2.8331,-2.8443,-2.8599,-2.8424,-2.7971,-2.7626,-2.7469,-2.7779,-2.7401,-2.7135,-2.7084,-2.7041,-2.6942,-2.6772,-2.6805,-2.6904,-2.6796,-2.6715,-2.6842,-2.6904,-2.6537,-2.6157,-2.6123,-2.6156,-2.659,-2.6909,-2.7071,-2.7027,-2.7042,-2.6969,-2.6969,-2.6866,-2.6749,-2.6691,-2.8633,-2.9062,-2.9473,-2.9922,-3.0216,-3.0045,-3.0065,-3.0179,-2.962,-2.9521,-2.9688,-2.9745,-2.9331,-2.9153,-2.9213,-2.9252,-2.944,-2.9707,-2.993,-2.9835,-2.8888,-2.8246,-2.798,-2.734,-2.6796,-2.6258,-2.6534,-2.6738,-2.6796,-2.6842,-2.654,-2.6527,-2.6341,-2.6004,-2.5689,-2.5667,-2.5591,-2.5281,-2.5461,-2.5608,-2.5622,-2.5827,-2.593,-2.5944,-2.6047,-2.6193,-2.6442,-2.6676,-2.6954,-2.7437,-2.7569,-2.7384,-2.7084,-2.708,-2.7073,-2.6402,-2.6867,-2.7107,-2.712,-2.7305,-2.7476,-2.7555,-2.7333,-2.7097,-2.7004,-2.6977,-2.7042,-2.7199,-2.7642,-2.8033,-2.8837,-2.8733,-2.8619,-2.8347,-2.8211,-2.8211,-2.8211,-2.7961,-2.8118,-2.8588,-2.8666,-2.8593,-2.8434,-2.8424,-2.8177,-2.7911,-2.7658,-2.7492,-2.774,-2.7889,-2.7664,-2.7559,-2.7621,-2.7463,-2.7291,-2.742,-2.7521,-2.7502,-2.7435,-2.7626,-2.7817,-2.7693,-2.7377,-2.7323,-2.7401,-2.7638,-2.7669,-2.7553,-2.7554,-2.7554,-2.7393,-2.7203,-2.7086,-2.7013,-2.6939,-2.9062,-2.9492,-2.9922,-3.0351,-3.0684,-3.0412,-3.0139,-2.9962,-2.9592,-2.9335,-2.9153,-2.8874,-2.8934,-2.8916,-2.8755,-2.9028,-2.96,-2.9981,-3.013,-2.9952,-2.9036,-2.8378,-2.7799,-2.7194,-2.6558,-2.6252,-2.6413,-2.6672,-2.6815,-2.6588,-2.6564,-2.6335,-2.6488,-2.6299,-2.6005,-2.5846,-2.601,-2.5849,-2.6047,-2.6125,-2.6099,-2.6047,-2.612,-2.6149,-2.631,-2.6457,-2.6632,-2.7027,-2.7378,-2.751,-2.7978,-2.7922,-2.7688,-2.7697,-2.753,-2.7337,-2.7342,-2.749,-2.7569,-2.7555,-2.7633,-2.7555,-2.7555,-2.7476,-2.7569,-2.7726,-2.7726,-2.7976,-2.8133,-2.8368,-2.8808,-2.8625,-2.8268,-2.8133,-2.8118,-2.804,-2.8197,-2.8275,-2.8353,-2.8808,-2.8808,-2.8686,-2.8497,-2.838,-2.8355,-2.8224,-2.8046,-2.8013,-2.8187,-2.8278,-2.822,-2.8206,-2.822,-2.8031,-2.7813,-2.8046,-2.822,-2.8187,-2.8197,-2.8327,-2.8492,-2.8613,-2.856,-2.8177,-2.7973,-2.7961,-2.7947,-2.7976,-2.7905,-2.7788,-2.7583,-2.7393,-2.7232,-2.7086,-2.6998,-2.9375,-2.9665,-3.0019,-3.0469,-3.0781,-3.0333,-3.0039,-2.9863,-2.945,-2.9153,-2.8975,-2.8815,-2.8815,-2.8934,-2.8856,-2.9192,-2.9813,-3.0012,-3.0212,-3.0077,-2.9168,-2.8378,-2.7898,-2.7225,-2.6848,-2.6753,-2.6863,-2.6924,-2.7112,-2.7028,-2.6976,-2.719,-2.7367,-2.7267,-2.7121,-2.7214,-2.7085,-2.7024,-2.7198,-2.7186,-2.6792,-2.6612,-2.65,-2.6559,-2.6632,-2.6749,-2.6852,-2.7188,-2.7466,-2.7554,-2.792,-2.8075,-2.8081,-2.8091,-2.7946,-2.7734,-2.7633,-2.7712,-2.7883,-2.7961,-2.804,-2.8261,-2.8104,-2.7961,-2.7883,-2.7961,-2.8118,-2.8318,-2.8776,-2.884,-2.8915,-2.864,-2.8654,-2.8539,-2.8417,-2.8431,-2.851,-2.8588,-2.8744,-2.8886,-2.8915,-2.8749,-2.853,-2.8457,-2.8457,-2.8461,-2.8373,-2.8491,-2.8681,-2.8622,-2.8578,-2.8491,-2.8505,-2.8461,-2.83,-2.8447,-2.8593,-2.8651,-2.871,-2.8842,-2.8886,-2.8871,-2.8798,-2.8622,-2.8461,-2.833,-2.8447,-2.852,-2.8271,-2.8008,-2.7861,-2.7671,-2.7364,-2.7159,-2.7086,-2.9434,-2.9473,-2.998,-3.041,-3.0606,-3.0138,-2.9922,-2.9863,-2.9272,-2.9035,-2.9094,-2.9035,-2.8975,-2.9012,-2.9159,-2.9465,-3.0098,-2.9932,-3.0116,-2.9982,-2.9221,-2.8444,-2.7994,-2.7665,-2.7342,-2.7457,-2.7545,-2.7623,-2.752,-2.7689,-2.8005,-2.8069,-2.8249,-2.835,-2.8233,-2.8126,-2.8382,-2.8456,-2.8467,-2.8215,-2.7594,-2.7199,-2.6998,-2.6998,-2.6998,-2.6998,-2.7115,-2.732,-2.7525,-2.7656,-2.792,-2.8107,-2.8326,-2.8491,-2.8327,-2.7983,-2.7869,-2.8118,-2.8275,-2.8431,-2.851,-2.873,-2.8588,-2.8431,-2.8353,-2.8275,-2.8104,-2.8489,-2.884,-2.9134,-2.8959,-2.9105,-2.9105,-2.8973,-2.8886,-2.8886,-2.8808,-2.8822,-2.8822,-2.89,-2.893,-2.8944,-2.8856,-2.871,-2.8754,-2.9003,-2.893,-2.8973,-2.909,-2.8886,-2.8798,-2.8637,-2.8608,-2.8695,-2.8681,-2.871,-2.8783,-2.8798,-2.8812,-2.8871,-2.8886,-2.8886,-2.8812,-2.8769,-2.8769,-2.8695,-2.8856,-2.8856,-2.8564,-2.8315,-2.8169,-2.7905,-2.751,-2.7276,-2.7174,-2.8984,-2.9062,-2.9863,-3.0234,-3.0237,-3.0004,-3.0098,-3.0157,-2.939,-2.9153,-2.9331,-2.9153,-2.8975,-2.9048,-2.9402,-2.9623,-2.9813,-3.0041,-3.0006,-2.9678,-2.9209,-2.8675,-2.8032,-2.8063,-2.8016,-2.8132,-2.8265,-2.8148,-2.8249,-2.8541,-2.8541,-2.8547,-2.8847,-2.8723,-2.8841,-2.9018,-2.8694,-2.8703,-2.8402,-2.7867,-2.7303,-2.7158,-2.7056,-2.7056,-2.7071,-2.7174,-2.7408,-2.7554,-2.7671,-2.7844,-2.8136,-2.8388,-2.8476,-2.8695,-2.8812,-2.8808,-2.8744,-2.8822,-2.873,-2.873,-2.873,-2.89,-2.8837,-2.8822,-2.8831,-2.8846,-2.8753,-2.8808,-2.8973,-2.8988,-2.893,-2.8944,-2.893,-2.893,-2.8915,-2.893,-2.8944,-2.9032,-2.9017,-2.9134,-2.9237,-2.9325,-2.9325,-2.9134,-2.9017,-2.9295,-2.9515,-2.9544,-2.9471,-2.9237,-2.8959,-2.8783,-2.871,-2.8783,-2.8812,-2.8886,-2.8886,-2.8886,-2.8886,-2.8886,-2.8886,-2.8886,-2.8886,-2.8856,-2.8886,-2.8886,-2.8886,-2.8827,-2.8725,-2.8564,-2.8373,-2.8008,-2.7569,-2.7408,-2.7291,-2.8691,-2.893,-2.9844,-3.0195,-3.0197,-3.0199,-3.0157,-2.9981,-2.9568,-2.9272,-2.9213,-2.9112,-2.8975,-2.9085,-2.9457,-2.9739,-2.9956,-3.0185,-3.0388,-2.9983,-2.9595,-2.9177,-2.8933,-2.8691,-2.8535,-2.8793,-2.9147,-2.9574,-2.9471,-2.939,-2.9358,-2.9558,-3.0008,-3.0426,-2.9897,-3.0236,-3.009,-2.9638,-2.8945,-2.8258,-2.7894,-2.7644,-2.7525,-2.7525,-2.751,-2.7598,-2.773,-2.7949,-2.8066,-2.8271,-2.852,-2.8695,-2.871,-2.8812,-2.8886,-2.8886,-2.8886,-2.8886,-2.8886,-2.89,-2.8915,-2.8973,-2.9061,-2.9251,-2.9369,-2.9412,-2.9325,-2.9178,-2.9178,-2.9105,-2.8959,-2.89,-2.9017,-2.9061,-2.9061,-2.9208,-2.9251,-2.9193,-2.9251,-2.9398,-2.9559,-2.9661,-2.9749,-2.9661,-2.9603,-2.9822,-2.9983,-2.9998,-2.9822,-2.9544,-2.9222,-2.8886,-2.8856,-2.8871,-2.8871,-2.8886,-2.8886,-2.8886,-2.8886,-2.8886,-2.8886,-2.8886,-2.8886,-2.8886,-2.8886,-2.8886,-2.8886,-2.8856,-2.8798,-2.8681,-2.8549,-2.8227,-2.7891,-2.7525,-2.7378,-2.8476,-2.8848,-2.9687,-3.0039,-3.0041,-3.02,-3.0139,-2.9887,-2.9471,-2.9272,-2.9153,-2.9053,-2.903,-2.9177,-2.947,-2.9794,-3.02,-3.0266,-3.0484,-3.0421,-3.0069,-2.9646,-2.957,-2.9325,-2.9379,-2.945,-3.0265,-3.0593,-3.056,-3.0493,-3.046,-3.0693,-3.1051,-3.1296,-3.1364,-3.1149,-3.0733,-2.9817,-2.909,-2.8607,-2.8282,-2.8028,-2.7891,-2.7844,-2.7874,-2.7917,-2.802,-2.8256,-2.8403,-2.8593,-2.8725,-2.8842,-2.8856,-2.8871,-2.8886,-2.8915,-2.8973,-2.8988,-2.8973,-2.8973,-2.9032,-2.9178,-2.931,-2.9573,-2.9829,-2.9932,-2.9793,-2.9515,-2.95,-2.9369,-2.9208,-2.9164,-2.9295,-2.9369,-2.9339,-2.9544,-2.969,-2.9588,-2.9529,-2.9647,-2.9822,-3.0123,-3.0115,-3.0144,-3.0217,-3.0393,-3.0451,-3.0504,-3.0255,-2.9837,-2.9529,-2.9178,-2.9076,-2.9017,-2.89,-2.89,-2.89,-2.8886,-2.8886,-2.8886,-2.8886,-2.8886,-2.8886,-2.8886,-2.8886,-2.8886,-2.8886,-2.8886,-2.8886,-2.8783,-2.8681,-2.8564,-2.8271,-2.7847,-2.7408,-2.8301,-2.8398,-2.9258,-2.9609,-2.9651,-2.9813,-2.987,-2.9737,-2.926,-2.9213,-2.9331,-2.919,-2.9232,-2.947,-2.9672,-2.9952,-3.0311,-3.0341,-3.0246,-3.0018,-2.9693,-2.9993,-3.014,-3.0339,-3.0539,-3.1051,-3.1257,-3.1344,-3.1469,-3.1253,-3.1381,-3.1559,-3.1466,-3.1328,-3.1073,-3.0893,-3.0324,-2.9544,-2.8986,-2.8582,-2.8221,-2.8008,-2.8037,-2.7947,-2.7932,-2.8005,-2.8297,-2.8461,-2.8578,-2.8798,-2.8856,-2.8886,-2.8886,-2.8886,-2.8886,-2.893,-2.9076,-2.9105,-2.9105,-2.9251,-2.9486,-2.969,-2.9822,-2.9881,-3.0027,-2.9925,-2.9851,-2.9851,-2.9837,-2.9859,-2.9829,-2.9778,-2.969,-2.9734,-2.972,-2.9807,-2.9925,-2.991,-2.9866,-2.9925,-3.0086,-3.032,-3.0437,-3.0451,-3.0466,-3.0612,-3.0627,-3.0598,-3.049,-3.01,-2.9837,-2.9559,-2.9383,-2.9208,-2.8959,-2.8915,-2.89,-2.8886,-2.8886,-2.8886,-2.8886,-2.8886,-2.8886,-2.8886,-2.8886,-2.8886,-2.8886,-2.8886,-2.8886,-2.8886,-2.8812,-2.8637,-2.8344,-2.7905,-2.7466,-2.8437,-2.8711,-2.8898,-2.9058,-2.9273,-2.947,-2.9581,-2.9578,-2.9375,-2.9213,-2.919,-2.9292,-2.9434,-2.9654,-3.0149,-3.0273,-3.0374,-3.0858,-3.076,-3.0798,-3.0857,-3.1027,-3.1162,-3.1087,-3.133,-3.1557,-3.1551,-3.1561,-3.1524,-3.1498,-3.1359,-3.127,-3.1392,-3.1459,-3.1158,-3.0323,-2.9626,-2.9258,-2.8837,-2.847,-2.8362,-2.8447,-2.8534,-2.8534,-2.8534,-2.8578,-2.8695,-2.871,-2.8798,-2.8856,-2.89,-2.89,-2.8915,-2.8915,-2.8886,-2.8915,-2.9076,-2.9222,-2.9442,-2.9588,-2.9822,-3.0152,-3.0255,-3.0232,-3.0349,-3.0422,-3.032,-3.0261,-3.024,-3.0211,-2.9976,-2.9947,-2.9961,-3.0108,-3.0115,-3.0144,-3.0188,-3.0188,-3.0232,-3.029,-3.0437,-3.0642,-3.07,-3.0729,-3.0759,-3.0803,-3.0788,-3.0744,-3.0539,-3.0378,-3.0115,-2.9807,-2.9603,-2.9412,-2.9164,-2.9032,-2.89,-2.8886,-2.8886,-2.8886,-2.8886,-2.8886,-2.8886,-2.8886,-2.8886,-2.8886,-2.8886,-2.8886,-2.8886,-2.8886,-2.8798,-2.8666,-2.833,-2.7978,-2.7598,-2.8296,-2.8404,-2.8077,-2.8401,-2.9029,-2.9165,-2.9216,-2.9303,-2.9335,-2.9305,-2.9177,-2.9452,-2.9806,-3.01,-3.0461,-3.0929,-3.0918,-3.1217,-3.1501,-3.1522,-3.1565,-3.1722,-3.1755,-3.1647,-3.1344,-3.1463,-3.138,-3.1348,-3.1297,-3.1342,-3.1146,-3.1014,-3.1007,-3.0949,-3.0605,-2.9844,-2.9033,-2.8972,-2.8801,-2.8564,-2.8608,-2.8739,-2.8856,-2.8842,-2.8827,-2.8827,-2.8842,-2.8856,-2.893,-2.8973,-2.8988,-2.8959,-2.8973,-2.8959,-2.89,-2.8944,-2.9105,-2.9369,-2.9632,-3.0056,-3.0217,-3.0451,-3.0495,-3.0612,-3.0759,-3.0817,-3.0642,-3.0539,-3.0481,-3.0378,-3.0129,-3.0232,-3.029,-3.0437,-3.0393,-3.0422,-3.0525,-3.0554,-3.0612,-3.0685,-3.0773,-3.0788,-3.0788,-3.0788,-3.0803,-3.0817,-3.0817,-3.0773,-3.0685,-3.0525,-3.0393,-3.0086,-2.9859,-2.9573,-2.9369,-2.9134,-2.8915,-2.8886,-2.8886,-2.8886,-2.8886,-2.8886,-2.8886,-2.8886,-2.8886,-2.8886,-2.8886,-2.8886,-2.8886,-2.8886,-2.8798,-2.8725,-2.8476,-2.8139,-2.7788,-2.7764,-2.7387,-2.6918,-2.7658,-2.8973,-2.8878,-2.8795,-2.8886,-2.9006,-2.9237,-2.9549,-2.9599,-3.0039,-3.0571,-3.0782,-3.1075,-3.1425,-3.1466,-3.1555,-3.1684,-3.153,-3.1578,-3.1452,-3.1307,-3.1191,-3.1354,-3.1191,-3.1023,-3.0924,-3.0846,-3.0766,-3.0458,-3.0155,-3.0062,-2.9738,-2.9245,-2.9026,-2.8968,-2.892,-2.8827,-2.8827,-2.8871,-2.8886,-2.8886,-2.8886,-2.8886,-2.8886,-2.8973,-2.9076,-2.9208,-2.9061,-2.909,-2.9251,-2.9003,-2.89,-2.89,-2.9442,-2.9603,-2.9529,-3.0305,-3.0642,-3.0685,-3.0642,-3.0773,-3.0803,-3.0817,-3.0817,-3.07,-3.0729,-3.0759,-3.0744,-3.0744,-3.0729,-3.07,-3.0642,-3.0642,-3.0729,-3.0773,-3.0788,-3.0803,-3.0803,-3.0817,-3.0817,-3.0817,-3.0817,-3.0817,-3.0817,-3.0788,-3.0744,-3.0685,-3.0568,-3.0378,-3.0071,-2.9881,-2.9647,-2.9178,-2.8944,-2.8915,-2.8886,-2.8886,-2.8886,-2.8886,-2.8886,-2.8886,-2.8886,-2.8886,-2.8886,-2.8886,-2.8886,-2.8886,-2.8886,-2.8798,-2.8549,-2.83,-2.7949,-2.7476,-2.7406,-2.7306,-2.7735,-2.8389,-2.7969,-2.8202,-2.8855,-2.8998,-2.9273,-2.958,-2.9837,-3.0259,-3.0727,-3.1037,-3.1204,-3.1246,-3.1537,-3.1564,-3.1028,-3.1177,-3.1216,-3.1119,-3.1076,-3.1059,-3.1023,-3.094,-3.0639,-3.0454,-3.0293,-2.9946,-2.9561,-2.913,-2.8975,-2.9239,-2.9174,-2.889,-2.8871,-2.8886,-2.8886,-2.8886,-2.8886,-2.8886,-2.8886,-2.8886,-2.8886,-2.8915,-2.9047,-2.9251,-2.9383,-2.9222,-2.9266,-2.9325,-2.909,-2.8915,-2.8973,-2.9369,-2.972,-2.9968,-3.0525,-3.0671,-3.0656,-3.0715,-3.0817,-3.0817,-3.0817,-3.0817,-3.0817,-3.0817,-3.0817,-3.0803,-3.0803,-3.0788,-3.0788,-3.0759,-3.0759,-3.0803,-3.0803,-3.0817,-3.0817,-3.0817,-3.0817,-3.0817,-3.0817,-3.0817,-3.0817,-3.0817,-3.0817,-3.0788,-3.0788,-3.0729,-3.0627,-3.0422,-3.0232,-2.9954,-2.95,-2.9193,-2.9149,-2.9017,-2.8886,-2.8886,-2.8886,-2.8886,-2.8886,-2.8886,-2.8886,-2.8886,-2.8886,-2.8886,-2.8886,-2.8886,-2.8812,-2.8593,-2.8373,-2.811,-2.73,-2.736,-2.729,-2.7602,-2.7987,-2.7812,-2.8155,-2.882,-2.9062,-2.9415,-2.9635,-2.9912,-3.0248,-3.0591,-3.0853,-3.1136,-3.0976,-3.1285,-3.1566,-3.0973,-3.0929,-3.1124,-3.1071,-3.0802,-3.0681,-3.0665,-3.0335,-2.996,-2.9732,-2.9559,-2.909,-2.8466,-2.7947,-2.8296,-2.87,-2.8793,-2.8637,-2.8666,-2.8744,-2.8886,-2.8886,-2.8886,-2.8886,-2.8886,-2.8886,-2.8886,-2.8973,-2.9178,-2.9442,-2.9486,-2.9471,-2.9456,-2.9398,-2.9266,-2.9076,-2.9149,-2.9515,-2.991,-3.029,-3.0612,-3.0656,-3.0519,-3.0656,-3.0803,-3.0817,-3.0817,-3.0817,-3.0817,-3.0817,-3.0817,-3.0817,-3.0817,-3.0817,-3.0817,-3.0817,-3.0817,-3.0817,-3.0817,-3.0817,-3.0817,-3.0817,-3.0817,-3.0817,-3.0817,-3.0817,-3.0817,-3.0817,-3.0817,-3.0817,-3.0817,-3.0817,-3.0729,-3.0598,-3.0378,-3.0144,-2.9837,-2.9573,-2.9398,-2.9208,-2.9017,-2.8886,-2.8886,-2.8886,-2.8886,-2.8886,-2.8886,-2.8886,-2.8886,-2.8886,-2.8886,-2.8886,-2.8783,-2.8608,-2.8476,-2.833,-2.7086,-2.716,-2.6899,-2.7257,-2.793,-2.8272,-2.8469,-2.8612,-2.9216,-2.9537,-2.9671,-2.9717,-2.9963,-3.0278,-3.0373,-3.0589,-3.087,-3.1219,-3.1444,-3.1492,-3.1047,-3.1136,-3.0865,-3.043,-3.0315,-3.0153,-2.9793,-2.9254,-2.8856,-2.8495,-2.804,-2.7726,-2.7476,-2.7712,-2.804,-2.8275,-2.8353,-2.8588,-2.8744,-2.8886,-2.8886,-2.8886,-2.893,-2.8959,-2.8988,-2.9032,-2.9149,-2.9369,-2.9632,-2.9705,-2.9632,-2.9771,-2.9661,-2.9559,-2.9456,-2.9573,-3.0027,-3.0313,-3.051,-3.0803,-3.0744,-3.0598,-3.0685,-3.0788,-3.0817,-3.0817,-3.0817,-3.0817,-3.0817,-3.0817,-3.0817,-3.0817,-3.0817,-3.0817,-3.0817,-3.0817,-3.0817,-3.0817,-3.0817,-3.0817,-3.0817,-3.0817,-3.0817,-3.0817,-3.0817,-3.0817,-3.0817,-3.0817,-3.0817,-3.0817,-3.0817,-3.0788,-3.0642,-3.0466,-3.0246,-3.0086,-3.002,-2.9749,-2.9427,-2.9222,-2.9061,-2.8915,-2.8886,-2.8886,-2.8886,-2.8886,-2.8886,-2.8886,-2.8886,-2.8886,-2.8886,-2.8871,-2.8739,-2.8769,-2.8651,-2.7179,-2.7233,-2.7687,-2.8053,-2.829,-2.8623,-2.8824,-2.8851,-2.8671,-2.8879,-2.9707,-2.9707,-2.9813,-2.997,-3.0024,-3.0271,-3.0514,-3.0685,-3.078,-3.0718,-3.0655,-3.0638,-3.0405,-2.9965,-2.9864,-2.961,-2.9204,-2.8535,-2.7997,-2.7569,-2.7412,-2.7175,-2.7018,-2.7175,-2.749,-2.7726,-2.8197,-2.8681,-2.8915,-2.9022,-2.9022,-2.9037,-2.914,-2.9257,-2.9237,-2.931,-2.9529,-2.9822,-3.0071,-3.01,-3.0196,-3.024,-3.024,-2.9925,-2.9778,-3.0056,-3.0401,-3.0592,-3.089,-3.089,-3.0832,-3.0846,-3.0876,-3.0803,-3.0817,-3.0817,-3.0817,-3.0817,-3.0817,-3.0817,-3.0817,-3.0817,-3.0861,-3.0905,-3.089,-3.0876,-3.0876,-3.0876,-3.0861,-3.0817,-3.0817,-3.0817,-3.0817,-3.0817,-3.0817,-3.0817,-3.0832,-3.0846,-3.0817,-3.0817,-3.0817,-3.0803,-3.0759,-3.0598,-3.0539,-3.0407,-3.0261,-3.0167,-2.9764,-2.9456,-2.9237,-2.909,-2.8959,-2.8886,-2.8886,-2.8886,-2.8886,-2.8886,-2.8886,-2.8964,-2.8964,-2.8886,-2.8886,-2.8964,-2.892,-2.7326,-2.749,-2.8113,-2.848,-2.8586,-2.8587,-2.881,-2.9088,-2.886,-2.9048,-2.9295,-2.9381,-2.9418,-2.9382,-2.9294,-2.9463,-2.9969,-3.0201,-3.043,-3.0643,-2.9997,-2.9849,-2.9671,-2.9181,-2.8821,-2.867,-2.8374,-2.7776,-2.7412,-2.7018,-2.6781,-2.6781,-2.6544,-2.7018,-2.749,-2.7961,-2.8495,-2.9022,-2.9409,-2.939,-2.9355,-2.9414,-2.965,-2.9674,-2.9718,-2.9785,-2.9881,-3.0284,-3.0416,-3.0431,-3.0431,-3.0431,-3.0416,-3.024,-3.0203,-3.0451,-3.0554,-3.0715,-3.0934,-3.0905,-3.0964,-3.1022,-3.0949,-3.0861,-3.0817,-3.0817,-3.0817,-3.0817,-3.0817,-3.0817,-3.0817,-3.0832,-3.092,-3.1007,-3.0993,-3.0964,-3.0949,-3.0934,-3.089,-3.0832,-3.0817,-3.0817,-3.0817,-3.0817,-3.0832,-3.0861,-3.092,-3.0964,-3.0905,-3.0817,-3.0817,-3.0817,-3.0817,-3.0759,-3.0715,-3.0642,-3.0495,-3.032,-3.0211,-2.9807,-2.9515,-2.9251,-2.912,-2.8988,-2.8886,-2.8886,-2.8886,-2.8964,-2.8964,-2.9042,-2.9353,-2.9586,-2.9508,-2.9197,-2.9046,-2.7435,-2.7858,-2.826,-2.8663,-2.8897,-2.8439,-2.8655,-2.9477,-2.9534,-2.9385,-2.8973,-2.885,-2.8937,-2.889,-2.861,-2.8804,-2.9286,-2.9649,-2.9942,-3.0693,-2.9568,-2.9013,-2.8605,-2.8013,-2.7926,-2.7677,-2.7607,-2.7726,-2.7333,-2.7175,-2.7097,-2.6623,-2.7097,-2.7675,-2.8375,-2.8547,-2.914,-2.9994,-3.0239,-3.0295,-3.0106,-3.0271,-3.0459,-3.0394,-3.0152,-3.0035,-3.0042,-3.0203,-3.0393,-3.0393,-3.0407,-3.0422,-3.0422,-3.0422,-3.0583,-3.0671,-3.0744,-3.0861,-3.0934,-3.0905,-3.089,-3.0905,-3.0846,-3.089,-3.0905,-3.0846,-3.0832,-3.0817,-3.0817,-3.0817,-3.0817,-3.0934,-3.1051,-3.111,-3.1124,-3.1168,-3.1212,-3.1198,-3.1139,-3.1081,-3.0993,-3.0964,-3.0817,-3.0832,-3.092,-3.0934,-3.1022,-3.1095,-3.1095,-3.0978,-3.0861,-3.0861,-3.0934,-3.0934,-3.0803,-3.0729,-3.0656,-3.051,-3.0349,-3.0225,-2.9822,-2.9529,-2.9266,-2.9134,-2.9003,-2.8915,-2.8886,-2.8964,-2.9197,-2.9664,-2.9974,-3.0438,-3.0361,-2.9974,-2.9789,-2.773,-2.7895,-2.8535,-2.8902,-2.8975,-2.8856,-2.8733,-2.8824,-2.9447,-2.978,-2.9793,-2.9371,-2.9036,-2.8741,-2.8129,-2.8302,-2.8891,-2.9151,-2.9109,-2.925,-2.8763,-2.8225,-2.797,-2.7473,-2.7335,-2.7494,-2.7685,-2.804,-2.8118,-2.8197,-2.8275,-2.8289,-2.8411,-2.8826,-2.9473,-2.9567,-3.0051,-3.0928,-3.1235,-3.0915,-3.0291,-3.039,-3.0519,-3.0455,-3.0328,-3.0364,-3.0466,-3.0612,-3.07,-3.0715,-3.0715,-3.0715,-3.0715,-3.0715,-3.0744,-3.0803,-3.089,-3.1022,-3.1066,-3.1022,-3.0978,-3.1022,-3.1037,-3.1066,-3.1022,-3.0905,-3.0846,-3.0861,-3.0861,-3.0876,-3.092,-3.1066,-3.1212,-3.1256,-3.1285,-3.1388,-3.149,-3.1446,-3.1402,-3.1315,-3.1212,-3.1066,-3.0905,-3.0905,-3.0978,-3.1081,-3.1198,-3.1285,-3.1388,-3.1315,-3.0993,-3.0978,-3.111,-3.1095,-3.0934,-3.0803,-3.0729,-3.0656,-3.051,-3.0305,-3.0181,-2.969,-2.931,-2.9222,-2.912,-2.9145,-2.9119,-2.8964,-2.9275,-3.0206,-3.0593,-3.1055,-3.1379,-3.1148,-3.0994,-2.7822,-2.7932,-2.8704,-2.8975,-2.8975,-2.8975,-2.9083,-2.9285,-2.9599,-3.0014,-3.0327,-2.9587,-2.8971,-2.8692,-2.8012,-2.8067,-2.8631,-2.8841,-2.8892,-2.8725,-2.8103,-2.7452,-2.7155,-2.7112,-2.7183,-2.734,-2.8181,-2.8666,-2.9086,-2.9076,-2.9056,-2.9292,-2.9444,-2.9923,-3.0434,-3.0639,-3.0938,-3.1696,-3.2133,-3.1638,-3.0706,-3.1007,-3.107,-3.1033,-3.0763,-3.0783,-3.0729,-3.0817,-3.0817,-3.0817,-3.0803,-3.0803,-3.0846,-3.0949,-3.1022,-3.111,-3.1198,-3.1329,-3.1359,-3.1271,-3.1124,-3.1168,-3.1212,-3.1212,-3.1256,-3.1183,-3.1359,-3.1373,-3.1373,-3.1373,-3.1373,-3.149,-3.1651,-3.1754,-3.1651,-3.1622,-3.1666,-3.1651,-3.1622,-3.1578,-3.1417,-3.1183,-3.1095,-3.1154,-3.1256,-3.1446,-3.152,-3.1402,-3.1505,-3.1549,-3.1242,-3.1037,-3.1124,-3.1095,-3.089,-3.0817,-3.0803,-3.0715,-3.0642,-3.0563,-3.0328,-2.9815,-2.9339,-2.9577,-2.9695,-2.9583,-2.9508,-2.9676,-3.0392,-3.1363,-3.1593,-3.167,-3.1932,-3.2397,-3.232,-2.7803,-2.8005,-2.8663,-2.8975,-2.8975,-2.8975,-2.93,-2.9824,-2.9759,-3.005,-3.0352,-2.9344,-2.8905,-2.856,-2.8172,-2.8325,-2.8371,-2.8395,-2.8506,-2.8125,-2.7537,-2.7291,-2.7049,-2.6928,-2.7435,-2.8072,-2.8856,-2.9271,-2.9643,-2.9882,-3.0171,-2.9977,-3.038,-3.0991,-3.1262,-3.1327,-3.1567,-3.1947,-3.2165,-3.1868,-3.1859,-3.1909,-3.1655,-3.1384,-3.1081,-3.0817,-3.0817,-3.0817,-3.0817,-3.0817,-3.0817,-3.0817,-3.0861,-3.0993,-3.1081,-3.1168,-3.1373,-3.152,-3.1607,-3.1476,-3.1373,-3.1329,-3.1344,-3.1402,-3.1461,-3.1607,-3.1768,-3.1827,-3.1827,-3.1768,-3.1768,-3.1856,-3.2017,-3.2076,-3.1944,-3.1915,-3.1929,-3.19,-3.1856,-3.1827,-3.1578,-3.1329,-3.1373,-3.1432,-3.152,-3.171,-3.1724,-3.1607,-3.152,-3.1476,-3.1315,-3.1095,-3.1007,-3.0934,-3.0832,-3.0817,-3.0817,-3.0803,-3.0715,-3.0695,-3.0639,-3.0635,-3.048,-3.0355,-3.0348,-3.0482,-3.0685,-3.0949,-3.1772,-3.2462,-3.2516,-3.263,-3.3309,-3.365,-3.3763,-2.7691,-2.8315,-2.8792,-2.8975,-2.8975,-2.8975,-2.8966,-2.8962,-2.9498,-2.9672,-2.9552,-2.9466,-2.9102,-2.879,-2.8425,-2.8136,-2.7788,-2.7888,-2.7681,-2.7215,-2.7467,-2.7408,-2.7463,-2.7839,-2.8615,-2.9404,-3.0,-3.0589,-3.0776,-3.1306,-3.1761,-3.1697,-3.1697,-3.206,-3.2375,-3.2216,-3.166,-3.1991,-3.1953,-3.1671,-3.1517,-3.1534,-3.155,-3.1248,-3.0832,-3.0817,-3.0817,-3.0817,-3.0817,-3.0817,-3.0817,-3.09,-3.0876,-3.1032,-3.1106,-3.1154,-3.1373,-3.1549,-3.1578,-3.1622,-3.1563,-3.149,-3.1563,-3.171,-3.1827,-3.2002,-3.2105,-3.2134,-3.2076,-3.19,-3.19,-3.2076,-3.2222,-3.2149,-3.2032,-3.228,-3.2427,-3.2266,-3.2134,-3.1944,-3.1695,-3.1622,-3.1681,-3.1666,-3.1549,-3.1681,-3.1666,-3.1593,-3.171,-3.1563,-3.1373,-3.1168,-3.0949,-3.0876,-3.0817,-3.0817,-3.0817,-3.0817,-3.0969,-3.1377,-3.1726,-3.191,-3.1838,-3.1551,-3.1588,-3.1716,-3.1983,-3.225,-3.2722,-3.3314,-3.3446,-3.3669,-3.4399,-3.4685,-3.4624]},{"header":{"parameterUnit":"m.s-1","parameterCategory":1,"la1":31.0,"la2":29.5877,"lo1":-88.7671,"lo2":-86.6584,"dy":0.0162,"dx":0.0185,"nx":115,"ny":88,"refTime":"2023-02-27T18:00:00:Z","depth":0,"parameterNumber":3,"parameterNumberName":"V-component_of_WINDS"},"data":[0.0,0.0,0.0,0.0,0.0,0.0,0.0,0.0,0.0,0.0,0.0,0.0,0.0,0.0,0.0,0.0,0.0,0.0,0.0,0.0,0.0,0.0,0.0,0.0,0.0,0.0,0.0,0.0,0.0,0.0,0.0,0.0,0.0,0.0,0.0,0.0,0.0,0.0,0.0,0.0,0.0,0.0,0.0,0.0,0.0,0.0,0.0,0.0,0.0,0.0,0.0,0.0,0.0,0.0,0.0,0.0,0.0,0.0,0.0,0.0,0.0,0.0,0.0,0.0,0.0,0.0,0.0,0.0,0.0,0.0,0.0,0.0,0.0,0.0,0.0,0.0,0.0,0.0,0.0,0.0,0.0,0.0,0.0,0.0,0.0,0.0,0.0,0.0,0.0,0.0,0.0,0.0,0.0,0.0,0.0,0.0,0.0,0.0,0.0,0.0,0.0,0.0,0.0,0.0,0.0,0.0,0.0,0.0,0.0,0.0,0.0,0.0,0.0,0.0,0.0,0.0,0.0,0.0,0.0,0.0,0.0,0.0,0.0,0.0,0.0,0.0,0.0,0.0,0.0,0.0,0.0,0.0,0.0,0.0,0.0,0.0,0.0,0.0,0.0,0.0,0.0,0.0,0.0,0.0,0.0,0.0,0.0,0.0,0.0,0.0,0.0,0.0,0.0,0.0,0.0,0.0,0.0,0.0,0.0,0.0,0.0,0.0,0.0,0.0,0.0,0.0,0.0,0.0,0.0,0.0,0.0,0.0,0.0,0.0,0.0,0.0,0.0,0.0,0.0,0.0,0.0,0.0,0.0,0.0,0.0,0.0,0.0,0.0,0.0,0.0,0.0,0.0,0.0,0.0,0.0,0.0,0.0,0.0,0.0,0.0,0.0,0.0,0.0,0.0,0.0,0.0,0.0,0.0,0.0,0.0,0.0,0.0,0.0,0.0,0.0,0.0,0.0,0.0,0.0,0.0,0.0,0.0,0.0,0.0,0.0,0.0,0.0,0.0,0.0,0.0,0.0,0.0,0.0,0.0,0.0,0.0,0.0,0.0,0.0,0.0,0.0,0.0,0.0,0.0,0.0,0.0,0.0,0.0,0.0,0.0,0.0,0.0,0.0,0.0,0.0,0.0,0.0,0.0,0.0,0.0,0.0,0.0,0.0,0.0,0.0,0.0,0.0,0.0,0.0,0.0,0.0,0.0,0.0,0.0,0.0,0.0,0.0,0.0,0.0,0.0,0.0,0.0,0.0,0.0,0.0,0.0,0.0,0.0,0.0,0.0,0.0,0.0,0.0,0.0,0.0,0.0,0.0,0.0,0.0,0.0,0.0,0.0,0.0,0.0,0.0,0.0,0.0,0.0,0.0,0.0,0.0,0.0,0.0,0.0,0.0,0.0,0.0,0.0,0.0,0.0,0.0,0.0,0.0,0.0,0.0,0.0,0.0,0.0,0.0,0.0,0.0,0.0,0.0,0.0,0.0,0.0,0.0,0.0,0.0,0.0,0.0,0.0,0.0,0.0,0.0,0.0,0.0,0.0,0.0,0.0,0.0,0.0,0.0,0.0,0.0,0.0,0.0,0.0,0.0,0.0,0.0,0.0,0.0,0.0,0.0,0.0,0.0,0.0,0.0,0.0,0.0,0.0,0.0,0.0,0.0,0.0,0.0,0.0,0.0,0.0,0.0,0.0,0.0,0.0,0.0,0.0,0.0,0.0,0.0,0.0,0.0,0.0,0.0,0.0,0.0,0.0,0.0,0.0,0.0,0.0,0.0,0.0,0.0,0.0,0.0,0.0,0.0,0.0,0.0,0.0,0.0,0.0,0.0,0.0,0.0,0.0,0.0,0.0,0.0,0.0,0.0,0.0,0.0,0.0,0.0,0.0,0.0,0.0,0.0,0.0,0.0,0.0,0.0,0.0,0.0,0.0,0.0,0.0,0.0,0.0,0.0,0.0,0.0,0.0,0.0,0.0,0.0,0.0,0.0,0.0,0.0,0.0,0.0,0.0,0.0,0.0,0.0,0.0,0.0,0.0,0.0,0.0,0.0,0.0,0.0,0.0,0.0,0.0,0.0,0.0,0.0,0.0,0.0,0.0,0.0,0.0,0.0,0.0,0.0,0.0,0.0,0.0,0.0,0.0,0.0,0.0,0.0,0.0,0.0,0.0,0.0,0.0,0.0,0.0,0.0,0.0,0.0,0.0,0.0,0.0,0.0,0.0,0.0,0.0,0.0,0.0,0.0,0.0,0.0,0.0,0.0,0.0,0.0,0.0,0.0,0.0,0.0,0.0,0.0,0.0,0.0,0.0,0.0,0.0,0.0,0.0,0.0,0.0,0.0,0.0,0.0,0.0,0.0,0.0,0.0,0.0,0.0,0.0,0.0,0.0,0.0,0.0,0.0,0.0,0.0,0.0,0.0,0.0,0.0,0.0,0.0,0.0,0.0,0.0,0.0,0.0,0.0,0.0,0.0,0.0,0.0,0.0,0.0,0.0,0.0,0.0,0.0,0.0,0.0,0.0,0.0,0.0,0.0,0.0,0.0,0.0,0.0,0.0,0.0,0.0,0.0,0.0,0.0,0.0,0.0,0.0,0.0,0.0,0.0,0.0,0.0,0.0,0.0,0.0,0.0,0.0,0.0,0.0,0.0,0.0,0.0,0.0,0.0,0.0,0.0,0.0,0.0,0.0,0.0,0.0,0.0,0.0,0.0,0.0,0.0,0.0,0.0,0.0,0.0,0.0,0.0,0.0,0.0,0.0,0.0,0.0,0.0,0.0,0.0,0.0,0.0,0.0,0.0,0.0,0.0,0.0,0.0,0.0,0.0,0.0,0.0,0.0,0.0,0.0,0.0,0.0,0.0,0.0,0.0,0.0,0.0,0.0,0.0,0.0,0.0,0.0,0.0,0.0,0.0,0.0,0.0,0.0,0.0,0.0,0.0,0.0,0.0,0.0,0.0,0.0,0.0,0.0,0.0,0.0,0.0,0.0,0.0,0.0,0.0,0.0,0.0,0.0,0.0,0.0,0.0,0.0,0.0,0.0,0.0,0.0,0.0,0.0,0.0,0.0,0.0,0.0,0.0,0.0,0.0,0.0,0.0,0.0,0.0,0.0,0.0,0.0,0.0,0.0,0.0,0.0,0.0,0.0,0.0,0.0,0.0,0.0,0.0,0.0,0.0,0.0,0.0,0.0,0.0,0.0,0.0,0.0,0.0,0.0,0.0,0.0,0.0,0.0,0.0,0.0,0.0,0.0,0.0,0.0,0.0,0.0,0.0,0.0,0.0,0.0,0.0,0.0,0.0,0.0,0.0,0.0,0.0,0.0,0.0,0.0,0.0,0.0,0.0,0.0,0.0,0.0,0.0,0.0,0.0,0.0,0.0,0.0,0.0,0.0,0.0,0.0,0.0,0.0,0.0,0.0,0.0,0.0,0.0,0.0,0.0,0.0,0.0,0.0,0.0,0.0,0.0,0.0,0.0,0.0,0.0,0.0,0.0,0.0,0.0,0.0,0.0,0.0,0.0,0.0,0.0,0.0,0.0,0.0,0.0,0.0,0.0,0.0,0.0,0.0,0.0,0.0,0.0,0.0,0.0,0.0,0.0,0.0,0.0,0.0,0.0,0.0,0.0,0.0,0.0,0.0,0.0,0.0,0.0,0.0,0.0,0.0,0.0,0.0,0.0,0.0,0.0,0.0,0.0,0.0,0.0,0.0,0.0,0.0,0.0,0.0,0.0,0.0,0.0,0.0,0.0,0.0,0.0,0.0,0.0,0.0,0.0,0.0,0.0,0.0,0.0,0.0,0.0,0.0,0.0,0.0,0.0,0.0,0.0,0.0,0.0,0.0,0.0,0.0,0.0,0.0,0.0,0.0,0.0,0.0,0.0,0.0,0.0,0.0,0.0,0.0,0.0,0.0,0.0,0.0,0.0,0.0,0.0,0.0,0.0,0.0,0.0,0.0,0.0,0.0,0.0,0.0,0.0,0.0,0.0,0.0,0.0,0.0,0.0,0.0,0.0,0.0,0.0,0.0,0.0,0.0,0.0,0.0,0.0,0.0,0.0,0.0,0.0,0.0,0.0,0.0,0.0,0.0,0.0,0.0,0.0,0.0,0.0,0.0,0.0,0.0,0.0,0.0,0.0,0.0,0.0,0.0,0.0,0.0,0.0,0.0,0.0,0.0,0.0,0.0,0.0,0.0,0.0,0.0,0.0,0.0,0.0,0.0,0.0,0.0,0.0,0.0,0.0,0.0,0.0,0.0,0.0,0.0,-3.4831,0.0,0.0,0.0,0.0,0.0,0.0,0.0,0.0,0.0,0.0,0.0,0.0,0.0,0.0,0.0,0.0,0.0,0.0,0.0,0.0,0.0,0.0,0.0,0.0,0.0,0.0,0.0,0.0,0.0,0.0,0.0,0.0,0.0,0.0,0.0,0.0,0.0,0.0,0.0,0.0,0.0,0.0,0.0,0.0,0.0,0.0,0.0,0.0,0.0,0.0,0.0,0.0,0.0,0.0,0.0,0.0,0.0,0.0,0.0,0.0,0.0,0.0,0.0,0.0,0.0,0.0,0.0,0.0,0.0,0.0,0.0,0.0,0.0,0.0,0.0,0.0,0.0,0.0,0.0,0.0,0.0,0.0,0.0,0.0,0.0,0.0,0.0,0.0,0.0,0.0,0.0,0.0,0.0,0.0,0.0,0.0,0.0,0.0,0.0,0.0,0.0,0.0,0.0,0.0,0.0,0.0,0.0,0.0,0.0,0.0,-3.3006,-3.4921,-3.3066,-3.3065,-3.537,0.0,0.0,0.0,0.0,0.0,0.0,0.0,0.0,0.0,0.0,0.0,0.0,0.0,0.0,0.0,0.0,0.0,0.0,0.0,0.0,0.0,0.0,0.0,0.0,0.0,0.0,0.0,0.0,0.0,0.0,0.0,0.0,0.0,0.0,0.0,0.0,0.0,0.0,0.0,0.0,0.0,0.0,0.0,0.0,0.0,0.0,0.0,0.0,0.0,0.0,0.0,0.0,0.0,0.0,0.0,0.0,0.0,0.0,0.0,0.0,0.0,0.0,0.0,0.0,0.0,0.0,0.0,0.0,0.0,0.0,0.0,0.0,0.0,0.0,0.0,0.0,0.0,0.0,0.0,0.0,0.0,0.0,0.0,0.0,0.0,0.0,0.0,0.0,0.0,0.0,0.0,0.0,0.0,0.0,0.0,0.0,0.0,0.0,0.0,0.0,0.0,0.0,0.0,0.0,0.0,0.0,0.0,0.0,0.0,0.0,0.0,0.0,-3.3275,-3.3125,-3.516,0.0,0.0,0.0,0.0,0.0,0.0,0.0,0.0,0.0,0.0,0.0,0.0,0.0,0.0,0.0,0.0,0.0,0.0,0.0,0.0,0.0,0.0,0.0,0.0,0.0,0.0,0.0,0.0,0.0,0.0,0.0,0.0,0.0,0.0,0.0,0.0,0.0,0.0,0.0,0.0,0.0,0.0,0.0,0.0,0.0,0.0,0.0,0.0,0.0,0.0,0.0,0.0,0.0,0.0,0.0,0.0,0.0,0.0,0.0,0.0,0.0,0.0,0.0,0.0,0.0,0.0,0.0,0.0,0.0,0.0,0.0,0.0,0.0,0.0,0.0,0.0,0.0,0.0,0.0,0.0,0.0,0.0,0.0,0.0,0.0,0.0,0.0,0.0,0.0,0.0,0.0,0.0,0.0,0.0,0.0,0.0,0.0,0.0,0.0,0.0,0.0,0.0,0.0,0.0,0.0,0.0,0.0,0.0,0.0,0.0,-3.504,-3.4623,-3.4354,0.0,-3.4623,0.0,0.0,0.0,0.0,0.0,0.0,0.0,0.0,0.0,0.0,0.0,0.0,0.0,0.0,0.0,0.0,0.0,0.0,0.0,0.0,0.0,0.0,0.0,0.0,0.0,0.0,0.0,0.0,0.0,0.0,0.0,0.0,0.0,0.0,0.0,0.0,0.0,0.0,0.0,0.0,0.0,0.0,0.0,0.0,0.0,0.0,0.0,0.0,0.0,0.0,0.0,0.0,0.0,0.0,0.0,0.0,0.0,0.0,0.0,0.0,0.0,0.0,0.0,0.0,0.0,0.0,0.0,0.0,0.0,0.0,0.0,0.0,0.0,0.0,0.0,0.0,0.0,0.0,0.0,0.0,0.0,0.0,0.0,0.0,0.0,0.0,0.0,0.0,0.0,0.0,0.0,0.0,0.0,0.0,0.0,0.0,0.0,0.0,0.0,0.0,0.0,0.0,0.0,0.0,0.0,0.0,0.0,0.0,0.0,0.0,-3.519,-3.4533,-3.4503,-3.4683,0.0,0.0,0.0,0.0,0.0,0.0,0.0,0.0,0.0,0.0,0.0,0.0,0.0,0.0,0.0,0.0,0.0,0.0,0.0,0.0,0.0,0.0,0.0,0.0,0.0,0.0,0.0,0.0,0.0,0.0,0.0,0.0,0.0,0.0,0.0,0.0,0.0,0.0,0.0,0.0,0.0,0.0,0.0,0.0,0.0,0.0,0.0,0.0,0.0,0.0,0.0,0.0,0.0,0.0,0.0,0.0,0.0,0.0,0.0,0.0,0.0,0.0,0.0,0.0,0.0,0.0,0.0,0.0,0.0,0.0,0.0,0.0,0.0,0.0,0.0,0.0,0.0,0.0,0.0,0.0,0.0,0.0,0.0,0.0,0.0,0.0,0.0,0.0,0.0,0.0,0.0,0.0,0.0,0.0,0.0,0.0,0.0,0.0,0.0,0.0,0.0,0.0,0.0,0.0,0.0,0.0,0.0,0.0,0.0,0.0,-3.4956,-3.4685,-3.4055,-3.4503,-3.4921,-3.522,0.0,0.0,0.0,0.0,0.0,0.0,0.0,0.0,0.0,0.0,0.0,0.0,0.0,0.0,0.0,0.0,0.0,0.0,0.0,0.0,0.0,0.0,0.0,0.0,0.0,0.0,0.0,0.0,0.0,0.0,0.0,0.0,0.0,0.0,0.0,0.0,0.0,0.0,0.0,0.0,0.0,0.0,0.0,0.0,0.0,0.0,0.0,0.0,0.0,0.0,0.0,0.0,0.0,0.0,0.0,0.0,0.0,0.0,0.0,0.0,0.0,0.0,0.0,0.0,0.0,0.0,0.0,0.0,0.0,0.0,0.0,0.0,0.0,0.0,0.0,0.0,0.0,0.0,0.0,0.0,0.0,0.0,0.0,0.0,0.0,0.0,0.0,0.0,0.0,0.0,0.0,0.0,0.0,0.0,0.0,0.0,0.0,0.0,0.0,0.0,0.0,0.0,0.0,0.0,0.0,0.0,0.0,0.0,-3.3505,-3.3668,-3.3487,-3.2855,-3.4505,-3.516,0.0,0.0,0.0,0.0,0.0,0.0,0.0,0.0,0.0,0.0,0.0,0.0,0.0,0.0,0.0,0.0,0.0,0.0,0.0,0.0,0.0,0.0,0.0,0.0,0.0,0.0,0.0,0.0,0.0,0.0,0.0,0.0,0.0,0.0,0.0,0.0,0.0,0.0,0.0,0.0,0.0,0.0,0.0,0.0,0.0,0.0,0.0,0.0,0.0,0.0,0.0,0.0,0.0,0.0,0.0,0.0,0.0,0.0,0.0,0.0,0.0,0.0,0.0,0.0,0.0,0.0,0.0,0.0,0.0,0.0,0.0,0.0,0.0,0.0,0.0,0.0,0.0,0.0,0.0,0.0,0.0,0.0,0.0,0.0,0.0,0.0,0.0,0.0,0.0,0.0,0.0,0.0,0.0,0.0,0.0,0.0,0.0,0.0,0.0,0.0,0.0,0.0,0.0,0.0,0.0,0.0,0.0,0.0,0.0,-3.4755,-3.4389,-3.3906,-3.3306,-3.4294,-3.4532,0.0,0.0,0.0,0.0,0.0,0.0,0.0,0.0,0.0,0.0,0.0,0.0,0.0,0.0,0.0,0.0,0.0,0.0,0.0,0.0,0.0,0.0,0.0,0.0,0.0,0.0,0.0,0.0,0.0,0.0,0.0,0.0,0.0,0.0,0.0,0.0,0.0,0.0,0.0,0.0,0.0,0.0,0.0,0.0,0.0,0.0,0.0,0.0,0.0,0.0,0.0,0.0,0.0,0.0,0.0,0.0,0.0,0.0,0.0,0.0,0.0,0.0,0.0,0.0,0.0,0.0,0.0,0.0,0.0,0.0,0.0,0.0,0.0,0.0,0.0,0.0,0.0,0.0,0.0,0.0,0.0,0.0,0.0,0.0,0.0,0.0,0.0,0.0,0.0,0.0,0.0,0.0,0.0,0.0,0.0,0.0,0.0,0.0,0.0,0.0,0.0,0.0,0.0,0.0,0.0,0.0,0.0,0.0,0.0,-3.4729,0.0,-3.3066,-3.3006,-3.3965,-3.4503,0.0,0.0,0.0,0.0,0.0,0.0,0.0,0.0,0.0,0.0,0.0,0.0,0.0,0.0,0.0,0.0,0.0,0.0,0.0,0.0,0.0,0.0,0.0,0.0,0.0,0.0,0.0,0.0,0.0,0.0,0.0,0.0,0.0,0.0,0.0,0.0,0.0,0.0,0.0,0.0,0.0,0.0,0.0,0.0,0.0,0.0,0.0,0.0,0.0,0.0,0.0,0.0,0.0,0.0,0.0,0.0,0.0,0.0,0.0,0.0,0.0,0.0,0.0,0.0,0.0,0.0,0.0,0.0,0.0,0.0,0.0,0.0,0.0,0.0,0.0,0.0,0.0,0.0,0.0,0.0,0.0,0.0,0.0,0.0,0.0,0.0,0.0,0.0,0.0,0.0,0.0,0.0,0.0,0.0,0.0,0.0,0.0,0.0,0.0,0.0,0.0,0.0,0.0,0.0,0.0,0.0,0.0,0.0,-3.6282,-3.3302,-3.1424,-3.106,-3.1942,-3.3637,-3.5102,0.0,0.0,0.0,0.0,0.0,0.0,0.0,0.0,0.0,0.0,0.0,0.0,0.0,0.0,0.0,0.0,0.0,0.0,0.0,0.0,0.0,0.0,0.0,0.0,0.0,0.0,0.0,0.0,0.0,0.0,0.0,0.0,0.0,0.0,0.0,0.0,0.0,0.0,0.0,0.0,0.0,0.0,0.0,0.0,0.0,0.0,0.0,0.0,0.0,0.0,0.0,0.0,0.0,0.0,0.0,0.0,0.0,0.0,0.0,0.0,0.0,0.0,0.0,0.0,0.0,0.0,0.0,0.0,0.0,0.0,0.0,0.0,0.0,0.0,0.0,0.0,0.0,0.0,0.0,0.0,0.0,0.0,0.0,0.0,0.0,0.0,0.0,0.0,0.0,0.0,0.0,0.0,0.0,0.0,0.0,0.0,0.0,0.0,0.0,0.0,0.0,0.0,0.0,0.0,0.0,0.0,0.0,0.0,0.0,-3.6369,-3.2994,-3.2109,-3.3939,-3.3969,-3.4359,0.0,0.0,0.0,0.0,0.0,0.0,0.0,0.0,0.0,0.0,0.0,0.0,0.0,0.0,0.0,0.0,0.0,0.0,0.0,0.0,0.0,0.0,0.0,0.0,0.0,0.0,0.0,0.0,0.0,0.0,0.0,0.0,0.0,0.0,0.0,0.0,0.0,0.0,0.0,0.0,0.0,0.0,0.0,0.0,0.0,0.0,0.0,0.0,0.0,0.0,0.0,0.0,0.0,0.0,0.0,0.0,0.0,0.0,0.0,0.0,0.0,0.0,0.0,0.0,0.0,0.0,0.0,0.0,0.0,0.0,0.0,0.0,0.0,0.0,0.0,0.0,0.0,0.0,0.0,0.0,0.0,0.0,0.0,0.0,0.0,0.0,0.0,0.0,0.0,0.0,0.0,0.0,0.0,0.0,0.0,0.0,0.0,0.0,0.0,0.0,0.0,0.0,0.0,0.0,0.0,0.0,0.0,0.0,0.0,-3.7326,-3.3019,-3.1591,-3.3462,-3.3785,-3.4334,-3.5212,0.0,0.0,0.0,0.0,0.0,0.0,0.0,0.0,0.0,0.0,0.0,0.0,0.0,0.0,0.0,0.0,0.0,0.0,0.0,0.0,0.0,0.0,0.0,0.0,0.0,0.0,0.0,0.0,0.0,0.0,0.0,0.0,0.0,0.0,0.0,0.0,0.0,0.0,0.0,0.0,0.0,0.0,0.0,0.0,0.0,0.0,0.0,0.0,0.0,0.0,0.0,0.0,0.0,0.0,0.0,0.0,0.0,0.0,0.0,0.0,0.0,0.0,0.0,0.0,0.0,0.0,0.0,0.0,0.0,0.0,0.0,0.0,0.0,0.0,0.0,0.0,0.0,0.0,0.0,0.0,0.0,0.0,0.0,0.0,0.0,0.0,0.0,0.0,0.0,0.0,0.0,0.0,0.0,0.0,0.0,0.0,0.0,0.0,0.0,0.0,0.0,0.0,0.0,0.0,0.0,0.0,0.0,0.0,-3.6835,-3.191,-3.003,-3.1344,-3.3342,-3.491,0.0,0.0,0.0,0.0,0.0,0.0,0.0,0.0,0.0,0.0,0.0,0.0,0.0,0.0,0.0,0.0,0.0,0.0,0.0,0.0,0.0,0.0,0.0,0.0,0.0,0.0,0.0,0.0,0.0,0.0,0.0,0.0,0.0,0.0,0.0,0.0,0.0,0.0,0.0,0.0,0.0,0.0,0.0,0.0,0.0,0.0,0.0,0.0,0.0,0.0,0.0,0.0,0.0,0.0,0.0,0.0,0.0,0.0,0.0,0.0,0.0,0.0,0.0,0.0,0.0,0.0,0.0,0.0,0.0,0.0,0.0,0.0,0.0,0.0,0.0,0.0,0.0,0.0,0.0,0.0,0.0,0.0,0.0,0.0,0.0,0.0,0.0,0.0,0.0,0.0,0.0,0.0,0.0,0.0,0.0,0.0,0.0,0.0,0.0,0.0,0.0,0.0,0.0,0.0,0.0,0.0,0.0,0.0,0.0,-3.5944,-3.3395,-3.2901,-3.4611,-3.498,-3.5589,0.0,0.0,0.0,0.0,0.0,0.0,0.0,0.0,0.0,0.0,0.0,0.0,0.0,0.0,0.0,0.0,0.0,0.0,0.0,0.0,0.0,0.0,0.0,0.0,0.0,0.0,0.0,0.0,0.0,0.0,0.0,0.0,0.0,0.0,0.0,0.0,0.0,0.0,0.0,0.0,0.0,0.0,0.0,0.0,0.0,0.0,0.0,0.0,0.0,0.0,0.0,0.0,0.0,0.0,0.0,0.0,0.0,0.0,0.0,0.0,0.0,0.0,0.0,0.0,0.0,0.0,0.0,0.0,0.0,0.0,0.0,0.0,0.0,0.0,0.0,0.0,0.0,0.0,0.0,0.0,0.0,0.0,0.0,0.0,0.0,0.0,0.0,0.0,0.0,0.0,0.0,0.0,0.0,0.0,0.0,0.0,0.0,0.0,0.0,0.0,0.0,0.0,0.0,0.0,0.0,0.0,0.0,0.0,-3.7753,-3.5216,-3.4085,-3.4106,-3.5366,-3.5979,-3.6462,0.0,0.0,0.0,0.0,0.0,0.0,0.0,0.0,0.0,0.0,0.0,0.0,0.0,0.0,0.0,0.0,0.0,0.0,0.0,0.0,0.0,0.0,0.0,0.0,0.0,0.0,0.0,0.0,0.0,0.0,0.0,0.0,0.0,0.0,0.0,0.0,0.0,0.0,0.0,0.0,0.0,0.0,0.0,0.0,0.0,0.0,0.0,0.0,0.0,0.0,0.0,0.0,0.0,0.0,0.0,0.0,0.0,0.0,0.0,0.0,0.0,0.0,0.0,0.0,0.0,0.0,0.0,0.0,0.0,0.0,0.0,0.0,0.0,0.0,0.0,0.0,0.0,0.0,0.0,0.0,0.0,0.0,0.0,0.0,0.0,0.0,0.0,0.0,0.0,0.0,0.0,0.0,0.0,0.0,0.0,0.0,0.0,0.0,0.0,0.0,0.0,0.0,0.0,0.0,0.0,0.0,0.0,0.0,-3.7449,-3.4573,-3.4342,-3.4353,-3.4653,-3.663,-3.7378,0.0,0.0,0.0,0.0,0.0,0.0,0.0,0.0,0.0,0.0,0.0,0.0,0.0,0.0,0.0,0.0,0.0,0.0,0.0,0.0,0.0,0.0,0.0,0.0,0.0,0.0,0.0,0.0,0.0,0.0,0.0,0.0,0.0,0.0,0.0,0.0,0.0,0.0,0.0,0.0,0.0,0.0,0.0,0.0,0.0,0.0,0.0,0.0,0.0,0.0,0.0,0.0,0.0,0.0,0.0,0.0,0.0,0.0,0.0,0.0,0.0,0.0,0.0,0.0,0.0,0.0,0.0,0.0,0.0,0.0,0.0,0.0,0.0,0.0,0.0,0.0,0.0,0.0,0.0,0.0,0.0,0.0,0.0,0.0,0.0,0.0,0.0,0.0,0.0,0.0,0.0,0.0,0.0,0.0,0.0,0.0,0.0,0.0,0.0,0.0,0.0,0.0,0.0,0.0,0.0,0.0,0.0,0.0,-3.6941,-3.4595,-3.5014,-3.5318,-3.5363,-3.7202,-3.8051,0.0,0.0,0.0,0.0,0.0,0.0,0.0,0.0,0.0,0.0,0.0,0.0,0.0,0.0,0.0,0.0,0.0,0.0,0.0,0.0,0.0,0.0,0.0,0.0,0.0,0.0,0.0,0.0,0.0,0.0,0.0,0.0,0.0,0.0,0.0,0.0,0.0,0.0,0.0,0.0,0.0,0.0,0.0,0.0,0.0,0.0,0.0,0.0,-5.1203,0.0,0.0,0.0,0.0,0.0,0.0,0.0,0.0,0.0,0.0,0.0,0.0,0.0,0.0,0.0,0.0,0.0,0.0,0.0,0.0,0.0,0.0,0.0,0.0,0.0,0.0,0.0,0.0,0.0,0.0,0.0,0.0,0.0,0.0,0.0,0.0,0.0,0.0,0.0,0.0,0.0,0.0,0.0,0.0,0.0,0.0,0.0,0.0,0.0,0.0,0.0,0.0,0.0,0.0,0.0,0.0,0.0,0.0,0.0,-3.7022,-3.529,-3.5464,-3.56,-3.5667,-3.6932,-3.7937,0.0,0.0,0.0,0.0,0.0,0.0,0.0,0.0,0.0,0.0,0.0,0.0,0.0,0.0,0.0,0.0,0.0,0.0,0.0,0.0,0.0,0.0,0.0,0.0,0.0,0.0,0.0,0.0,0.0,0.0,0.0,0.0,0.0,0.0,0.0,0.0,0.0,0.0,0.0,0.0,0.0,0.0,0.0,0.0,0.0,0.0,0.0,0.0,0.0,0.0,0.0,0.0,0.0,0.0,0.0,0.0,0.0,0.0,0.0,0.0,0.0,0.0,0.0,0.0,0.0,0.0,0.0,0.0,0.0,0.0,0.0,0.0,0.0,0.0,0.0,0.0,0.0,0.0,0.0,0.0,0.0,0.0,0.0,0.0,0.0,0.0,0.0,0.0,0.0,0.0,0.0,0.0,0.0,0.0,0.0,0.0,0.0,0.0,0.0,0.0,0.0,0.0,0.0,0.0,0.0,0.0,0.0,-3.8652,-3.7329,-3.6193,-3.5926,-3.5859,-3.5971,-3.6626,-3.7831,-3.9528,0.0,0.0,0.0,0.0,0.0,0.0,0.0,0.0,0.0,0.0,0.0,0.0,0.0,0.0,0.0,0.0,0.0,0.0,0.0,0.0,0.0,0.0,0.0,0.0,0.0,0.0,0.0,0.0,0.0,0.0,0.0,0.0,0.0,0.0,0.0,0.0,0.0,0.0,-5.0472,-5.0729,0.0,0.0,0.0,0.0,0.0,0.0,0.0,0.0,-5.1128,0.0,0.0,0.0,0.0,0.0,0.0,0.0,0.0,0.0,0.0,0.0,0.0,0.0,0.0,0.0,0.0,0.0,0.0,0.0,0.0,0.0,0.0,0.0,0.0,0.0,0.0,0.0,0.0,0.0,0.0,0.0,0.0,0.0,0.0,0.0,0.0,0.0,0.0,0.0,0.0,0.0,0.0,0.0,0.0,0.0,0.0,0.0,0.0,0.0,0.0,0.0,0.0,0.0,0.0,0.0,0.0,-3.8408,-3.8099,-3.7555,-3.6775,-3.6695,-3.6966,-3.7483,-3.777,-3.9112,-4.1606,0.0,0.0,0.0,0.0,0.0,0.0,0.0,0.0,0.0,0.0,0.0,0.0,0.0,0.0,0.0,0.0,0.0,0.0,0.0,0.0,0.0,0.0,0.0,0.0,0.0,0.0,0.0,0.0,0.0,0.0,0.0,0.0,0.0,0.0,0.0,0.0,0.0,0.0,0.0,-5.0508,-5.0986,0.0,0.0,0.0,0.0,0.0,0.0,0.0,0.0,-4.9663,0.0,0.0,0.0,0.0,0.0,0.0,0.0,0.0,0.0,0.0,0.0,0.0,0.0,0.0,0.0,0.0,0.0,0.0,0.0,0.0,0.0,0.0,0.0,0.0,0.0,0.0,0.0,0.0,0.0,0.0,0.0,0.0,0.0,0.0,0.0,0.0,0.0,0.0,0.0,0.0,0.0,0.0,0.0,0.0,0.0,0.0,0.0,0.0,0.0,0.0,0.0,0.0,0.0,0.0,0.0,-3.9368,-3.7832,-3.7069,-3.708,-3.7035,-3.7319,-3.7973,-3.8125,-3.9521,0.0,0.0,0.0,0.0,0.0,0.0,0.0,0.0,0.0,0.0,0.0,0.0,0.0,0.0,0.0,0.0,0.0,0.0,0.0,0.0,0.0,0.0,0.0,0.0,0.0,0.0,0.0,0.0,0.0,0.0,0.0,0.0,0.0,0.0,0.0,0.0,0.0,0.0,0.0,0.0,-5.0362,-5.0472,-4.803,0.0,0.0,0.0,0.0,0.0,0.0,-4.9481,-4.9438,0.0,0.0,0.0,0.0,0.0,0.0,0.0,0.0,0.0,0.0,0.0,0.0,0.0,0.0,0.0,0.0,0.0,0.0,0.0,0.0,0.0,0.0,0.0,0.0,0.0,0.0,0.0,0.0,0.0,0.0,0.0,0.0,0.0,0.0,0.0,0.0,0.0,0.0,0.0,0.0,0.0,0.0,0.0,0.0,0.0,0.0,0.0,0.0,0.0,0.0,0.0,0.0,0.0,0.0,0.0,-4.048,-3.8139,-3.7097,-3.7499,-3.7581,-3.79,-3.8557,-3.8879,-4.0256,0.0,0.0,0.0,0.0,0.0,0.0,0.0,0.0,0.0,0.0,0.0,0.0,0.0,0.0,0.0,0.0,0.0,0.0,0.0,0.0,0.0,0.0,0.0,0.0,0.0,0.0,0.0,0.0,0.0,0.0,0.0,0.0,0.0,0.0,0.0,0.0,0.0,0.0,0.0,0.0,0.0,-4.9774,-4.7663,-4.9314,0.0,0.0,0.0,0.0,-4.9612,-4.928,0.0,0.0,0.0,0.0,0.0,0.0,0.0,0.0,0.0,0.0,0.0,0.0,0.0,0.0,0.0,0.0,0.0,0.0,0.0,0.0,0.0,0.0,0.0,0.0,0.0,0.0,0.0,0.0,0.0,0.0,0.0,0.0,0.0,0.0,0.0,0.0,0.0,0.0,0.0,0.0,0.0,0.0,0.0,0.0,0.0,0.0,0.0,0.0,0.0,0.0,0.0,0.0,0.0,0.0,0.0,0.0,-4.0461,-3.9707,-3.8986,-3.8357,-3.8906,-3.9521,-4.0212,-4.0984,-4.2432,0.0,0.0,0.0,0.0,0.0,0.0,0.0,0.0,0.0,0.0,0.0,0.0,0.0,0.0,0.0,0.0,0.0,0.0,0.0,0.0,0.0,0.0,0.0,0.0,0.0,0.0,0.0,0.0,0.0,0.0,0.0,0.0,0.0,0.0,0.0,0.0,0.0,0.0,0.0,0.0,0.0,-4.937,-4.8306,-4.9664,-5.0545,0.0,0.0,-4.8063,-4.8207,-4.7825,0.0,0.0,0.0,0.0,0.0,0.0,0.0,0.0,0.0,0.0,0.0,0.0,0.0,0.0,0.0,0.0,0.0,0.0,0.0,0.0,0.0,0.0,0.0,0.0,0.0,0.0,0.0,0.0,0.0,0.0,0.0,0.0,0.0,0.0,0.0,0.0,0.0,0.0,0.0,0.0,0.0,0.0,0.0,0.0,0.0,0.0,0.0,0.0,0.0,0.0,0.0,0.0,0.0,0.0,0.0,-4.1719,-4.1656,-3.9675,-3.8743,-3.9032,-3.9387,-3.9937,-4.0607,-4.1449,-4.2927,0.0,0.0,0.0,0.0,0.0,0.0,0.0,0.0,0.0,0.0,0.0,0.0,0.0,0.0,0.0,0.0,0.0,0.0,0.0,0.0,0.0,0.0,0.0,0.0,0.0,0.0,0.0,0.0,0.0,0.0,0.0,0.0,0.0,0.0,0.0,0.0,0.0,0.0,0.0,0.0,0.0,0.0,-4.7792,-4.904,0.0,0.0,0.0,-4.9083,-4.9414,0.0,0.0,0.0,0.0,0.0,0.0,0.0,0.0,0.0,0.0,0.0,0.0,0.0,0.0,0.0,0.0,0.0,0.0,0.0,0.0,0.0,0.0,0.0,0.0,0.0,0.0,0.0,0.0,0.0,0.0,0.0,0.0,0.0,0.0,0.0,0.0,0.0,0.0,0.0,0.0,0.0,0.0,0.0,0.0,0.0,0.0,0.0,0.0,0.0,0.0,0.0,0.0,0.0,0.0,0.0,0.0,0.0,-4.28,-3.9916,-3.8794,-3.9617,-4.0124,-4.0607,-4.1027,-4.2151,0.0,0.0,0.0,0.0,0.0,0.0,0.0,0.0,0.0,0.0,0.0,0.0,0.0,0.0,0.0,0.0,0.0,0.0,0.0,0.0,0.0,0.0,0.0,0.0,0.0,0.0,0.0,-5.2412,0.0,0.0,0.0,0.0,0.0,0.0,0.0,0.0,0.0,0.0,0.0,0.0,0.0,0.0,-4.917,-4.7902,-4.893,-4.9461,0.0,0.0,-5.0082,-4.9769,-4.8862,-4.8629,0.0,0.0,0.0,0.0,0.0,0.0,0.0,0.0,0.0,0.0,0.0,0.0,0.0,0.0,0.0,0.0,0.0,0.0,0.0,0.0,0.0,0.0,0.0,0.0,0.0,0.0,0.0,0.0,0.0,0.0,0.0,0.0,0.0,0.0,0.0,0.0,0.0,0.0,0.0,0.0,0.0,0.0,0.0,0.0,0.0,0.0,0.0,0.0,0.0,0.0,0.0,0.0,0.0,0.0,0.0,-4.3168,-4.1059,-3.9969,-4.0108,-4.1487,-4.2124,-4.1964,-4.3715,-4.576,0.0,0.0,0.0,0.0,0.0,0.0,0.0,0.0,0.0,0.0,0.0,0.0,0.0,0.0,0.0,0.0,0.0,0.0,0.0,0.0,0.0,0.0,0.0,0.0,0.0,0.0,0.0,0.0,0.0,0.0,0.0,0.0,0.0,0.0,0.0,0.0,0.0,0.0,0.0,0.0,0.0,-4.9574,-4.9463,-5.0141,-5.0061,0.0,0.0,-5.0167,-4.7761,-4.9043,-5.0065,-4.9315,0.0,0.0,0.0,0.0,0.0,0.0,0.0,0.0,0.0,0.0,0.0,0.0,0.0,0.0,0.0,0.0,0.0,0.0,0.0,0.0,0.0,0.0,0.0,0.0,0.0,0.0,0.0,0.0,0.0,0.0,0.0,0.0,0.0,0.0,0.0,0.0,0.0,0.0,0.0,0.0,0.0,0.0,0.0,0.0,0.0,0.0,0.0,0.0,0.0,0.0,0.0,0.0,0.0,-4.3885,-4.4611,-4.2392,-4.138,-4.1773,-4.2812,-4.329,-4.3173,-4.4292,-4.5849,0.0,0.0,0.0,0.0,0.0,0.0,0.0,0.0,0.0,0.0,0.0,0.0,0.0,0.0,0.0,0.0,0.0,0.0,0.0,0.0,0.0,0.0,0.0,0.0,0.0,0.0,0.0,0.0,-4.9944,-5.0175,-5.1119,0.0,0.0,0.0,0.0,0.0,0.0,0.0,0.0,0.0,0.0,-4.9715,-4.8607,-4.9638,0.0,0.0,-5.0671,-5.1796,-5.0719,-5.1128,-5.1694,-5.1886,-5.2723,0.0,0.0,0.0,0.0,0.0,0.0,0.0,0.0,0.0,0.0,0.0,0.0,0.0,0.0,0.0,0.0,0.0,0.0,0.0,0.0,0.0,0.0,0.0,0.0,0.0,0.0,0.0,0.0,0.0,0.0,0.0,0.0,0.0,0.0,0.0,0.0,0.0,0.0,0.0,0.0,0.0,0.0,0.0,0.0,0.0,0.0,0.0,0.0,0.0,0.0,0.0,0.0,-4.5187,-4.5962,-4.3734,-4.2763,-4.317,-4.3944,-4.4273,-4.4284,-4.507,-4.6352,0.0,0.0,0.0,0.0,0.0,0.0,0.0,0.0,0.0,0.0,0.0,0.0,0.0,0.0,0.0,0.0,0.0,0.0,0.0,0.0,0.0,0.0,0.0,0.0,0.0,0.0,0.0,0.0,-5.0159,-5.031,-5.1143,0.0,0.0,0.0,0.0,0.0,0.0,0.0,0.0,0.0,0.0,-4.9731,-4.8944,-4.9886,-5.0736,-5.0875,-5.2467,-5.3658,-5.3624,-5.3507,-5.3579,-5.4023,0.0,0.0,0.0,0.0,0.0,0.0,0.0,0.0,0.0,0.0,0.0,0.0,0.0,0.0,0.0,0.0,0.0,0.0,0.0,0.0,0.0,0.0,0.0,0.0,0.0,0.0,0.0,0.0,0.0,0.0,0.0,0.0,0.0,0.0,0.0,0.0,0.0,0.0,0.0,0.0,0.0,0.0,0.0,0.0,0.0,0.0,0.0,0.0,0.0,0.0,0.0,0.0,0.0,-4.7003,-4.7037,-4.5058,-4.4059,-4.4094,-4.487,-4.5235,-4.5152,-4.6317,-4.7711,-4.927,0.0,0.0,0.0,0.0,0.0,0.0,0.0,0.0,0.0,0.0,0.0,0.0,0.0,0.0,0.0,0.0,0.0,0.0,0.0,0.0,0.0,0.0,0.0,0.0,0.0,0.0,-5.506,-5.3191,-5.138,0.0,0.0,0.0,0.0,0.0,0.0,0.0,0.0,0.0,0.0,-5.0237,-4.9773,-5.1122,-5.1377,-5.2204,-5.4242,-5.5171,-5.5685,-5.5563,-5.5785,-5.574,0.0,0.0,0.0,0.0,0.0,0.0,0.0,0.0,0.0,0.0,0.0,0.0,0.0,0.0,0.0,0.0,0.0,0.0,0.0,0.0,0.0,0.0,0.0,0.0,0.0,0.0,0.0,0.0,-4.5467,0.0,0.0,0.0,0.0,0.0,0.0,0.0,0.0,0.0,0.0,0.0,-4.7879,-4.7734,0.0,0.0,0.0,0.0,0.0,0.0,0.0,0.0,0.0,0.0,0.0,0.0,-4.7235,-4.7156,-4.5906,-4.5214,-4.5249,-4.6018,-4.6717,-4.7298,-4.7617,-4.8887,-5.1227,0.0,0.0,0.0,0.0,0.0,0.0,0.0,0.0,0.0,0.0,0.0,0.0,0.0,0.0,0.0,0.0,0.0,0.0,0.0,0.0,0.0,0.0,0.0,0.0,0.0,-5.3785,0.0,0.0,0.0,0.0,0.0,0.0,0.0,0.0,0.0,0.0,0.0,-5.2578,-5.2412,-5.2864,-5.2943,-5.2218,-5.3113,-5.374,0.0,0.0,0.0,0.0,0.0,0.0,0.0,0.0,0.0,0.0,0.0,0.0,0.0,0.0,-5.7813,-5.7299,-5.6748,-5.6638,-5.746,0.0,0.0,0.0,0.0,0.0,0.0,0.0,0.0,0.0,0.0,0.0,0.0,0.0,0.0,0.0,0.0,-4.5058,0.0,0.0,0.0,0.0,0.0,0.0,0.0,0.0,-4.7834,-4.7796,-4.7377,-4.7203,-4.7558,0.0,-4.8549,-4.9081,0.0,0.0,0.0,0.0,0.0,0.0,0.0,0.0,-4.7758,-4.7611,-4.698,-4.6618,-4.6608,-4.7403,-4.8138,-4.8755,-4.9064,-4.998,-5.1565,-5.2627,-5.333,0.0,0.0,0.0,0.0,0.0,0.0,0.0,0.0,0.0,0.0,0.0,0.0,0.0,0.0,0.0,0.0,0.0,0.0,0.0,0.0,0.0,0.0,0.0,-5.4012,0.0,0.0,0.0,0.0,0.0,0.0,0.0,0.0,0.0,-5.3441,-5.3185,-5.2952,-5.2717,-5.3394,-5.3772,-5.3406,0.0,0.0,0.0,0.0,0.0,0.0,0.0,-5.828,-5.8033,-5.8621,-5.8877,-5.8107,-5.7997,-5.807,-5.8364,0.0,0.0,-5.7262,-5.6785,-5.6675,-5.7483,-5.7005,-5.7005,-5.8817,-5.8547,-5.8143,0.0,0.0,0.0,0.0,0.0,0.0,0.0,0.0,-4.2569,-4.3939,0.0,-4.4631,0.0,0.0,0.0,0.0,0.0,0.0,0.0,0.0,-4.5234,-4.4968,-4.5789,-4.5505,-4.6092,-4.7512,-4.8312,-4.9232,-5.0216,-4.8866,0.0,0.0,0.0,0.0,0.0,0.0,-4.8582,-4.8374,-4.8267,-4.8164,-4.8081,-4.8936,-4.9448,-4.9566,-5.0577,-5.0914,-5.0519,-5.2576,-5.3563,-5.3127,-5.6003,0.0,0.0,0.0,0.0,0.0,0.0,0.0,0.0,0.0,0.0,0.0,0.0,0.0,0.0,0.0,0.0,0.0,0.0,0.0,0.0,-5.4986,0.0,0.0,0.0,0.0,0.0,0.0,0.0,0.0,0.0,0.0,-5.4214,-5.3573,-5.2981,-5.2826,0.0,0.0,0.0,0.0,-5.487,-5.8154,-5.8614,-5.8869,-5.9835,-5.942,-5.8773,-5.812,0.0,0.0,-5.7923,-5.8033,-5.8253,-5.8964,-5.7863,-5.7079,-5.785,-5.785,-5.8033,-5.8817,-5.8364,-5.829,-5.8891,-5.8657,-5.818,-4.0934,0.0,0.0,0.0,0.0,-4.3946,-4.4053,-4.3339,-4.4144,-4.4548,-4.4696,-4.5379,0.0,0.0,0.0,0.0,0.0,0.0,-4.7788,-4.61,-4.7128,-4.7073,-4.6081,-4.6548,-4.7272,-4.823,-4.8467,-4.8766,-4.9083,-4.8802,-4.9423,-5.0934,0.0,0.0,0.0,0.0,-4.9363,-4.9562,-4.9132,-4.8936,-4.8924,-4.9281,-4.9864,-5.0613,-5.1637,-5.2132,-5.2083,-5.2828,-5.3507,-5.3968,-5.542,0.0,0.0,0.0,0.0,0.0,0.0,0.0,0.0,0.0,0.0,0.0,0.0,0.0,0.0,0.0,0.0,0.0,0.0,0.0,-5.5953,-5.4613,-5.4048,0.0,0.0,0.0,0.0,0.0,0.0,0.0,0.0,0.0,-5.6629,-5.545,-5.5245,0.0,0.0,-5.6772,-5.8578,-5.7545,-5.6755,-5.7308,0.0,0.0,0.0,-5.855,-5.8904,-5.8143,-5.7813,-5.7923,-5.8731,-5.84,-5.807,-5.8327,-5.796,-5.774,-5.785,-5.7042,-5.6638,-5.7299,-5.774,-5.8033,-5.8327,-5.8988,-5.9171,-4.061,-4.0424,-4.175,-4.237,-4.2547,-4.3537,-4.3439,-4.2646,-4.3169,-4.3658,-4.4113,-4.4565,-4.556,-4.6983,-4.7777,0.0,0.0,0.0,-4.7691,-4.6175,-4.7678,-4.7925,-4.7222,-4.7643,-4.824,-4.8942,-4.8977,-4.9179,-4.9583,-4.96,-5.0284,-5.1584,0.0,0.0,-5.1144,-5.015,-4.9811,-5.0135,-4.9909,-4.9841,-4.9925,-5.039,-5.0973,-5.1697,-5.2595,-5.3008,-5.2908,-5.3266,-5.3609,-5.3937,-5.5317,-5.6161,0.0,0.0,0.0,0.0,0.0,0.0,0.0,0.0,0.0,0.0,0.0,-5.6492,-5.7446,0.0,0.0,0.0,-5.6051,-5.5764,-5.5651,-5.492,0.0,0.0,0.0,0.0,0.0,0.0,0.0,-5.77,-5.7348,-5.7178,-5.7737,-5.6899,-5.6716,-5.7943,-5.7721,-5.789,-5.921,0.0,-5.7261,-5.7276,-5.7551,-5.7674,-5.735,-5.8107,-5.8547,-5.807,-5.7997,-5.8143,-5.8584,-5.8327,-5.7997,-5.7997,-5.7997,-5.7997,-5.7997,-5.7189,-5.6675,-5.7189,-5.7666,-5.796,-5.7997,-5.9024,-5.9368,-4.1214,-4.0705,-4.261,-4.3071,-4.2568,-4.2524,-4.1887,-4.0857,-4.1033,-4.2156,-4.3932,-4.3093,-4.447,-4.7451,-4.7555,0.0,0.0,-4.7041,-4.693,-4.6766,-4.7251,-4.7924,-4.8661,-4.86,-4.9012,-4.9785,-4.9811,-5.0277,-5.1026,-5.0946,-5.127,-5.2021,-5.0637,-5.0214,-5.078,-5.0348,-5.0246,-5.0524,-5.0807,-5.0964,-5.1023,-5.1885,-5.2397,-5.259,-5.3413,-5.3599,-5.3163,-5.3895,-5.4034,-5.3497,-5.5478,-5.6381,-5.5794,0.0,0.0,0.0,0.0,0.0,0.0,0.0,0.0,0.0,0.0,0.0,0.0,0.0,0.0,0.0,-5.495,0.0,-5.4407,-5.5798,0.0,0.0,0.0,-5.8419,-5.6882,-5.7358,-5.7834,-5.7907,0.0,0.0,0.0,0.0,-5.7567,-5.6669,-5.6629,-5.6992,-5.7907,-5.7264,-5.6862,-5.7827,-5.7904,-5.7881,-5.79,-5.8033,-5.8033,-5.7997,-5.7997,-5.7997,-5.8033,-5.8033,-5.7997,-5.7997,-5.7997,-5.7997,-5.7997,-5.7923,-5.7997,-5.7923,-5.807,-5.8107,-5.818,-5.8841,-5.9134,-4.2366,-4.2685,-4.32,-4.2685,-4.1646,-4.2338,-4.2765,-4.3037,-4.3898,-4.432,-4.4388,-4.4898,-4.5676,-4.6574,-4.7194,-4.7382,-4.7326,-4.7933,-4.8153,-4.807,-4.8195,-4.8661,-4.9425,-4.9434,-4.982,-5.0584,-5.0699,-5.0885,-5.1088,-5.1272,-5.1264,-5.1138,-5.1438,-5.2067,-5.2962,-5.2325,-5.2177,-5.259,-5.264,-5.245,-5.1993,-5.2312,-5.2545,-5.259,-5.3571,-5.4048,-5.3932,-5.4789,-5.5185,-5.506,-5.5574,-5.6088,-5.6492,-5.7629,0.0,0.0,0.0,0.0,0.0,0.0,0.0,0.0,0.0,-5.6418,-5.7629,0.0,-5.6712,0.0,-5.5794,-5.5493,-5.5981,-5.7024,0.0,0.0,-5.8357,-5.8757,-5.7767,-5.784,-5.817,-5.8831,-5.8844,-5.882,-5.8844,-5.8867,-5.855,-5.7744,-5.7634,-5.817,-5.9491,-5.8514,-5.767,-5.7937,-5.7973,-5.7973,-5.7997,-5.7997,-5.7997,-5.7997,-5.7997,-5.7997,-5.7997,-5.7997,-5.7997,-5.7997,-5.7997,-5.7997,-5.7997,-5.7997,-5.7997,-5.8033,-5.8474,-5.8891,-5.8927,-5.9538,-5.9685,-4.3538,-4.3944,-4.3944,-4.3436,-4.2753,-4.3294,-4.3763,-4.4177,-4.5193,-4.528,-4.4785,-4.5926,-4.6765,-4.7267,-4.7713,-4.7889,-4.7924,-4.8345,-4.8731,-4.9012,-4.9047,-4.9469,-5.0206,-5.0206,-5.0505,-5.0981,-5.107,-5.1176,-5.1272,-5.1428,-5.1367,-5.1211,-5.1714,-5.2526,-5.3611,-5.3307,-5.3631,-5.4604,-5.4315,-5.3965,-5.3601,-5.3704,-5.3977,-5.4374,-5.4962,-5.5454,-5.5866,-5.6396,-5.6675,-5.6675,-5.7005,-5.7226,-5.7373,-5.8437,-5.9281,0.0,0.0,0.0,0.0,0.0,0.0,0.0,0.0,0.0,0.0,0.0,-5.7483,0.0,-5.7152,0.0,-5.8197,-5.9087,-5.9441,-5.9003,-5.9748,-5.9832,-5.8657,-5.8841,-5.8951,-5.8694,-5.8964,-5.9074,-5.8731,-5.8657,-5.8657,-5.8547,-5.8547,-5.8731,-5.9134,-5.851,-5.7997,-5.7997,-5.7997,-5.7997,-5.7997,-5.7997,-5.7997,-5.7997,-5.7997,-5.7997,-5.7997,-5.7997,-5.7997,-5.7997,-5.7997,-5.7997,-5.7997,-5.7997,-5.7997,-5.8033,-5.8364,-5.8621,-5.8694,-5.9575,-6.0015,-4.4581,-4.4581,-4.4581,-4.4581,-4.4581,-4.4581,-4.4581,-4.4649,-4.5535,-4.5704,-4.5412,-4.6584,-4.7614,-4.8539,-4.8548,-4.8609,-4.8635,-4.8766,-4.9188,-4.9846,-4.9881,-5.0233,-5.0873,-5.0978,-5.1095,-5.1237,-5.1334,-5.1529,-5.1657,-5.1647,-5.1724,-5.18,-5.18,-5.2466,-5.3819,-5.3963,-5.4753,-5.6249,-5.5809,-5.5527,-5.5541,-5.5637,-5.6108,-5.6882,-5.6919,-5.7317,-5.8107,-5.8253,-5.829,-5.8327,-5.8988,-5.8988,-5.8253,-5.9575,-6.0419,0.0,-6.1153,0.0,0.0,0.0,0.0,0.0,0.0,0.0,0.0,-5.785,-5.8621,-5.9465,-5.8767,-5.8877,-6.0272,-6.1117,-6.1263,-6.0529,-6.1117,-6.1006,-5.9551,-5.9979,-5.9869,-5.8474,-5.8914,-5.9074,-5.851,-5.8327,-5.8584,-5.9221,-5.9331,-5.9074,-5.8364,-5.8253,-5.818,-5.8033,-5.7997,-5.7997,-5.7997,-5.7997,-5.7997,-5.7997,-5.7997,-5.7997,-5.7997,-5.7997,-5.7997,-5.7997,-5.7997,-5.7997,-5.7997,-5.7997,-5.7997,-5.7997,-5.8033,-5.807,-5.8143,-5.9024,-5.9832,-4.4581,-4.4581,-4.4581,-4.4581,-4.4581,-4.4581,-4.4581,-4.4649,-4.5648,-4.6445,-4.7107,-4.7355,-4.7746,-4.8223,-4.8816,-4.9221,-4.9504,-5.0136,-5.0522,-5.0662,-5.0662,-5.0733,-5.097,-5.1505,-5.1868,-5.204,-5.2748,-5.291,-5.2465,-5.2594,-5.2507,-5.2272,-5.2272,-5.3451,0.0,0.0,0.0,0.0,-5.6985,-5.7301,-5.7266,-5.8017,-5.8467,-5.8566,-5.8637,0.0,-5.8964,-5.9612,-5.9942,-5.9942,-6.0089,0.0,0.0,0.0,0.0,0.0,0.0,0.0,0.0,0.0,0.0,0.0,-6.1667,-6.1166,-5.9001,-5.9465,-6.0309,-6.1043,-6.0419,-6.0052,-6.0382,-6.1117,-6.1263,-6.0529,-6.1117,-6.1227,-6.0309,-6.0346,-6.0272,-6.0015,-6.0089,-6.0126,-5.9942,-5.9942,-5.9979,-6.0126,-6.0162,-5.9869,-5.9098,-5.8927,-5.8731,-5.8143,-5.7997,-5.7997,-5.7997,-5.7997,-5.7997,-5.7997,-5.7997,-5.7997,-5.7997,-5.7997,-5.7997,-5.7997,-5.7997,-5.7997,-5.7997,-5.7997,-5.7997,-5.7997,-5.7997,-5.7997,-5.7997,-5.8217,-5.8584,-4.4581,0.0,-4.4581,-4.4818,0.0,-4.5128,-4.5331,-4.5732,-4.6248,-4.7227,-4.8478,-4.8163,-4.8374,-4.9,-4.9549,-4.9889,-5.0087,-5.0643,-5.0908,-5.0908,-5.0908,-5.1084,-5.147,-5.1821,-5.2318,-5.2889,-5.336,-5.3531,-5.3326,-5.3038,-5.2986,-5.3185,-5.2856,-5.3583,-5.5346,-5.5548,-5.6061,-5.6999,-5.7591,-5.7881,-5.787,-5.833,-5.8781,-5.9077,0.0,0.0,0.0,0.0,0.0,0.0,0.0,0.0,0.0,0.0,0.0,-6.1594,-6.1961,-6.2181,-6.2218,-6.2218,-6.1851,-6.108,-6.1741,-6.1704,-6.0493,-6.0419,-6.0713,-6.152,-6.1227,-6.1153,-6.1557,-6.1961,-6.2034,-6.1667,-6.1961,-6.1887,-6.119,-6.1374,-6.1263,-6.0566,-6.075,-6.086,-6.0456,-6.0419,-6.0566,-6.0933,-6.1006,-6.0713,-5.9942,-5.9441,-5.8891,-5.8143,-5.7997,-5.7997,-5.7997,-5.7997,-5.7997,-5.7997,-5.7997,-5.7997,-5.7997,-5.7997,-5.7997,-5.7997,-5.7997,-5.7997,-5.7997,-5.7997,-5.7997,-5.7997,-5.7997,-5.7997,-5.7997,-5.8327,-5.8694,-4.4581,-4.4581,-4.4581,-4.4993,-4.5703,-4.5703,-4.621,-4.6989,0.0,0.0,0.0,-4.8796,-4.8978,-4.982,-5.0143,-5.0313,-5.0369,-5.0682,-5.0792,-5.0792,-5.0819,-5.124,-5.1941,-5.2081,-5.274,-5.3757,-5.3898,-5.4063,-5.4153,-5.3573,-5.3502,-5.3894,-5.3385,-5.3586,-5.4543,-5.5563,-5.6536,-5.7437,-5.8043,-5.8354,-5.8437,-5.85,-5.8904,-5.9588,-5.9454,-5.9674,-6.0382,-6.0419,-6.0456,-6.0603,-6.0603,-6.0896,-6.1557,-6.1594,-6.1887,-6.2548,-6.2585,-6.2365,-6.1851,-6.1814,-6.152,-6.086,-6.1447,-6.1814,-6.1814,-6.1374,-6.1263,-6.1777,-6.1961,-6.2254,-6.2743,-6.2805,-6.2805,-6.2805,-6.2805,-6.2511,-6.1961,-6.2365,-6.223,-6.119,-6.1447,-6.1594,-6.1006,-6.0933,-6.1043,-6.1667,-6.1814,-6.141,-6.0529,-5.9515,-5.8694,-5.8143,-5.7997,-5.7997,-5.7997,-5.7997,-5.7997,-5.7997,-5.7997,-5.7997,-5.7997,-5.7997,-5.7997,-5.7997,-5.7997,-5.7997,-5.7997,-5.7997,-5.7997,-5.7997,-5.7997,-5.7997,-5.8033,-5.851,-5.8964,-4.4581,-4.4581,-4.4581,-4.5026,-4.5703,-4.5703,-4.6481,-4.7703,-4.7736,-4.8271,-4.9046,-4.8978,-4.9127,-4.956,-4.9737,-4.9942,-5.0228,-5.0397,-5.0488,0.0,-5.0453,-5.0956,-5.1836,-5.2466,-5.3372,-5.443,-5.51,-5.5207,-5.4855,-5.4731,-5.4501,-5.4073,-5.3894,-5.4277,-5.508,-5.6027,-5.6652,-5.6943,-5.8794,-5.9835,-6.0065,-6.0518,-6.0895,-6.1202,-6.031,-6.0054,-6.0395,-6.0382,-6.0713,-6.1374,-6.1447,-6.1484,-6.1557,-6.1594,-6.163,-6.1741,-6.1777,-6.2034,-6.2585,-6.2633,-6.256,-6.245,-6.256,-6.2622,-6.2658,-6.3209,-6.3319,-6.2768,-6.3209,-6.3466,-6.2952,-6.2805,-6.2805,-6.2805,-6.2805,-6.2732,-6.2585,-6.2707,-6.267,-6.2401,-6.2548,-6.2585,-6.2365,-6.2365,-6.2365,-6.2585,-6.2438,-6.2071,-6.0676,-5.9098,-5.8217,-5.8033,-5.7997,-5.7997,-5.8143,-5.7997,-5.807,-5.7997,-5.8107,-5.818,-5.818,-5.818,-5.818,-5.8033,-5.8107,-5.807,-5.8033,-5.7997,-5.7997,-5.7997,-5.7997,-5.7997,-5.7997,-5.8143,-5.8437,-4.4581,-4.4649,-4.5026,-4.5602,-4.6346,-4.7158,-4.7868,-4.8477,-4.848,-4.868,-4.8984,-4.9018,-4.9077,-4.9229,-4.9471,-4.9708,-4.9942,-5.0171,-5.0313,-5.0432,-5.0934,-5.1555,-5.2323,-5.3235,-5.418,-5.5097,-5.5472,-5.5645,-5.5489,-5.5147,-5.4997,-5.5032,-5.5068,-5.5245,-5.5601,-5.5976,-5.632,-5.6537,-5.7836,-5.8528,-5.8689,-5.8917,-5.9149,-5.9396,-5.8933,-5.8835,-5.9074,-5.9538,-5.9942,-6.0272,-6.0713,-6.1153,-6.1557,-6.1594,-6.1777,-6.2218,-6.2254,-6.2438,-6.2805,-6.2805,-6.2805,-6.2805,-6.2805,-6.2805,-6.2805,-6.3172,-6.3209,-6.2853,-6.3172,-6.3246,-6.2853,-6.2805,-6.2805,-6.2805,-6.2805,-6.2805,-6.2805,-6.2805,-6.2805,-6.2805,-6.2805,-6.2805,-6.2805,-6.2805,-6.2805,-6.2743,-6.2475,-6.1814,-6.1117,-6.0052,-5.9134,-5.8767,-5.8657,-5.8877,-5.9171,-5.8914,-5.8877,-5.9208,-5.9281,-5.9281,-5.9318,-5.9281,-5.9281,-5.9245,-5.8988,-5.8694,-5.8657,-5.829,-5.807,-5.7997,-5.7997,-5.7997,-5.7997,-5.7997,-5.829,-4.4716,-4.4919,-4.5466,-4.621,-4.7158,-4.8443,-4.9018,-4.9018,-4.9018,-4.9018,-4.9018,-4.9018,-4.9018,-4.9049,-4.929,-4.95,-4.9713,-5.0149,-5.0449,-5.0689,-5.1562,-5.2294,-5.3032,-5.3888,-5.4706,-5.5437,-5.5625,-5.5742,-5.5773,-5.539,-5.5418,-5.5894,-5.5872,-5.5908,-5.5964,-5.5908,-5.5957,-5.6201,-5.6697,-5.701,-5.7188,-5.7163,-5.7289,-5.7643,-5.7826,-5.7995,-5.8267,-5.9061,-5.9551,-5.9758,-6.0346,-6.1043,-6.1777,-6.1851,-6.2144,-6.2732,-6.2805,-6.2805,-6.2805,-6.2805,-6.2805,-6.2805,-6.2805,-6.2805,-6.2805,-6.2805,-6.2805,-6.2842,-6.3025,-6.3062,-6.2842,-6.2805,-6.2805,-6.2805,-6.2805,-6.2805,-6.2805,-6.2805,-6.2805,-6.2805,-6.2805,-6.2805,-6.2805,-6.2805,-6.2805,-6.2732,-6.2108,-6.163,-6.152,-6.1043,-6.0419,-5.9942,-5.9588,-5.9685,-6.0272,-5.9905,-5.9758,-6.0346,-6.0346,-6.0236,-6.0272,-6.0346,-6.0382,-6.0236,-5.9869,-5.9538,-5.9428,-5.8877,-5.84,-5.8327,-5.818,-5.7997,-5.7997,-5.7997,-5.8143,-4.4993,-4.5568,-4.5703,-4.6515,-4.7838,-4.868,-4.9018,-4.9018,-4.9018,-4.9018,-4.9018,-4.9018,-4.9018,-4.9049,-4.9202,-4.9354,-4.9603,-5.0433,-5.0947,-5.128,-5.2067,-5.2978,-5.3876,-5.4075,-5.4618,-5.5408,-5.5507,-5.5561,-5.5706,-5.5665,-5.5808,-5.6113,-5.585,-5.5914,-5.6113,-5.5886,-5.5793,-5.5929,-5.5986,-5.6429,-5.7138,-5.7061,-5.7239,-5.7786,-5.8361,-5.8835,-5.9087,-5.9905,-6.0639,-6.13,-6.1447,-6.1851,-6.2585,-6.2695,-6.2732,-6.2805,-6.2842,-6.2805,-6.2842,-6.2805,-6.2805,-6.2805,-6.2805,-6.2805,-6.2805,-6.2805,-6.2805,-6.2952,-6.3539,-6.3503,-6.289,-6.2805,-6.2805,-6.2805,-6.2805,-6.2805,-6.2805,-6.2805,-6.2805,-6.2805,-6.2805,-6.2805,-6.2879,-6.2915,-6.2879,-6.2952,-6.2254,-6.1777,-6.1851,-6.1667,-6.1594,-6.1337,-6.086,-6.0456,-6.0529,-6.0382,-6.0419,-6.0493,-6.0456,-6.0603,-6.0676,-6.0639,-6.0456,-6.086,-6.0419,-6.0309,-6.0162,-5.9685,-5.9074,-5.8841,-5.8474,-5.7997,-5.7997,-5.7997,-5.807,-4.5399,-4.5805,-4.665,-4.7597,-4.8545,-4.8883,-4.9018,-4.9018,-4.9018,-4.9018,-4.9018,-4.9018,-4.9018,-4.9052,-4.9486,-4.9848,-5.01,-5.0878,-5.1466,-5.1894,-5.271,-5.3445,-5.3997,-5.4664,-5.5073,-5.5319,-5.5448,-5.5537,-5.5596,-5.5596,-5.5706,-5.5964,-5.5793,-5.6011,-5.6516,-5.6011,-5.5976,-5.6573,-5.6148,-5.6237,-5.6829,-5.676,-5.7349,-5.8635,-5.8298,-5.8567,-5.9688,-6.0188,-6.075,-6.1557,-6.2034,-6.2438,-6.2805,-6.2805,-6.3,-6.3503,-6.3576,-6.3576,-6.3576,-6.3099,-6.2805,-6.2805,-6.2805,-6.2805,-6.2805,-6.2805,-6.2989,-6.3466,-6.3429,-6.3172,-6.2879,-6.2805,-6.2805,-6.2805,-6.2805,-6.2805,-6.2805,-6.2805,-6.2805,-6.2805,-6.2805,-6.3062,-6.3429,-6.3576,-6.3576,-6.3466,-6.2842,-6.2511,-6.2915,-6.2658,-6.2768,-6.3466,-6.3099,-6.2401,-6.1961,-6.1374,-6.1374,-6.1667,-6.1814,-6.1814,-6.1777,-6.1814,-6.1851,-6.1777,-6.1374,-6.1117,-6.108,-6.0052,-5.9184,-5.9038,-5.8584,-5.7997,-5.7997,-5.7997,-5.7997,-4.6143,-4.6481,-4.7669,-4.848,-4.8984,-4.9018,-4.9018,-4.9018,-4.9018,-4.9018,-4.9018,-4.9187,-4.9289,-4.9357,-4.9864,-5.0297,-5.0759,-5.1439,-5.2064,-5.2601,-5.3475,-5.4035,-5.4316,-5.5108,-5.5448,-5.5324,-5.5448,-5.5507,-5.5507,-5.5507,-5.5619,-5.5815,-5.5822,-5.6152,-5.6782,-5.6239,-5.6297,-5.6927,-5.6411,-5.6372,-5.6984,-5.6734,-5.7298,-5.8782,-5.8671,-5.8992,-6.0103,-6.0652,-6.1214,-6.1825,-6.2386,-6.2789,-6.3009,-6.3009,-6.3412,-6.4134,-6.4086,-6.4112,-6.4332,-6.3587,-6.3172,-6.3135,-6.2989,-6.2805,-6.2842,-6.3025,-6.3429,-6.3906,-6.3723,-6.3539,-6.3172,-6.3172,-6.3099,-6.2879,-6.2805,-6.2805,-6.2805,-6.2805,-6.2915,-6.3099,-6.3246,-6.3466,-6.42,-6.442,-6.442,-6.4347,-6.3943,-6.3649,-6.42,-6.3943,-6.398,-6.5081,-6.4751,-6.42,-6.3576,-6.3135,-6.2952,-6.2879,-6.3099,-6.2989,-6.2915,-6.2805,-6.2805,-6.2291,-6.2071,-6.1924,-6.1851,-6.0823,-5.9551,-5.9184,-5.8767,-5.8253,-5.8033,-5.7997,-5.7997,-4.7158,-4.7838,-4.8646,-4.8951,-4.9018,-4.9018,-4.9018,-4.9018,-4.9018,-4.9018,-4.912,-4.9729,-5.0033,-5.0067,-5.0168,-5.0602,-5.1473,-5.2189,-5.2819,-5.336,-5.4202,-5.4826,-5.5129,-5.5383,-5.5513,-5.5688,-5.5688,-5.5683,-5.5648,-5.5578,-5.5619,-5.5943,-5.6078,-5.6396,-5.7056,-5.6787,-5.6644,-5.7185,-5.6815,-5.6912,-5.7756,-5.7244,-5.7175,-5.7883,-5.9732,-6.0475,-6.0343,-6.1485,-6.2287,-6.236,-6.2459,-6.2824,-6.3481,-6.359,-6.3945,-6.4612,-6.4207,-6.4177,-6.4788,-6.438,-6.4016,-6.3943,-6.3429,-6.2853,-6.3099,-6.3649,-6.409,-6.4189,-6.4787,-6.4824,-6.4237,-6.409,-6.3759,-6.3074,-6.289,-6.2952,-6.289,-6.3099,-6.3246,-6.3833,-6.409,-6.4457,-6.5154,-6.5264,-6.5264,-6.5264,-6.5165,-6.5154,-6.5154,-6.5154,-6.5191,-6.5312,-6.5375,-6.5228,-6.5191,-6.4457,-6.4273,-6.4053,-6.3613,-6.3613,-6.3172,-6.2805,-6.2805,-6.2805,-6.2658,-6.2548,-6.2548,-6.1887,-6.0713,-6.0015,-5.9478,-5.8988,-5.8694,-5.818,-5.8253,-4.7936,-4.8612,-4.8883,-4.9018,-4.9018,-4.9018,-4.9018,-4.9018,-4.9018,-4.9018,-4.912,-4.9763,-5.0371,-5.0845,-5.1285,-5.1689,-5.2093,-5.2839,-5.3474,-5.3925,-5.4356,-5.505,-5.5933,-5.612,-5.6526,-5.6947,-5.6982,-5.7043,-5.7098,-5.7217,-5.7423,-5.7712,-5.7825,-5.8274,-5.8766,-5.8387,-5.8415,-5.8987,-5.8526,-5.8466,-5.8996,-5.9239,-5.921,-5.8834,-5.9241,-6.0118,-6.1355,-6.1579,-6.2105,-6.3126,-6.3162,-6.3527,-6.4256,-6.4366,-6.4731,-6.5387,-6.4831,-6.4838,-6.554,-6.5108,-6.472,-6.4861,-6.4604,-6.4347,-6.4431,-6.4714,-6.5081,-6.5558,-6.5852,-6.5888,-6.5632,-6.5191,-6.4751,-6.4494,-6.4383,-6.4347,-6.442,-6.442,-6.4567,-6.4861,-6.5264,-6.5778,-6.5925,-6.6072,-6.6072,-6.6035,-6.5668,-6.5632,-6.5888,-6.5668,-6.5668,-6.6439,-6.6402,-6.6256,-6.6806,-6.5301,-6.4347,-6.4053,-6.3723,-6.3319,-6.2879,-6.2805,-6.2805,-6.2805,-6.2805,-6.2805,-6.2658,-6.2254,-6.119,-6.0493,-5.9979,-5.9869,-5.9612,-5.9208,-5.9281,-4.8545,-4.8984,-4.9018,-4.9018,-4.9018,-4.9018,-4.9018,-4.9018,-4.9018,-4.9018,-4.9187,-4.9999,-5.0744,-5.1352,-5.2232,-5.2706,-5.2739,-5.3281,-5.3853,-5.4484,-5.4743,-5.5507,-5.6575,-5.6891,-5.7263,-5.775,-5.7912,-5.8003,-5.8124,-5.8332,-5.8594,-5.8788,-5.8992,-5.9414,-5.9852,-5.9498,-5.9573,-6.004,-5.9627,-5.9393,-5.9661,-6.0122,-6.0339,-6.0013,-5.9766,-6.0435,-6.2068,-6.1703,-6.2192,-6.3539,-6.3357,-6.343,-6.4194,-6.4303,-6.463,-6.5285,-6.4986,-6.5141,-6.5907,-6.5659,-6.5447,-6.5553,-6.5422,-6.5338,-6.5338,-6.5521,-6.5962,-6.6402,-6.6769,-6.688,-6.6769,-6.6402,-6.5888,-6.5485,-6.5338,-6.5338,-6.5338,-6.5301,-6.5411,-6.5742,-6.6366,-6.6769,-6.688,-6.688,-6.688,-6.688,-6.6366,-6.6366,-6.6659,-6.6512,-6.6366,-6.7393,-6.7173,-6.71,-6.71,-6.5925,-6.4934,-6.4567,-6.3796,-6.3282,-6.2817,-6.2842,-6.2805,-6.2805,-6.2805,-6.2805,-6.2622,-6.2291,-6.1704,-6.097,-6.075,-6.0639,-6.0456,-6.0272,-6.0212,-4.8984,-4.9018,-4.9018,-4.9018,-4.9018,-4.9018,-4.9018,-4.9018,-4.9018,-4.9018,-4.9187,-5.0507,-5.1117,-5.1489,-5.2706,-5.345,-5.345,-5.3585,-5.416,-5.5003,-5.5467,-5.6238,-5.7352,-5.767,-5.7926,-5.8097,-5.8259,-5.8408,-5.8574,-5.8837,-5.9066,-5.9099,-5.941,-5.9805,-6.0139,-5.9962,-5.9962,-6.0259,-6.0034,-5.977,-5.9651,-5.9868,-6.0231,-6.081,-6.139,-6.1824,-6.2078,-6.2041,-6.2721,-6.388,-6.2938,-6.244,-6.3329,-6.3401,-6.3627,-6.438,-6.4528,-6.4984,-6.5731,-6.6062,-6.6198,-6.6216,-6.5736,-6.5595,-6.5742,-6.6145,-6.6549,-6.6696,-6.7173,-6.7614,-6.7577,-6.7504,-6.6953,-6.5705,-6.5595,-6.5632,-6.5521,-6.5411,-6.5632,-6.6439,-6.7136,-6.7614,-6.765,-6.754,-6.7504,-6.7504,-6.743,-6.7393,-6.7467,-6.7357,-6.7577,-6.765,-6.754,-6.754,-6.7063,-6.6476,-6.5815,-6.5191,-6.4237,-6.3503,-6.2989,-6.2805,-6.2805,-6.2805,-6.2805,-6.2805,-6.2805,-6.2511,-6.2328,-6.1777,-6.163,-6.1447,-6.13,-6.1092,-6.0848,-4.9018,-4.9018,-4.9018,-4.9018,-4.9018,-4.9018,-4.9018,-4.9018,-4.9018,-4.9018,-4.9289,-5.0574,-5.1217,-5.1557,-5.2807,-5.3618,-5.3884,-5.4261,-5.4769,-5.5374,-5.6182,-5.7163,-5.8142,-5.8538,-5.9038,-5.9708,-6.0047,-6.0256,-6.0337,-6.054,-6.0711,-6.0924,-6.1026,-6.1226,-6.1351,-6.1308,-6.1344,-6.1425,-6.1335,-6.1218,-6.1254,-6.1245,-6.139,-6.1616,-6.1869,-6.2259,-6.2766,-6.2838,-6.3056,-6.3599,-6.3092,-6.3164,-6.3744,-6.349,-6.3599,-6.4279,-6.4452,-6.4863,-6.5711,-6.6462,-6.692,-6.703,-6.6983,-6.6953,-6.6953,-6.71,-6.7283,-6.7283,-6.754,-6.7687,-6.7687,-6.7606,-6.7359,-6.699,-6.6953,-6.688,-6.6843,-6.6916,-6.7063,-6.7247,-6.7567,-6.7687,-6.7724,-6.776,-6.7797,-6.776,-6.7724,-6.7724,-6.7687,-6.7687,-6.7687,-6.7687,-6.7687,-6.7687,-6.7257,-6.678,-6.6219,-6.5558,-6.4677,-6.3833,-6.3282,-6.2989,-6.2952,-6.2805,-6.2805,-6.2805,-6.2805,-6.2732,-6.2548,-6.2523,-6.2303,-6.2156,-6.2083,-6.1838,-6.1544,-4.9018,-4.9018,-4.9018,-4.9018,-4.9018,-4.9018,-4.9018,-4.9018,-4.9018,-4.9154,-4.9627,-5.0676,-5.1354,-5.1826,-5.2942,-5.3651,-5.4083,-5.5006,-5.5718,-5.6182,-5.7004,-5.8025,-5.901,-5.9306,-5.9773,-6.0609,-6.1229,-6.164,-6.1846,-6.2011,-6.2326,-6.2699,-6.2566,-6.244,-6.244,-6.244,-6.2331,-6.2078,-6.2005,-6.2041,-6.2005,-6.2041,-6.2041,-6.2078,-6.2295,-6.2549,-6.2802,-6.3019,-6.3337,-6.349,-6.3409,-6.3345,-6.349,-6.3273,-6.3446,-6.3925,-6.4541,-6.525,-6.6097,-6.6806,-6.7421,-6.7743,-6.7762,-6.765,-6.7687,-6.7687,-6.7687,-6.7633,-6.7606,-6.7606,-6.7524,-6.7771,-6.7909,-6.8083,-6.7716,-6.767,-6.776,-6.8238,-6.8385,-6.8348,-6.8421,-6.8531,-6.8605,-6.855,-6.8394,-6.8247,-6.8073,-6.788,-6.7807,-6.7687,-6.7724,-6.7724,-6.766,-6.7623,-6.756,-6.7083,-6.6586,-6.5852,-6.5118,-6.431,-6.3649,-6.3539,-6.3466,-6.2989,-6.2805,-6.2805,-6.2805,-6.278,-6.2707,-6.278,-6.2778,-6.2533,-6.2299,-6.2322,-6.2124,-4.9018,-4.9018,-4.9052,-4.9086,-4.9018,-4.9086,-4.9154,-4.912,-4.912,-4.9526,-5.0202,-5.1014,-5.1657,-5.2334,-5.3145,-5.3718,-5.4219,-5.5545,-5.6529,-5.7163,-5.7853,-5.8714,-5.9636,-5.9931,-6.0254,-6.0742,-6.1645,-6.223,-6.2407,-6.2707,-6.349,-6.3716,-6.3164,-6.3056,-6.2875,-6.3056,-6.2621,-6.2114,-6.2041,-6.2041,-6.2041,-6.2041,-6.2041,-6.2014,-6.2585,-6.2693,-6.2295,-6.2802,-6.3526,-6.4106,-6.3599,-6.3128,-6.2585,-6.2875,-6.3382,-6.3591,-6.483,-6.5873,-6.6693,-6.7388,-6.7822,-6.8463,-6.8284,-6.7787,-6.7907,-6.7907,-6.7807,-6.7588,-6.7524,-6.7479,-6.755,-6.7903,-6.8398,-6.8584,-6.833,-6.8019,-6.8017,-6.9192,-6.9449,-6.9201,-6.9596,-7.0036,-6.9825,-6.975,-6.9457,-6.9109,-6.8797,-6.8532,-6.8293,-6.8211,-6.789,-6.7927,-6.8137,-6.799,-6.8037,-6.7477,-6.6953,-6.6696,-6.5962,-6.5228,-6.4273,-6.4016,-6.3613,-6.3135,-6.2902,-6.289,-6.2828,-6.2877,-6.2936,-6.2995,-6.2844,-6.261,-6.2621,-6.2715,-6.2553,-4.9018,-4.9052,-4.9593,-4.9492,-4.912,-4.956,-4.9796,-4.9796,-4.9796,-5.0202,-5.0947,-5.1691,-5.2097,-5.2367,-5.3245,-5.3783,-5.4353,-5.5335,-5.6416,-5.7324,-5.8186,-5.908,-5.9934,-6.0329,-6.064,-6.101,-6.1592,-6.1875,-6.2193,-6.2421,-6.2557,-6.2621,-6.2593,-6.2376,-6.2331,-6.2376,-6.2231,-6.2041,-6.2041,-6.2041,-6.2041,-6.2041,-6.2041,-6.2041,-6.2223,-6.2259,-6.2087,-6.2766,-6.3237,-6.349,-6.3925,-6.3997,-6.3708,-6.3961,-6.417,-6.4452,-6.567,-6.6743,-6.7237,-6.8341,-6.9206,-6.949,-6.9375,-6.9229,-6.8605,-6.8568,-6.8284,-6.7853,-6.7588,-6.7735,-6.8089,-6.8283,-6.8619,-6.9237,-6.94,-6.9394,-6.9421,-6.9779,-6.9972,-6.975,-6.9896,-7.0043,-7.0059,-6.9937,-6.9798,-6.9665,-6.9583,-6.9409,-6.9099,-6.9128,-6.9018,-6.9054,-6.9155,-6.8798,-6.8431,-6.7834,-6.7467,-6.7467,-6.699,-6.6439,-6.5375,-6.4494,-6.3796,-6.3025,-6.3156,-6.3141,-6.3079,-6.3053,-6.3085,-6.3351,-6.359,-6.3709,-6.3391,-6.3292,-6.292,-4.9018,-4.9086,-4.9796,-4.983,-4.9526,-4.9932,-5.027,-5.0473,-5.0236,-5.071,-5.1589,-5.2097,-5.2535,-5.3072,-5.3513,-5.4184,-5.4916,-5.58,-5.6886,-5.8034,-5.9092,-5.9812,-6.029,-6.0609,-6.0878,-6.1342,-6.2119,-6.2493,-6.261,-6.2783,-6.2908,-6.2916,-6.249,-6.2346,-6.251,-6.2402,-6.2248,-6.2087,-6.2041,-6.2041,-6.2041,-6.2041,-6.2041,-6.2041,-6.2041,-6.2114,-6.2549,-6.3273,-6.3708,-6.378,-6.417,-6.4424,-6.4581,-6.5198,-6.5517,-6.5646,-6.7092,-6.8175,-6.8626,-6.9456,-6.9937,-7.0242,-7.0282,-6.9926,-6.9522,-6.9412,-6.9119,-6.8752,-6.8457,-6.8564,-6.888,-6.907,-6.9652,-7.0492,-7.0872,-7.0759,-7.0172,-7.0649,-7.071,-7.0551,-7.0624,-7.0843,-7.0814,-7.0661,-7.0478,-7.0354,-7.0245,-7.0025,-6.9762,-7.0006,-6.9944,-6.9705,-6.9338,-6.8834,-6.8266,-6.768,-6.7588,-6.7616,-6.7817,-6.7303,-6.6423,-6.5286,-6.4416,-6.3815,-6.3602,-6.3487,-6.3534,-6.3627,-6.3928,-6.4202,-6.4612,-6.4558,-6.413,-6.3921,-6.3539,-4.9052,-4.9154,-4.9898,-5.0202,-5.0236,-5.0304,-5.0809,-5.1148,-5.0775,-5.1282,-5.233,-5.2534,-5.3104,-5.398,-5.3881,-5.4585,-5.5949,-5.6406,-5.7628,-5.878,-5.9898,-6.0543,-6.0574,-6.097,-6.1337,-6.1832,-6.3177,-6.3315,-6.3161,-6.3574,-6.3769,-6.3344,-6.2724,-6.2681,-6.2578,-6.2751,-6.2554,-6.2123,-6.2041,-6.2041,-6.2041,-6.2041,-6.2041,-6.2014,-6.2259,-6.2657,-6.3345,-6.4178,-6.4758,-6.4794,-6.4758,-6.5133,-6.5355,-6.6619,-6.7186,-6.7628,-6.8692,-6.9857,-7.0492,-7.0252,-7.0383,-7.1011,-7.0751,-7.0293,-7.0257,-7.0192,-7.0026,-6.9648,-6.9668,-6.942,-6.9659,-7.0217,-7.0926,-7.1586,-7.2028,-7.1531,-7.0836,-7.1421,-7.1948,-7.1112,-7.1742,-7.2041,-7.2018,-7.1885,-7.1666,-7.0943,-7.0755,-7.0354,-7.0194,-7.0237,-6.9973,-6.9477,-6.9076,-6.8593,-6.8025,-6.7457,-6.7541,-6.767,-6.8156,-6.8,-6.7378,-6.6362,-6.5421,-6.4782,-6.4237,-6.4157,-6.4348,-6.454,-6.4812,-6.4939,-6.521,-6.4972,-6.4634,-6.4626,-6.4344,-4.9323,-4.9932,-5.0676,-5.098,-5.1082,-5.1589,-5.1993,-5.2259,-5.2123,-5.256,-5.3473,-5.3739,-5.384,-5.4013,-5.4209,-5.4812,-5.5697,-5.6368,-5.7308,-5.8983,-6.022,-6.0691,-6.093,-6.1508,-6.2099,-6.2435,-6.2709,-6.2969,-6.2975,-6.265,-6.2305,-6.2191,-6.2155,-6.1932,-6.2081,-6.2145,-6.2057,-6.1987,-6.2014,-6.205,-6.2087,-6.215,-6.2186,-6.2195,-6.2657,-6.3345,-6.4251,-6.5518,-6.6569,-6.704,-6.7148,-6.7207,-6.7964,-6.8539,-6.8881,-6.9216,-7.0025,-7.0851,-7.1063,-7.145,-7.1932,-7.194,-7.1888,-7.1725,-7.1073,-7.0951,-7.06,-7.0075,-6.9624,-6.9847,-7.0205,-7.1114,-7.1642,-7.1988,-7.2144,-7.2094,-7.1749,-7.1955,-7.1968,-7.1751,-7.1727,-7.1872,-7.1842,-7.164,-7.1495,-7.1447,-7.1078,-7.0605,-7.0513,-7.042,-7.0018,-6.9479,-6.926,-6.8917,-6.8414,-6.8028,-6.8166,-6.826,-6.8637,-6.8958,-6.8337,-6.7496,-6.6564,-6.5606,-6.4658,-6.4885,-6.563,-6.5537,-6.5851,-6.5822,-6.583,-6.5692,-6.562,-6.5482,-6.5301,-4.9424,-5.0168,-5.0913,-5.142,-5.1758,-5.223,-5.2701,-5.3003,-5.2863,-5.32,-5.3878,-5.411,-5.4175,-5.4274,-5.4404,-5.5017,-5.6379,-5.7431,-5.8355,-5.9383,-6.0246,-6.0696,-6.0965,-6.1706,-6.2397,-6.2285,-6.2507,-6.25,-6.2206,-6.2163,-6.1997,-6.1509,-6.1566,-6.1716,-6.1756,-6.182,-6.1904,-6.2095,-6.2404,-6.2549,-6.2585,-6.2947,-6.3128,-6.3164,-6.3563,-6.4142,-6.4975,-6.5663,-6.6786,-6.7655,-6.8054,-6.85,-6.9368,-6.9864,-7.0164,-7.0514,-7.1136,-7.1633,-7.1816,-7.1999,-7.2189,-7.2292,-7.2351,-7.2197,-7.1896,-7.1765,-7.1581,-7.1099,-7.085,-7.0756,-7.0977,-7.1729,-7.2174,-7.1939,-7.1994,-7.1994,-7.1964,-7.2054,-7.2024,-7.178,-7.1713,-7.1464,-7.1293,-7.1231,-7.0796,-7.0556,-7.0356,-6.9957,-7.0296,-7.0235,-7.0003,-6.9646,-6.9536,-6.9282,-6.8845,-6.8706,-6.8961,-6.9129,-6.9369,-6.9697,-6.9632,-6.8684,-6.77,-6.6959,-6.6401,-6.686,-6.7447,-6.7214,-6.6895,-6.6931,-6.696,-6.675,-6.6496,-6.6207,-6.6062,-4.9593,-5.0338,-5.1048,-5.1826,-5.2468,-5.2701,-5.3139,-5.3613,-5.3299,-5.3532,-5.3975,-5.4078,-5.4303,-5.4399,-5.4367,-5.5453,-5.7161,-5.8779,-5.9541,-5.9676,-6.0227,-6.0574,-6.0869,-6.1587,-6.1996,-6.1674,-6.2321,-6.2234,-6.1996,-6.2103,-6.2148,-6.1559,-6.1681,-6.1824,-6.1828,-6.1965,-6.2165,-6.2376,-6.3019,-6.3382,-6.3418,-6.3925,-6.4178,-6.4215,-6.4468,-6.483,-6.5446,-6.6025,-6.6714,-6.7909,-6.8235,-6.8856,-6.9646,-7.0317,-7.0989,-7.1325,-7.186,-7.2021,-7.2057,-7.2071,-7.2048,-7.2018,-7.2144,-7.2233,-7.2226,-7.2153,-7.2087,-7.2028,-7.1775,-7.1623,-7.1598,-7.2019,-7.219,-7.1962,-7.1847,-7.1847,-7.1847,-7.1903,-7.1842,-7.1656,-7.1625,-7.1443,-7.1045,-7.0796,-7.018,-6.9739,-6.9546,-6.9569,-6.9975,-7.0126,-7.0005,-6.9963,-6.9896,-6.9497,-6.9061,-6.9388,-6.9642,-6.9818,-7.0096,-7.0356,-7.0617,-7.0078,-6.9279,-6.8922,-6.8681,-6.8839,-6.87,-6.841,-6.8199,-6.8199,-6.78,-6.7329,-6.704,-6.6858,-6.6677,-5.0338,-5.1082,-5.1826,-5.257,-5.328,-5.3481,-5.368,-5.3913,-5.3939,-5.4168,-5.4399,-5.4592,-5.456,-5.4526,-5.4655,-5.5614,-5.7166,-5.8683,-5.9615,-5.9748,-6.0199,-6.0512,-6.0823,-6.1438,-6.163,-6.1846,-6.2414,-6.2644,-6.2413,-6.2637,-6.2393,-6.1854,-6.2213,-6.2335,-6.2205,-6.2398,-6.2795,-6.2988,-6.3667,-6.4057,-6.4194,-6.4468,-6.4649,-6.4722,-6.512,-6.5482,-6.5917,-6.6895,-6.7764,-6.809,-6.9249,-6.9987,-7.029,-7.0538,-7.1023,-7.1683,-7.1932,-7.2084,-7.2054,-7.2018,-7.1988,-7.2018,-7.2018,-7.2048,-7.2054,-7.1994,-7.1994,-7.1939,-7.1878,-7.1786,-7.1526,-7.1978,-7.1993,-7.1878,-7.1842,-7.1872,-7.1811,-7.178,-7.1749,-7.1526,-7.1526,-7.1448,-7.0977,-7.0687,-7.0403,-7.0077,-6.9854,-6.9993,-7.0428,-7.0434,-7.0289,-7.0252,-7.0289,-6.9817,-6.9274,-6.9854,-7.0289,-7.0428,-7.0676,-7.1003,-7.119,-7.1267,-7.091,-7.018,-6.9672,-6.9424,-6.9388,-6.9461,-6.9068,-6.8778,-6.8271,-6.78,-6.7402,-6.704,-6.6822,-5.0879,-5.1252,-5.1995,-5.2773,-5.345,-5.375,-5.3915,-5.4013,-5.4239,-5.4399,-5.4494,-5.4623,-5.4623,-5.456,-5.4557,-5.5484,-5.6967,-5.8272,-5.9135,-5.9511,-6.0135,-6.0512,-6.0864,-6.151,-6.1931,-6.2269,-6.2902,-6.3046,-6.254,-6.2534,-6.2599,-6.2719,-6.294,-6.2898,-6.2749,-6.2964,-6.3232,-6.3471,-6.4076,-6.4632,-6.4881,-6.5251,-6.5591,-6.5736,-6.5917,-6.6207,-6.646,-6.7293,-6.7981,-6.8199,-6.9104,-6.9926,-7.0386,-7.0635,-7.0944,-7.1781,-7.1988,-7.1957,-7.1933,-7.1903,-7.1872,-7.1744,-7.1805,-7.1903,-7.1933,-7.1903,-7.1842,-7.1889,-7.2128,-7.206,-7.1567,-7.2014,-7.205,-7.176,-7.1682,-7.1718,-7.1687,-7.1656,-7.1593,-7.1494,-7.1567,-7.1381,-7.0837,-7.0656,-7.0656,-7.0444,-7.0227,-7.0517,-7.0987,-7.0842,-7.0734,-7.0517,-7.0553,-7.0444,-7.0046,-7.0408,-7.077,-7.0915,-7.106,-7.1386,-7.1494,-7.1458,-7.1277,-7.0842,-7.0444,-7.0118,-7.0408,-7.0589,-6.9973,-6.9321,-6.8959,-6.8488,-6.7728,-6.7221,-6.704,-5.098,-5.1048,-5.1928,-5.2672,-5.328,-5.3815,-5.398,-5.4013,-5.4335,-5.4463,-5.4431,-5.4463,-5.4494,-5.4563,-5.4839,-5.5561,-5.6905,-5.7962,-5.8789,-5.9646,-6.0413,-6.0826,-6.125,-6.1955,-6.2696,-6.2773,-6.3161,-6.334,-6.2916,-6.2928,-6.3086,-6.3229,-6.3448,-6.3489,-6.3413,-6.3546,-6.356,-6.3912,-6.4505,-6.5085,-6.5605,-6.6277,-6.6822,-6.6822,-6.6822,-6.6822,-6.7112,-6.7619,-6.8126,-6.8452,-6.9104,-6.9787,-7.033,-7.0517,-7.1003,-7.1727,-7.1897,-7.1842,-7.178,-7.1718,-7.1687,-7.1557,-7.1656,-7.1718,-7.1749,-7.178,-7.1805,-7.1863,-7.206,-7.211,-7.1675,-7.2038,-7.2038,-7.1712,-7.1494,-7.1494,-7.1526,-7.1562,-7.1562,-7.1531,-7.1603,-7.1639,-7.1422,-7.106,-7.1168,-7.1784,-7.1603,-7.1712,-7.2001,-7.1494,-7.1277,-7.0879,-7.0806,-7.1024,-7.0987,-7.106,-7.1241,-7.1277,-7.1313,-7.1458,-7.1494,-7.1494,-7.1313,-7.1205,-7.1205,-7.1024,-7.1422,-7.1422,-7.0698,-7.0082,-6.972,-6.9068,-6.809,-6.751,-6.7257,-5.0202,-5.0338,-5.1725,-5.2367,-5.2636,-5.3577,-5.3882,-5.3849,-5.4271,-5.4399,-5.4303,-5.4399,-5.4494,-5.4632,-5.5152,-5.6008,-5.6967,-5.7862,-5.889,-6.0016,-6.0896,-6.1494,-6.2047,-6.2847,-6.3296,-6.3372,-6.3484,-6.3408,-6.3448,-6.3917,-6.3917,-6.3743,-6.4037,-6.4135,-6.3654,-6.4045,-6.4448,-6.4657,-6.5515,-6.6253,-6.6529,-6.6799,-6.6967,-6.6967,-6.7003,-6.7257,-6.7836,-6.8199,-6.8488,-6.9134,-6.9859,-7.0263,-7.048,-7.1024,-7.1313,-7.1526,-7.1593,-7.1562,-7.1557,-7.1557,-7.1557,-7.1531,-7.1598,-7.1562,-7.1811,-7.1847,-7.1842,-7.1526,-7.1712,-7.1748,-7.1603,-7.1639,-7.1603,-7.1603,-7.1567,-7.1603,-7.1639,-7.1857,-7.182,-7.211,-7.2364,-7.2581,-7.2581,-7.211,-7.182,-7.2509,-7.3052,-7.3124,-7.2943,-7.2364,-7.1675,-7.1241,-7.106,-7.1241,-7.1313,-7.1494,-7.1494,-7.1494,-7.1494,-7.1494,-7.1494,-7.1494,-7.1494,-7.1422,-7.1494,-7.1494,-7.1494,-7.135,-7.1096,-7.0698,-7.0227,-6.9321,-6.8235,-6.7836,-6.7547,-4.9695,-5.0234,-5.1691,-5.23,-5.2434,-5.3377,-5.3849,-5.3948,-5.4175,-5.4335,-5.4367,-5.4465,-5.4494,-5.4701,-5.5255,-5.6079,-5.6936,-5.7831,-5.9001,-6.0301,-6.1187,-6.1863,-6.2581,-6.3507,-6.4091,-6.4104,-6.433,-6.4521,-6.4483,-6.4305,-6.4234,-6.4486,-6.4536,-6.4513,-6.4114,-6.4473,-6.4713,-6.5222,-6.6173,-6.6978,-6.7342,-6.7782,-6.8126,-6.8126,-6.809,-6.8307,-6.8633,-6.9176,-6.9466,-6.9973,-7.0589,-7.1024,-7.106,-7.1313,-7.1494,-7.1494,-7.1494,-7.1494,-7.1494,-7.1531,-7.1567,-7.1712,-7.1929,-7.24,-7.269,-7.2798,-7.2581,-7.2219,-7.2219,-7.2038,-7.1675,-7.1531,-7.182,-7.1929,-7.1929,-7.2291,-7.24,-7.2255,-7.24,-7.2762,-7.316,-7.3414,-7.3631,-7.3414,-7.3269,-7.3812,-7.4211,-7.4247,-7.3812,-7.3124,-7.2327,-7.1494,-7.1422,-7.1458,-7.1458,-7.1494,-7.1494,-7.1494,-7.1494,-7.1494,-7.1494,-7.1494,-7.1494,-7.1494,-7.1494,-7.1494,-7.1494,-7.1422,-7.1277,-7.0987,-7.0661,-6.9865,-6.9032,-6.8126,-6.7764,-4.9323,-4.9965,-5.142,-5.2029,-5.2163,-5.3242,-5.368,-5.3642,-5.4139,-5.4335,-5.4399,-5.4497,-5.4598,-5.4874,-5.5426,-5.6182,-5.7249,-5.8141,-5.9347,-6.0518,-6.1652,-6.2505,-6.3232,-6.4163,-6.4653,-6.4621,-6.4718,-6.4866,-6.4796,-6.4654,-6.4584,-6.5078,-6.4735,-6.4703,-6.4844,-6.5121,-6.5534,-6.6384,-6.7303,-6.7806,-6.8069,-6.8723,-6.9032,-6.9134,-6.9207,-6.9316,-6.9569,-6.9937,-7.0299,-7.077,-7.1096,-7.1386,-7.1422,-7.1458,-7.1494,-7.1567,-7.1712,-7.1748,-7.1712,-7.1712,-7.1857,-7.2219,-7.2545,-7.3197,-7.3599,-7.3852,-7.374,-7.3052,-7.3016,-7.269,-7.2291,-7.2183,-7.2509,-7.269,-7.2617,-7.3124,-7.3486,-7.3233,-7.3088,-7.3378,-7.3812,-7.4323,-7.4537,-7.4609,-7.479,-7.5225,-7.537,-7.5264,-7.4649,-7.3849,-7.3088,-7.2219,-7.1965,-7.182,-7.1531,-7.1531,-7.1531,-7.1494,-7.1494,-7.1494,-7.1494,-7.1494,-7.1494,-7.1494,-7.1494,-7.1494,-7.1494,-7.1494,-7.1494,-7.1241,-7.0987,-7.0698,-6.9973,-6.8923,-6.7836,-4.9018,-4.9187,-5.0676,-5.1285,-5.1486,-5.3236,-5.3473,-5.3099,-5.4031,-5.4367,-5.4303,-5.4468,-5.4977,-5.5426,-5.5805,-5.6629,-5.8073,-5.9069,-6.0169,-6.1546,-6.2958,-6.3594,-6.4087,-6.4511,-6.4935,-6.4735,-6.4983,-6.4984,-6.488,-6.5158,-6.4879,-6.4706,-6.5055,-6.4949,-6.533,-6.6063,-6.6927,-6.7744,-6.8494,-6.8791,-6.8982,-6.9321,-6.9394,-6.9388,-6.9352,-6.9533,-7.0258,-7.0444,-7.0734,-7.1277,-7.1422,-7.1494,-7.1494,-7.1494,-7.1494,-7.1603,-7.1965,-7.2038,-7.2038,-7.24,-7.2979,-7.3486,-7.3812,-7.3957,-7.4319,-7.4066,-7.3885,-7.3885,-7.3849,-7.3671,-7.3599,-7.3704,-7.3486,-7.3595,-7.3559,-7.3776,-7.4066,-7.403,-7.3921,-7.4066,-7.4464,-7.5044,-7.5334,-7.537,-7.5406,-7.5768,-7.5804,-7.5732,-7.5228,-7.45,-7.3849,-7.316,-7.2726,-7.2291,-7.1675,-7.1567,-7.1531,-7.1494,-7.1494,-7.1494,-7.1494,-7.1494,-7.1494,-7.1494,-7.1494,-7.1494,-7.1494,-7.1494,-7.1494,-7.1494,-7.1313,-7.0879,-7.0154,-6.9068,-6.7981,-4.9255,-4.9729,-5.0432,-5.097,-5.1478,-5.2757,-5.3365,-5.3635,-5.4102,-5.4367,-5.4468,-5.4945,-5.5357,-5.577,-5.6702,-5.7387,-5.8349,-5.9594,-6.0697,-6.1771,-6.2918,-6.3792,-6.4248,-6.4631,-6.4774,-6.4881,-6.5231,-6.5616,-6.5721,-6.6037,-6.6491,-6.649,-6.6,-6.6142,-6.6629,-6.7314,-6.8135,-6.8718,-6.9404,-6.9808,-6.9979,-7.0408,-7.0625,-7.0625,-7.0625,-7.0734,-7.1024,-7.106,-7.1277,-7.1422,-7.1531,-7.1531,-7.1567,-7.1567,-7.1494,-7.1567,-7.1965,-7.2327,-7.2871,-7.3233,-7.3812,-7.4395,-7.4649,-7.4826,-7.5116,-7.5297,-7.5044,-7.4899,-7.4612,-7.454,-7.3961,-7.3888,-7.3925,-7.4287,-7.4537,-7.4609,-7.4718,-7.4718,-7.4826,-7.4971,-7.5334,-7.5841,-7.5985,-7.6058,-7.613,-7.6239,-7.6203,-7.6094,-7.5587,-7.5189,-7.4537,-7.3776,-7.3269,-7.2798,-7.2183,-7.1857,-7.1531,-7.1494,-7.1494,-7.1494,-7.1494,-7.1494,-7.1494,-7.1494,-7.1494,-7.1494,-7.1494,-7.1494,-7.1494,-7.1494,-7.1277,-7.0951,-7.0118,-6.9249,-6.8307,-4.9382,-4.9949,-5.0134,-5.0714,-5.1571,-5.2479,-5.3254,-5.383,-5.4168,-5.4539,-5.4874,-5.5391,-5.591,-5.6462,-5.7288,-5.8322,-5.9078,-6.0288,-6.1328,-6.2369,-6.3309,-6.3973,-6.4393,-6.4707,-6.4984,-6.523,-6.579,-6.6281,-6.6737,-6.7405,-6.7754,-6.7858,-6.7646,-6.7716,-6.7743,-6.8636,-6.9237,-6.9728,-7.0179,-7.0698,-7.0806,-7.1132,-7.1422,-7.1386,-7.135,-7.135,-7.1386,-7.1422,-7.1603,-7.1712,-7.1748,-7.1675,-7.1712,-7.1675,-7.1531,-7.1639,-7.2038,-7.269,-7.3342,-7.4392,-7.479,-7.537,-7.5478,-7.5768,-7.613,-7.6275,-7.5841,-7.5587,-7.5442,-7.5189,-7.4573,-7.4826,-7.4971,-7.5334,-7.5225,-7.5297,-7.5551,-7.5623,-7.5768,-7.5949,-7.6167,-7.6203,-7.6203,-7.6203,-7.6239,-7.6275,-7.6275,-7.6167,-7.5949,-7.5551,-7.5225,-7.4464,-7.3671,-7.3197,-7.269,-7.211,-7.1567,-7.1494,-7.1494,-7.1494,-7.1494,-7.1494,-7.1494,-7.1494,-7.1494,-7.1494,-7.1494,-7.1494,-7.1494,-7.1494,-7.1277,-7.1096,-7.048,-6.9647,-6.8778,-4.9324,-4.9535,-4.9835,-5.0545,-5.1602,-5.2638,-5.3172,-5.3479,-5.4124,-5.4842,-5.5428,-5.5667,-5.6495,-5.7495,-5.8046,-5.8908,-6.0047,-6.1258,-6.2265,-6.3031,-6.3937,-6.4566,-6.4845,-6.5088,-6.5577,-6.6105,-6.67,-6.7295,-6.7856,-6.8277,-6.8699,-6.922,-6.9353,-6.9138,-6.8597,-6.9529,-7.0509,-7.125,-7.1354,-7.135,-7.135,-7.1458,-7.1494,-7.1494,-7.1494,-7.1494,-7.1494,-7.1712,-7.1965,-7.2291,-7.1929,-7.2001,-7.24,-7.1784,-7.1531,-7.1531,-7.2871,-7.3269,-7.3088,-7.5008,-7.5841,-7.5949,-7.5841,-7.6167,-7.6239,-7.6275,-7.6275,-7.5985,-7.6058,-7.613,-7.6094,-7.6094,-7.6058,-7.5985,-7.5841,-7.5841,-7.6058,-7.6167,-7.6203,-7.6239,-7.6239,-7.6275,-7.6275,-7.6275,-7.6275,-7.6275,-7.6275,-7.6203,-7.6094,-7.5949,-7.5659,-7.5189,-7.4428,-7.3957,-7.3378,-7.2219,-7.1639,-7.1567,-7.1494,-7.1494,-7.1494,-7.1494,-7.1494,-7.1494,-7.1494,-7.1494,-7.1494,-7.1494,-7.1494,-7.1494,-7.1494,-7.1277,-7.0661,-7.0046,-6.9176,-4.9441,-4.9569,-5.0292,-5.1081,-5.1881,-5.2463,-5.318,-5.3983,-5.4394,-5.4911,-5.5632,-5.6115,-5.6909,-5.7942,-5.9148,-5.9942,-6.0668,-6.223,-6.3135,-6.3618,-6.4457,-6.5262,-6.5611,-6.5891,-6.6417,-6.7295,-6.7891,-6.8413,-6.9008,-6.9463,-7.0123,-7.071,-7.0762,-7.0825,-7.059,-7.087,-7.1282,-7.1458,-7.1494,-7.1494,-7.1494,-7.1494,-7.1494,-7.1494,-7.1494,-7.1494,-7.1567,-7.1893,-7.24,-7.2726,-7.2327,-7.2436,-7.2581,-7.2001,-7.1567,-7.1712,-7.269,-7.3559,-7.4175,-7.5551,-7.5913,-7.5877,-7.6022,-7.6275,-7.6275,-7.6275,-7.6275,-7.6275,-7.6275,-7.6275,-7.6239,-7.6239,-7.6203,-7.6203,-7.613,-7.613,-7.6239,-7.6239,-7.6275,-7.6275,-7.6275,-7.6275,-7.6275,-7.6275,-7.6275,-7.6275,-7.6275,-7.6275,-7.6203,-7.6203,-7.6058,-7.5804,-7.5297,-7.4826,-7.4138,-7.3016,-7.2255,-7.2146,-7.182,-7.1494,-7.1494,-7.1494,-7.1494,-7.1494,-7.1494,-7.1494,-7.1494,-7.1494,-7.1494,-7.1494,-7.1494,-7.1313,-7.077,-7.0227,-6.9575,-4.9761,-5.0129,-5.0789,-5.1641,-5.2498,-5.2723,-5.3514,-5.4488,-5.4802,-5.5322,-5.6178,-5.7004,-5.7798,-5.8764,-5.9904,-6.0944,-6.1289,-6.2576,-6.3658,-6.4035,-6.4663,-6.5436,-6.6066,-6.6623,-6.7323,-6.8273,-6.9146,-6.9735,-7.0257,-7.0923,-7.1327,-7.1578,-7.1866,-7.1604,-7.1485,-7.149,-7.1552,-7.1625,-7.1593,-7.1494,-7.1494,-7.1494,-7.1494,-7.1494,-7.1494,-7.1494,-7.1712,-7.2219,-7.2871,-7.2979,-7.2943,-7.2907,-7.2762,-7.2436,-7.1965,-7.2146,-7.3052,-7.403,-7.4971,-7.5768,-7.5877,-7.53,-7.5877,-7.6239,-7.6275,-7.6275,-7.6275,-7.6275,-7.6275,-7.6275,-7.6275,-7.6275,-7.6275,-7.6275,-7.6275,-7.6275,-7.6275,-7.6275,-7.6275,-7.6275,-7.6275,-7.6275,-7.6275,-7.6275,-7.6275,-7.6275,-7.6275,-7.6275,-7.6275,-7.6275,-7.6275,-7.6058,-7.5732,-7.5189,-7.4609,-7.3849,-7.3197,-7.2762,-7.2291,-7.182,-7.1494,-7.1494,-7.1494,-7.1494,-7.1494,-7.1494,-7.1494,-7.1494,-7.1494,-7.1494,-7.1494,-7.1241,-7.0806,-7.048,-7.0118,-5.0277,-5.108,-5.1262,-5.2221,-5.3368,-5.3452,-5.3967,-5.4818,-5.5383,-5.6141,-5.6997,-5.7853,-5.8648,-5.9584,-6.0587,-6.1352,-6.2085,-6.2958,-6.3762,-6.4391,-6.491,-6.5646,-6.6378,-6.6965,-6.8088,-6.9141,-6.9976,-7.0626,-7.1422,-7.1651,-7.1872,-7.1994,-7.2048,-7.1957,-7.1872,-7.178,-7.1749,-7.1656,-7.1593,-7.1494,-7.1494,-7.1494,-7.1603,-7.1675,-7.1748,-7.1857,-7.2146,-7.269,-7.3342,-7.3523,-7.3342,-7.3454,-7.3414,-7.316,-7.2907,-7.3197,-7.4319,-7.4793,-7.5515,-7.6239,-7.6094,-7.5732,-7.5949,-7.6203,-7.6275,-7.6275,-7.6275,-7.6275,-7.6275,-7.6275,-7.6275,-7.6275,-7.6275,-7.6275,-7.6275,-7.6275,-7.6275,-7.6275,-7.6275,-7.6275,-7.6275,-7.6275,-7.6275,-7.6275,-7.6275,-7.6275,-7.6275,-7.6275,-7.6275,-7.6275,-7.6275,-7.6203,-7.5841,-7.5406,-7.4863,-7.4464,-7.4069,-7.3631,-7.2834,-7.2327,-7.1929,-7.1567,-7.1494,-7.1494,-7.1494,-7.1494,-7.1494,-7.1494,-7.1494,-7.1494,-7.1494,-7.1458,-7.1132,-7.1205,-7.0915,-5.0848,-5.1218,-5.2347,-5.3038,-5.3487,-5.3974,-5.4353,-5.4692,-5.5668,-5.6526,-5.7067,-5.799,-5.8988,-5.9783,-6.0716,-6.1553,-6.2391,-6.3263,-6.4172,-6.4764,-6.5182,-6.6268,-6.7105,-6.79,-6.9095,-7.0181,-7.0943,-7.1298,-7.1763,-7.2054,-7.2114,-7.2204,-7.2263,-7.2204,-7.2084,-7.1994,-7.1811,-7.1661,-7.1567,-7.1608,-7.1608,-7.1644,-7.1897,-7.2187,-7.2364,-7.2545,-7.3088,-7.3812,-7.4428,-7.45,-7.4504,-7.4612,-7.4612,-7.4066,-7.3704,-7.4392,-7.5011,-7.5481,-7.6456,-7.6456,-7.6311,-7.6348,-7.642,-7.6239,-7.6275,-7.6275,-7.6275,-7.6275,-7.6275,-7.6275,-7.6275,-7.6275,-7.6384,-7.6492,-7.6456,-7.642,-7.642,-7.642,-7.6384,-7.6275,-7.6275,-7.6275,-7.6275,-7.6275,-7.6275,-7.6275,-7.6311,-7.6348,-7.6275,-7.6275,-7.6275,-7.6239,-7.613,-7.5732,-7.5587,-7.5261,-7.4899,-7.4431,-7.3667,-7.2907,-7.2364,-7.2001,-7.1675,-7.1494,-7.1494,-7.1494,-7.1494,-7.1494,-7.1494,-7.1463,-7.1463,-7.1494,-7.1494,-7.1463,-7.1354,-5.1257,-5.1701,-5.2873,-5.3563,-5.3905,-5.4479,-5.4758,-5.5142,-5.6185,-5.701,-5.7805,-5.8768,-5.9491,-6.0075,-6.1072,-6.1944,-6.2655,-6.3496,-6.4338,-6.4972,-6.5445,-6.6456,-6.7433,-6.8538,-6.958,-7.0739,-7.1573,-7.1891,-7.2114,-7.2263,-7.2351,-7.2351,-7.2438,-7.2263,-7.2084,-7.1903,-7.1651,-7.1608,-7.1661,-7.1838,-7.1978,-7.2123,-7.2702,-7.2987,-7.3096,-7.349,-7.3957,-7.4721,-7.5047,-7.5083,-7.5083,-7.5083,-7.5047,-7.4612,-7.4754,-7.537,-7.5623,-7.6022,-7.6565,-7.6492,-7.6637,-7.6782,-7.6601,-7.6384,-7.6275,-7.6275,-7.6275,-7.6275,-7.6275,-7.6275,-7.6275,-7.6311,-7.6529,-7.6746,-7.671,-7.6637,-7.6601,-7.6565,-7.6456,-7.6311,-7.6275,-7.6275,-7.6275,-7.6275,-7.6311,-7.6384,-7.6529,-7.6637,-7.6492,-7.6275,-7.6275,-7.6275,-7.6275,-7.613,-7.6022,-7.5841,-7.5478,-7.5044,-7.454,-7.3776,-7.3052,-7.24,-7.2074,-7.1748,-7.1494,-7.1494,-7.1494,-7.1463,-7.1463,-7.1431,-7.1304,-7.1207,-7.124,-7.1368,-7.1219,-5.1597,-5.2257,-5.3149,-5.3908,-5.4491,-5.4776,-5.5192,-5.5731,-5.6584,-5.7672,-5.8752,-5.9812,-6.016,-6.0399,-6.118,-6.2124,-6.2804,-6.3583,-6.4395,-6.5078,-6.564,-6.6527,-6.7595,-6.8687,-6.9775,-7.0714,-7.1453,-7.1994,-7.2144,-7.2204,-7.2233,-7.2409,-7.2233,-7.2097,-7.2035,-7.2009,-7.1897,-7.1968,-7.2332,-7.2689,-7.2683,-7.308,-7.3763,-7.3832,-7.3931,-7.4106,-7.4356,-7.4754,-7.5225,-7.5225,-7.5261,-7.5297,-7.5297,-7.5297,-7.5696,-7.5913,-7.6094,-7.6384,-7.6565,-7.6492,-7.6456,-7.6492,-7.6348,-7.6456,-7.6492,-7.6348,-7.6311,-7.6275,-7.6275,-7.6275,-7.6275,-7.6565,-7.6855,-7.7,-7.7036,-7.7144,-7.7253,-7.7217,-7.7072,-7.6927,-7.671,-7.6637,-7.6275,-7.6311,-7.6529,-7.6565,-7.6782,-7.6963,-7.6963,-7.6674,-7.6384,-7.6384,-7.6565,-7.6565,-7.6239,-7.6058,-7.5877,-7.5515,-7.5116,-7.4576,-7.3812,-7.3088,-7.2436,-7.211,-7.1784,-7.1567,-7.1494,-7.1463,-7.1368,-7.1175,-7.1045,-7.0847,-7.088,-7.1045,-7.1038,-5.2015,-5.2326,-5.3667,-5.4356,-5.4494,-5.4557,-5.5196,-5.6116,-5.6718,-5.7513,-5.8472,-5.9558,-6.0199,-6.0427,-6.1016,-6.1925,-6.303,-6.3598,-6.4433,-6.5312,-6.5954,-6.6695,-6.7733,-6.8862,-6.9841,-7.0701,-7.1423,-7.1872,-7.1842,-7.1811,-7.178,-7.1816,-7.1895,-7.2024,-7.2268,-7.2272,-7.2326,-7.2422,-7.3141,-7.3276,-7.2903,-7.3369,-7.3907,-7.4441,-7.483,-7.5152,-7.5406,-7.5768,-7.5985,-7.6022,-7.6022,-7.6022,-7.6022,-7.6022,-7.6094,-7.6239,-7.6456,-7.6782,-7.6891,-7.6782,-7.6674,-7.6782,-7.6818,-7.6891,-7.6782,-7.6492,-7.6348,-7.6384,-7.6384,-7.642,-7.6529,-7.6891,-7.7253,-7.7362,-7.7434,-7.7688,-7.7941,-7.7833,-7.7724,-7.7507,-7.7253,-7.6891,-7.6492,-7.6492,-7.6674,-7.6927,-7.7217,-7.7434,-7.7688,-7.7507,-7.671,-7.6674,-7.7,-7.6963,-7.6565,-7.6239,-7.6058,-7.5877,-7.5515,-7.5008,-7.4468,-7.3486,-7.2545,-7.2327,-7.2074,-7.1685,-7.1399,-7.1463,-7.1336,-7.0946,-7.0781,-7.0579,-7.0478,-7.0581,-7.0649,-5.2188,-5.2394,-5.3842,-5.4494,-5.4494,-5.4494,-5.5277,-5.6406,-5.6859,-5.7656,-5.8725,-5.9669,-6.0231,-6.0494,-6.1112,-6.1946,-6.3191,-6.3654,-6.4702,-6.5672,-6.6408,-6.7102,-6.8064,-6.9048,-6.99,-7.0761,-7.1313,-7.1625,-7.154,-7.1965,-7.2142,-7.2046,-7.2195,-7.2463,-7.28,-7.2842,-7.2885,-7.3113,-7.3902,-7.3861,-7.3449,-7.417,-7.4779,-7.5386,-7.5665,-7.5952,-7.6058,-7.6275,-7.6275,-7.6275,-7.6239,-7.6239,-7.6348,-7.6601,-7.6782,-7.7,-7.7217,-7.7543,-7.7615,-7.7398,-7.7036,-7.7144,-7.7253,-7.7253,-7.7362,-7.7181,-7.7615,-7.7651,-7.7651,-7.7651,-7.7651,-7.7941,-7.834,-7.8593,-7.834,-7.8267,-7.8376,-7.834,-7.8267,-7.8159,-7.776,-7.7181,-7.6963,-7.7108,-7.7362,-7.7833,-7.8014,-7.7724,-7.7977,-7.8086,-7.7326,-7.6818,-7.7036,-7.6963,-7.6456,-7.6275,-7.6239,-7.6022,-7.5841,-7.5409,-7.483,-7.3563,-7.2617,-7.2521,-7.2135,-7.142,-7.124,-7.1424,-7.0952,-7.0443,-7.034,-7.0305,-7.0272,-7.0275,-7.031,-5.2153,-5.2532,-5.3908,-5.4494,-5.4494,-5.4494,-5.5251,-5.6387,-5.6863,-5.7725,-5.8932,-5.9832,-6.0262,-6.0728,-6.164,-6.2515,-6.3351,-6.4153,-6.5171,-6.6059,-6.6686,-6.7336,-6.8232,-6.9245,-7.0096,-7.081,-7.1422,-7.1548,-7.1564,-7.2142,-7.2614,-7.2821,-7.3119,-7.3456,-7.3426,-7.3356,-7.3253,-7.3472,-7.3974,-7.4399,-7.4828,-7.5401,-7.572,-7.6002,-7.621,-7.6275,-7.6275,-7.6275,-7.6275,-7.6275,-7.6275,-7.6275,-7.6384,-7.671,-7.6927,-7.7144,-7.7651,-7.8014,-7.8231,-7.7905,-7.7651,-7.7543,-7.7579,-7.7724,-7.7869,-7.8231,-7.8629,-7.8774,-7.8774,-7.8629,-7.8629,-7.8847,-7.9245,-7.939,-7.9064,-7.8992,-7.9028,-7.8955,-7.8847,-7.8774,-7.8159,-7.7543,-7.7651,-7.7796,-7.8014,-7.8484,-7.8521,-7.8231,-7.8014,-7.7905,-7.7507,-7.6963,-7.6746,-7.6565,-7.6311,-7.6275,-7.6275,-7.6239,-7.6022,-7.5735,-7.5125,-7.3732,-7.2909,-7.2834,-7.2371,-7.1593,-7.1421,-7.1605,-7.0945,-7.0416,-7.0736,-7.0984,-7.0625,-7.055,-7.0193,-5.208,-5.3253,-5.4149,-5.4494,-5.4494,-5.4494,-5.4765,-5.534,-5.6515,-5.7305,-5.8156,-5.9424,-6.0167,-6.036,-6.1481,-6.2643,-6.3907,-6.4716,-6.561,-6.6523,-6.7138,-6.7625,-6.8404,-6.9558,-7.0382,-7.0987,-7.1542,-7.1845,-7.185,-7.243,-7.2829,-7.2899,-7.2899,-7.3295,-7.3796,-7.3653,-7.3469,-7.3794,-7.415,-7.4611,-7.493,-7.5431,-7.5933,-7.6142,-7.6311,-7.6275,-7.6275,-7.6275,-7.6275,-7.6275,-7.6275,-7.6242,-7.642,-7.6567,-7.6748,-7.7108,-7.7651,-7.8086,-7.8159,-7.8267,-7.8122,-7.7941,-7.8122,-7.8484,-7.8774,-7.9209,-7.9462,-7.9535,-7.939,-7.8955,-7.8955,-7.939,-7.9752,-7.9571,-7.9281,-7.9897,-8.0259,-7.9861,-7.9535,-7.9064,-7.8448,-7.8267,-7.8412,-7.8376,-7.8086,-7.8412,-7.8376,-7.8195,-7.8484,-7.8122,-7.7651,-7.7144,-7.6601,-7.642,-7.6275,-7.6275,-7.6275,-7.6275,-7.6172,-7.5751,-7.4969,-7.3828,-7.3221,-7.3218,-7.2648,-7.1867,-7.1834,-7.1801,-7.1801,-7.1442,-7.1726,-7.1794,-7.1317,-7.0918,-7.0599]}]]